GFSCGP_850_thetae_000.txt.gz
Theta_e
310 308 309 310 307 309 307 307 306 306 307 308 309 310 309 309 310 310 311 311 312 312 314 315 315 314 314 314 314 314 314 315 315 315 314 312 312 310 309 308 306 304 304 303
307 308 309 309 308 308 308 308 309 309 308 307 308 309 309 309 310 310 311 311 311 312 314 315 314 314 314 314 314 314 315 315 315 315 314 313 312 311 309 308 306 304 303 302
310 310 309 308 308 309 307 308 309 309 308 306 305 309 307 307 308 309 311 312 311 312 314 315 313 313 313 314 314 314 314 314 314 313 312 311 310 309 308 306 305 304 303 302
308 308 309 308 308 308 310 307 308 308 308 310 307 311 308 308 308 307 309 310 314 315 312 314 314 314 314 314 315 314 313 313 313 313 312 312 312 311 311 310 308 306 304 303
309 309 309 309 309 307 309 308 307 307 307 307 308 307 311 307 309 308 307 312 311 314 314 314 314 314 315 314 315 314 313 312 311 312 312 312 311 310 310 309 308 306 304 303
307 307 307 308 306 306 307 308 306 304 306 309 308 308 313 308 309 310 309 313 313 314 313 313 314 314 313 313 314 315 313 313 312 310 310 310 310 310 310 309 308 306 304 303
308 306 306 307 308 306 308 307 308 308 307 311 306 307 312 310 310 308 307 311 312 313 313 312 313 313 312 312 312 312 312 312 312 311 310 309 309 309 309 309 309 308 306 304
311 318 307 305 307 308 306 308 309 312 309 314 303 309 315 311 309 311 309 310 310 311 312 313 312 312 312 311 311 311 312 312 311 311 310 310 309 308 307 308 308 307 307 306
308 310 306 304 306 307 306 308 308 310 311 310 312 310 310 311 308 307 308 309 310 311 312 312 312 313 311 312 311 312 311 311 311 311 309 310 311 309 308 308 307 306 306 305
310 312 308 307 306 305 306 306 309 307 312 314 311 311 313 312 312 309 306 306 311 311 308 307 309 311 309 307 307 307 308 308 309 309 309 309 309 309 309 307 307 307 306 305
307 310 312 311 307 310 310 307 306 307 310 315 316 314 310 312 311 305 305 309 305 302 304 305 305 306 306 306 306 306 306 305 305 305 304 305 306 307 307 307 307 307 306 306
307 315 316 314 309 307 306 311 309 312 312 309 311 313 309 308 308 304 299 298 300 300 300 301 302 301 303 304 305 304 304 305 306 306 306 306 305 305 306 305 306 307 307 306
313 314 315 313 309 308 312 312 312 312 311 315 316 314 310 305 297 297 295 293 293 293 296 298 299 299 298 297 298 299 299 299 300 302 304 305 305 304 304 305 305 305 305 307
309 311 314 314 311 311 313 312 311 312 315 313 313 312 311 297 295 293 294 291 291 292 293 294 295 296 296 295 295 296 297 297 297 298 300 301 303 306 306 303 302 303 304 303
308 311 311 310 311 310 309 308 307 308 309 310 309 310 302 292 292 292 293 292 291 291 293 294 293 296 294 293 293 292 293 296 297 296 298 298 303 305 304 305 303 301 302 304
304 306 304 303 302 302 304 304 304 304 304 305 306 303 292 292 291 291 292 291 291 291 293 294 292 294 291 291 292 293 292 292 295 297 296 297 297 299 301 302 302 301 300 300
301 303 302 302 300 300 300 300 301 302 301 299 300 293 291 291 291 290 290 292 289 290 291 294 290 288 288 288 288 288 289 290 291 294 293 295 297 298 297 298 297 298 299 299
299 299 296 300 294 298 297 296 296 297 295 294 293 290 290 291 290 289 289 288 289 289 291 289 288 288 288 288 287 287 287 288 288 289 292 293 293 296 298 297 296 294 294 296
297 298 293 294 289 295 297 293 293 295 295 292 292 293 292 290 290 289 288 288 288 288 289 287 285 285 285 285 285 285 286 287 287 287 288 290 291 291 295 297 297 294 291 292
293 296 297 289 293 289 294 291 292 292 291 288 290 290 290 290 287 287 288 288 288 288 287 286 285 284 284 285 285 284 285 285 285 284 285 287 288 290 291 296 297 295 291 289
280 278 288 285 285 285 288 289 289 287 287 287 289 291 290 288 288 288 288 288 287 287 287 286 285 284 284 284 284 284 285 285 285 285 284 285 287 287 290 293 296 296 295 291
288 282 278 275 278 284 289 289 288 287 290 289 289 289 291 289 288 288 287 287 286 286 285 285 284 284 284 284 283 283 284 284 284 284 284 284 285 286 287 290 293 295 294 295
286 287 282 284 284 289 290 289 290 290 289 289 289 289 290 288 287 286 285 285 284 283 283 283 282 283 283 283 283 282 283 281 282 283 284 284 284 284 285 286 290 292 293 294
288 289 289 289 289 289 289 290 290 290 289 289 289 289 288 286 285 284 283 283 282 282 281 280 280 281 282 283 282 280 279 278 278 279 282 283 283 283 283 285 286 290 291 293
289 287 287 288 289 289 290 290 290 289 289 288 288 287 285 283 282 281 280 280 280 279 280 278 277 276 277 276 275 275 275 273 273 274 277 279 281 281 281 283 285 286 290 290
290 289 289 289 289 289 289 289 289 288 287 286 285 285 283 281 279 278 278 277 276 276 276 274 273 272 272 271 271 269 268 268 269 271 273 273 274 277 279 280 282 284 286 287

GFSCGP_850_thetae_003.txt.gz
Theta_e
309 307 309 309 307 307 307 306 305 305 306 307 309 309 309 309 309 309 310 310 310 312 315 313 312 313 313 314 313 313 313 313 313 314 314 313 314 314 313 313 313 313 309 305
307 309 309 307 306 306 306 307 308 308 307 305 307 309 309 309 310 310 310 310 311 313 314 313 312 313 313 314 314 313 313 313 313 313 314 313 314 314 313 313 312 312 309 306
309 310 308 308 308 308 306 307 309 308 306 305 304 307 307 309 307 310 311 310 312 311 311 311 313 313 314 314 313 314 312 312 313 313 313 312 312 311 312 312 311 310 309 307
307 307 308 307 309 307 309 307 307 307 307 309 306 310 307 309 308 308 309 310 311 311 311 311 312 313 313 314 313 313 313 312 311 310 311 312 313 313 313 312 311 310 309 307
309 307 308 308 309 306 309 307 307 307 306 306 307 306 308 307 308 308 307 310 311 311 312 313 313 311 311 311 311 311 312 311 310 311 311 309 310 311 312 311 311 310 308 307
306 306 306 307 306 306 305 306 304 304 305 309 308 308 310 308 310 308 308 312 311 311 311 311 311 311 310 310 309 309 309 308 308 308 308 308 309 308 309 310 310 310 308 306
307 306 306 307 308 305 307 307 309 309 307 310 305 306 310 309 310 307 308 307 309 309 308 307 308 310 309 308 309 309 307 305 304 304 304 304 305 305 306 307 307 308 308 307
313 319 307 304 308 308 305 307 312 313 313 315 303 312 316 308 310 309 306 306 303 302 303 303 304 305 306 307 308 308 307 305 303 303 302 303 302 301 302 303 305 306 307 307
310 309 306 303 305 307 306 307 308 310 309 312 313 310 311 312 306 304 301 298 297 297 299 300 301 301 302 304 305 304 305 305 304 303 303 302 301 301 302 302 302 303 304 305
311 316 308 307 305 305 306 306 309 306 310 313 311 311 312 311 305 299 298 296 294 294 296 298 299 299 299 299 300 302 301 302 302 303 303 303 302 301 300 301 304 304 305 304
307 310 311 310 307 307 306 306 306 306 309 312 314 314 310 302 299 297 294 292 291 292 293 294 296 298 299 297 296 297 300 300 301 301 302 303 303 301 300 301 303 303 303 303
307 311 312 312 309 306 307 310 311 315 314 310 313 314 297 295 295 293 290 290 291 293 293 294 293 293 294 293 294 295 295 295 298 298 299 300 302 302 301 301 300 301 301 302
312 311 313 310 308 308 310 310 309 311 311 313 314 314 297 293 293 293 293 291 290 290 291 292 293 292 292 293 293 293 294 295 293 295 297 297 299 300 301 301 301 301 300 301
308 311 313 312 308 308 310 309 309 311 312 311 312 312 308 295 292 292 293 292 291 291 289 291 293 290 291 291 290 289 290 290 291 292 292 294 294 295 298 299 300 301 300 298
307 311 310 309 309 307 305 304 303 303 305 306 306 305 305 291 291 291 291 292 291 289 289 290 293 289 289 289 289 289 288 288 288 288 290 290 293 294 294 295 298 298 299 298
303 307 302 300 302 301 302 301 301 301 301 302 303 304 291 291 291 291 289 292 289 288 288 288 290 288 288 287 287 287 287 287 286 286 287 287 289 290 292 293 293 295 298 297
302 303 301 304 300 299 300 298 299 299 299 298 299 293 289 290 290 290 289 291 288 288 288 287 289 287 286 286 285 285 285 285 286 286 286 286 286 287 288 290 292 294 295 297
300 298 299 300 292 299 297 293 296 296 293 291 290 288 289 290 291 289 289 288 288 288 288 288 288 287 286 286 285 285 285 285 285 285 285 285 285 285 286 287 288 290 293 295
296 297 291 295 291 294 295 294 293 294 293 291 289 289 291 291 290 289 289 288 288 288 288 287 287 286 286 286 285 284 285 285 284 285 285 285 285 285 285 285 285 286 288 293
293 295 296 284 289 286 292 291 292 290 288 287 288 286 287 290 288 288 289 288 288 288 288 287 287 286 286 285 284 283 284 283 284 284 284 284 284 285 285 284 284 285 285 288
279 281 294 294 295 288 287 288 290 286 287 290 289 289 288 289 290 289 290 289 288 288 287 286 285 285 285 285 284 283 282 283 282 282 283 284 284 284 284 284 284 284 285 286
289 282 277 274 280 287 288 288 288 288 290 289 289 289 289 289 289 290 290 289 288 287 286 285 284 284 284 283 281 281 281 279 279 279 281 282 283 283 284 284 284 284 284 285
287 287 284 284 284 288 289 289 290 290 289 289 289 290 289 289 289 289 289 287 286 285 284 283 281 281 282 282 278 277 279 275 274 274 276 278 279 280 281 282 283 282 283 284
287 288 288 289 289 289 290 290 290 290 290 290 289 289 288 288 288 287 286 285 283 282 280 278 278 278 279 278 274 273 272 271 270 271 273 273 274 275 277 278 279 279 281 283
289 287 287 288 289 289 289 289 290 290 289 289 289 288 287 286 285 283 283 281 280 279 278 276 274 272 273 273 272 269 268 267 266 266 267 266 267 268 270 272 274 276 278 280
290 289 289 289 289 289 289 289 289 289 289 288 287 287 285 283 281 279 280 278 277 277 275 274 272 270 269 268 267 265 264 263 263 263 262 262 263 264 265 266 269 273 274 278

GFSCGP_850_thetae_006.txt.gz
Theta_e
311 314 316 317 315 316 313 313 314 314 314 313 313 313 313 313 313 313 313 313 313 313 311 311 311 312 312 312 312 311 310 311 311 311 311 312 313 314 315 315 315 316 315 312
312 315 316 312 312 312 313 313 314 315 313 310 313 313 313 313 313 313 313 312 312 311 310 309 309 311 311 311 311 310 310 310 310 310 310 310 311 312 314 315 316 316 316 314
316 316 313 311 313 313 314 313 315 315 313 312 311 316 314 315 311 312 311 311 310 309 308 307 309 309 310 310 310 310 309 308 309 309 308 308 309 310 311 312 313 315 316 316
313 310 311 311 312 313 314 314 312 312 312 317 311 318 317 316 314 313 312 311 309 308 306 304 304 307 307 308 308 308 308 308 307 306 305 306 307 308 309 310 311 312 314 316
314 311 310 312 313 311 314 309 309 309 312 311 314 313 318 312 313 313 311 308 308 305 303 303 302 304 305 306 309 308 307 305 305 304 303 304 304 304 304 305 306 307 308 312
312 306 309 312 309 309 307 310 309 310 312 316 315 314 316 315 313 312 308 305 303 302 302 301 302 303 305 306 306 306 305 304 303 303 302 302 302 302 303 303 303 303 304 306
314 310 309 307 311 308 309 312 319 318 319 319 312 312 314 314 309 308 306 303 301 301 301 301 302 303 302 302 303 304 304 304 304 302 301 301 301 301 300 301 301 301 302 303
318 320 311 308 313 318 312 314 318 319 321 320 308 315 316 311 306 303 302 300 299 299 299 300 301 300 299 300 301 301 302 302 302 302 302 302 301 300 300 301 301 301 300 301
321 320 307 306 307 310 311 311 312 315 315 315 315 315 315 313 306 303 300 299 297 297 297 297 298 299 300 299 298 298 299 299 300 300 300 302 302 302 302 301 300 299 300 300
315 319 316 311 306 307 309 310 313 312 315 318 314 314 315 313 308 302 299 297 296 295 295 295 296 296 295 296 298 298 298 297 297 298 300 299 300 301 301 302 302 300 299 300
313 316 316 311 313 313 311 310 309 309 312 316 317 315 310 309 303 300 297 295 295 295 295 295 294 295 295 293 293 294 297 297 299 298 296 298 298 298 300 300 301 302 301 299
312 312 315 315 313 309 311 312 313 316 315 314 314 314 304 302 299 296 293 293 293 293 293 293 294 292 294 292 291 291 291 293 292 292 295 296 296 297 297 297 298 300 301 302
313 315 316 315 312 310 312 312 312 313 314 316 317 315 301 299 298 296 297 294 293 292 290 291 293 291 290 290 289 289 289 288 288 289 289 290 292 293 296 296 295 295 297 299
309 312 314 314 313 311 312 311 311 311 313 313 313 312 310 305 301 298 295 293 293 291 289 289 291 291 289 289 288 288 288 288 287 287 287 288 288 288 289 290 293 294 294 295
308 312 311 311 311 311 311 311 310 310 309 309 309 309 308 308 300 295 292 291 293 289 289 289 289 291 289 288 287 287 287 286 286 286 286 286 286 286 287 287 288 289 291 292
305 307 306 306 306 306 307 307 307 305 304 304 303 304 303 294 292 292 291 290 292 289 289 289 288 289 289 288 286 286 286 285 285 285 286 285 285 285 285 286 286 286 286 287
303 304 305 305 305 303 303 302 302 302 303 302 302 300 294 292 292 292 291 290 291 289 289 289 288 288 289 288 286 286 286 285 285 285 285 285 285 285 285 285 285 285 285 285
301 302 303 303 301 302 301 298 298 299 300 296 294 292 293 292 291 292 290 290 290 289 289 289 288 288 288 287 286 285 285 285 285 284 284 285 285 285 285 285 285 285 285 285
298 299 301 300 300 299 298 297 297 297 298 295 295 292 291 290 291 291 291 290 290 289 289 288 288 287 287 286 285 285 285 284 284 284 284 283 283 284 284 285 285 285 285 285
294 297 298 292 296 295 295 293 292 292 295 293 291 291 290 290 290 291 290 289 289 288 289 288 288 287 287 286 285 284 283 282 282 281 281 281 281 282 283 283 284 284 284 284
291 292 295 296 296 295 293 291 292 293 294 292 290 290 290 290 290 290 290 289 289 289 289 288 287 286 285 284 281 281 281 281 279 278 278 278 277 277 278 278 281 281 282 283
291 292 291 288 292 292 290 290 292 292 291 290 290 290 290 290 289 289 289 289 289 289 288 286 285 284 284 282 280 281 281 278 276 275 275 275 274 273 273 273 275 276 277 279
291 292 292 290 292 291 290 291 290 290 290 290 290 290 290 289 289 289 289 288 288 286 285 283 281 281 283 281 277 276 278 275 275 275 274 273 271 269 268 268 269 269 271 273
291 291 291 291 291 291 291 290 290 290 290 290 289 289 289 288 288 288 287 286 285 284 283 281 280 281 281 278 276 275 275 273 271 270 269 266 265 265 264 264 265 266 267 269
291 290 290 291 291 290 290 290 290 290 290 289 289 288 288 287 286 285 284 283 282 280 279 278 277 277 277 276 275 273 271 268 266 265 264 263 262 262 262 263 263 264 265 267
291 291 291 291 291 290 290 290 290 289 289 288 288 287 286 285 284 283 282 280 279 278 277 277 276 275 275 274 273 271 267 264 263 262 262 262 262 262 262 262 262 264 265 267

GFSCGP_850_thetae_009.txt.gz
Theta_e
314 315 317 319 319 318 318 318 318 318 318 317 317 316 316 316 316 317 317 316 314 312 310 308 308 310 310 310 309 308 308 309 309 313 313 316 319 320 319 318 318 317 317 316
314 315 317 318 315 316 316 317 317 318 317 314 316 316 316 317 316 316 314 314 312 311 309 306 306 307 308 308 308 308 306 306 307 312 314 315 316 317 318 317 316 316 316 316
317 320 317 316 316 316 316 316 317 317 316 316 316 317 320 318 317 314 312 312 310 307 307 306 305 305 306 306 305 305 306 306 305 307 309 310 313 312 312 313 313 314 313 312
317 315 314 314 315 315 316 317 316 315 315 319 315 319 318 319 317 314 312 310 308 306 305 305 304 304 304 304 304 303 303 304 305 304 305 307 308 307 307 307 308 309 310 311
317 314 313 315 315 315 316 312 313 313 315 316 317 317 318 317 317 313 311 308 306 305 304 303 303 303 304 304 303 303 304 303 302 302 302 302 303 304 305 304 303 304 304 305
314 309 312 314 313 312 310 312 314 314 316 319 319 319 317 317 315 311 308 306 305 304 303 302 301 300 300 301 302 303 303 303 304 304 303 301 301 300 301 302 301 301 302 302
317 315 312 310 313 311 311 314 320 323 323 322 318 316 317 316 312 312 309 305 304 303 303 302 301 300 299 298 299 301 303 303 303 302 303 303 302 301 299 299 299 299 300 300
319 319 316 311 314 317 317 317 322 324 324 323 314 319 318 312 308 306 304 303 302 301 300 300 300 299 298 298 300 300 301 301 301 301 301 301 301 301 301 300 299 298 298 298
319 319 313 311 312 312 315 314 313 315 316 319 317 318 317 310 308 305 303 301 300 299 299 298 298 298 297 298 297 297 298 298 299 299 299 299 300 300 299 300 300 299 298 297
317 318 317 312 309 310 313 316 319 316 319 320 316 315 315 315 312 305 303 301 299 299 298 297 296 297 296 296 296 296 295 294 293 295 296 296 296 298 299 298 297 297 298 299
314 316 316 315 315 314 312 312 312 312 313 316 316 315 313 312 310 306 302 299 298 297 296 295 296 294 295 292 291 291 291 290 290 290 290 291 291 292 293 296 297 296 295 296
314 313 316 314 313 314 313 313 314 315 315 314 315 316 314 307 306 302 299 297 296 295 292 292 294 292 292 291 290 290 289 289 288 288 288 288 289 289 289 289 291 293 295 294
313 313 315 314 311 312 314 313 313 314 314 315 316 315 310 304 302 300 300 297 296 294 292 291 293 292 291 290 290 289 288 288 287 287 287 287 287 287 287 288 288 288 288 290
310 311 312 313 310 311 313 311 312 313 314 315 314 312 312 309 306 305 301 298 297 295 291 291 291 291 291 290 289 288 287 287 287 286 286 286 286 286 286 286 286 286 287 287
310 310 309 309 309 309 309 308 308 309 310 310 309 310 309 308 307 304 303 296 294 294 291 290 290 289 290 290 289 288 287 287 286 286 286 286 286 286 286 286 286 286 286 286
305 306 306 305 305 305 305 305 306 306 307 307 307 306 305 302 296 297 296 293 292 294 290 290 290 289 289 289 289 288 287 286 286 286 286 286 285 285 285 286 286 286 286 286
303 304 303 302 302 302 303 303 303 304 304 303 303 302 296 297 295 295 294 293 291 292 290 289 290 289 289 289 289 287 286 286 286 286 286 285 285 285 285 285 285 286 285 285
300 301 302 301 301 301 300 300 299 299 299 300 300 295 294 293 292 291 292 292 291 291 291 290 290 289 289 288 287 286 285 285 285 285 284 284 283 284 284 284 284 284 284 285
299 299 299 300 300 300 300 299 298 297 298 298 298 293 292 291 291 291 292 291 291 291 290 290 289 288 288 287 286 285 285 283 282 281 281 281 281 280 280 280 280 281 281 282
295 297 299 299 298 297 296 296 293 294 295 297 293 292 291 291 291 292 291 291 290 290 289 289 289 288 288 286 285 285 284 282 280 279 278 278 278 277 277 276 276 276 276 278
294 295 297 297 298 296 298 294 293 295 296 295 292 291 291 291 291 291 291 290 290 290 289 289 289 288 286 284 284 284 283 282 279 278 277 276 275 274 274 274 273 272 272 272
293 294 295 294 293 293 293 292 293 294 293 292 291 291 291 291 291 290 290 290 290 290 289 287 287 287 286 284 283 282 282 281 280 279 279 277 275 272 270 269 269 268 267 268
292 293 293 293 293 293 291 292 292 292 292 291 291 291 291 290 290 290 290 289 289 287 286 286 285 285 284 282 280 280 280 278 278 278 277 274 272 269 267 266 265 265 265 265
293 292 292 293 292 292 292 292 291 291 291 291 291 291 290 290 289 289 289 287 286 285 285 284 283 282 282 281 280 278 277 276 275 274 272 269 267 266 265 264 263 264 264 264
293 292 292 292 292 291 291 291 291 291 290 290 290 290 289 288 288 287 285 285 284 283 283 281 281 280 281 279 278 277 276 274 273 270 268 266 264 263 263 263 263 264 264 264
292 292 292 292 292 292 291 291 291 290 290 290 289 289 288 287 286 285 284 283 282 281 280 280 279 279 278 277 277 276 274 271 269 268 266 264 264 264 263 263 263 264 265 266

GFSCGP_850_thetae_012.txt.gz
Theta_e
314 313 314 314 315 315 316 316 316 316 315 316 315 314 314 316 316 316 315 312 310 308 307 306 306 307 307 308 309 309 308 309 310 312 315 317 321 322 323 322 322 321 321 320
314 314 315 316 316 316 315 315 315 315 316 315 314 314 314 315 315 316 313 310 308 308 307 305 306 306 306 306 306 307 307 307 307 312 314 316 317 318 319 319 319 319 318 317
315 318 317 316 316 316 316 315 315 315 315 314 313 314 314 315 316 312 310 308 307 306 305 304 304 304 305 305 305 305 305 305 305 307 308 310 313 315 316 316 315 315 315 315
316 316 315 315 315 315 316 315 315 315 314 315 315 316 316 315 311 310 308 307 306 304 304 303 303 303 303 303 304 304 305 305 304 304 305 305 306 305 306 306 306 308 311 311
318 313 313 314 315 315 315 312 313 313 313 314 315 314 315 314 311 310 307 306 305 303 303 302 301 301 301 303 304 304 304 304 304 304 304 302 302 303 304 304 304 302 303 303
313 310 312 314 313 313 310 311 312 311 313 316 316 316 316 314 313 308 306 305 304 303 302 301 301 301 301 302 303 303 303 303 303 303 302 303 303 301 301 300 300 300 300 301
314 313 312 311 312 311 310 312 316 317 316 317 314 315 315 312 310 308 305 304 303 303 302 301 300 300 300 301 301 301 301 301 301 301 301 301 301 301 301 301 300 299 299 299
319 318 314 310 313 315 315 316 319 321 316 316 314 315 316 309 307 306 304 303 302 301 300 300 299 298 297 297 297 297 298 298 298 298 297 298 299 300 300 299 299 299 300 299
317 317 310 312 312 312 313 314 313 313 309 313 314 315 313 307 305 303 303 301 300 299 299 298 298 298 297 296 296 295 295 294 294 295 295 295 296 296 296 297 297 296 296 297
316 318 316 310 310 310 311 314 316 314 318 316 315 314 314 310 306 303 301 301 300 299 298 297 296 296 295 293 292 292 292 291 290 290 290 290 291 290 290 290 291 292 293 294
313 316 315 313 314 314 311 312 315 314 313 312 313 311 310 309 307 303 302 300 299 297 295 295 296 293 293 292 291 290 290 290 289 289 289 288 288 289 289 288 288 288 288 289
313 314 313 313 311 311 311 313 313 314 314 312 313 314 311 306 304 304 300 298 297 296 293 293 294 292 291 291 290 289 289 288 288 288 287 287 286 287 287 287 287 287 288 287
313 311 311 308 309 310 313 312 311 311 309 312 313 310 308 302 301 301 301 298 297 297 295 292 292 292 291 290 289 288 288 287 287 287 286 286 286 286 286 286 286 287 287 287
310 311 309 308 307 307 308 308 308 310 311 310 309 309 309 308 308 307 305 302 299 297 294 291 291 291 291 291 289 288 288 287 287 287 287 287 286 286 286 286 286 286 286 286
309 305 307 307 308 307 307 306 306 306 306 307 306 305 304 303 301 298 300 301 295 296 293 290 290 290 289 289 290 290 288 287 287 287 287 287 286 286 286 286 286 286 286 286
305 300 303 299 303 303 303 302 302 302 302 302 302 303 302 298 297 296 296 295 293 292 293 290 290 289 289 289 289 289 289 287 287 286 286 286 285 285 285 285 285 284 284 284
300 299 293 299 300 299 295 299 299 300 300 301 301 298 293 294 295 293 293 293 293 291 291 291 290 289 289 289 289 288 287 287 286 285 285 284 284 283 283 283 283 284 284 284
299 294 294 292 291 293 296 298 298 297 297 296 295 291 293 292 291 291 291 291 292 291 291 291 290 290 289 289 288 287 286 285 284 284 283 282 282 282 282 281 281 281 280 280
298 298 298 293 291 295 297 296 296 295 294 294 294 293 291 291 291 291 292 291 291 291 290 290 290 290 289 289 288 287 285 284 283 282 281 281 280 279 280 280 280 280 278 278
294 296 297 290 292 288 294 294 294 293 291 292 294 289 291 291 288 288 291 291 291 290 290 290 289 289 289 288 288 287 286 284 282 281 280 279 278 278 278 278 278 277 276 275
286 287 292 294 294 291 292 292 293 289 291 292 291 291 291 289 290 291 291 291 290 290 290 290 290 289 289 287 286 285 284 283 282 281 280 280 278 277 276 275 274 273 271 270
290 287 286 286 286 289 293 291 291 291 293 293 291 291 292 291 291 290 290 290 290 290 289 289 289 288 287 286 284 283 282 282 282 281 280 279 278 276 275 272 271 269 268 267
289 290 287 289 289 292 292 292 292 292 292 292 292 292 291 291 291 290 290 290 289 289 289 288 287 286 286 284 282 282 282 281 280 280 279 278 276 274 271 268 268 267 265 265
290 292 290 290 290 291 292 292 292 292 291 291 291 290 290 290 290 290 290 289 289 289 288 287 286 285 284 282 282 281 280 279 279 278 277 275 273 271 269 267 266 264 264 264
291 291 290 290 291 292 292 292 291 291 291 291 291 290 290 290 290 289 288 288 287 286 285 285 284 282 282 281 281 279 278 278 277 276 275 273 271 269 267 266 265 264 264 264
292 291 291 291 291 291 291 291 291 291 291 290 290 290 290 289 289 288 287 286 285 284 284 283 281 281 281 280 279 278 277 276 275 275 273 272 269 266 266 265 265 265 265 266

GFSCGP_850_thetae_015.txt.gz
Theta_e
313 310 310 310 310 312 313 314 314 313 313 314 313 312 312 314 315 312 308 307 306 306 304 305 305 305 306 306 307 307 308 309 310 310 312 316 321 322 321 321 321 321 321 321
311 311 311 311 312 313 313 313 312 312 313 313 312 312 311 312 313 312 307 306 306 305 305 304 304 305 306 306 306 306 306 307 309 312 313 314 316 318 318 318 318 319 319 318
311 313 313 313 313 314 314 313 313 313 312 312 312 311 312 312 307 307 306 306 306 305 304 303 304 305 305 305 305 306 305 305 305 306 307 309 312 314 316 315 315 315 315 315
311 312 313 313 314 313 314 312 313 313 312 313 312 314 312 311 308 306 305 305 304 304 303 302 303 304 304 304 304 305 306 306 307 306 306 305 304 305 306 306 307 307 308 311
315 312 312 312 313 311 313 311 312 312 312 312 312 312 311 309 309 306 304 303 303 303 302 303 303 303 302 302 303 303 305 305 305 306 306 306 305 303 302 303 303 302 302 302
311 310 311 311 311 312 309 310 310 310 311 313 312 313 312 309 309 305 304 303 303 302 302 301 301 301 301 300 300 301 302 303 303 304 304 304 304 303 303 302 302 301 300 300
313 311 310 311 311 309 310 310 315 314 312 315 312 313 313 309 307 305 303 303 302 302 301 300 300 299 299 298 298 299 299 300 300 301 301 302 302 301 301 300 299 299 300 299
316 317 311 309 311 313 310 313 317 319 315 312 311 314 314 304 303 303 303 302 302 301 300 300 299 298 298 297 297 296 296 297 296 296 296 296 296 297 296 296 295 296 295 295
318 317 310 310 311 312 313 314 312 313 304 311 313 312 307 304 302 302 301 301 300 300 299 298 298 297 296 294 293 292 291 290 290 290 290 291 291 291 290 289 289 289 289 289
315 316 314 310 311 311 312 312 315 312 312 311 312 312 312 307 304 301 299 299 299 299 297 297 296 295 293 292 291 290 290 289 289 289 289 288 288 288 288 288 288 287 287 287
313 315 314 311 312 312 311 310 314 313 311 310 309 310 308 308 304 301 300 299 298 297 297 297 296 294 292 291 291 290 289 289 288 288 288 287 287 287 287 287 287 287 287 287
312 312 309 312 310 309 310 311 311 314 311 308 313 312 303 301 301 301 299 300 300 300 299 296 295 292 291 291 290 289 288 288 288 287 287 287 287 287 287 287 287 287 287 287
312 310 306 306 306 310 312 310 309 309 310 312 313 310 302 301 300 302 302 302 302 299 296 293 293 292 291 291 289 288 288 288 288 287 287 287 287 287 287 286 286 286 286 286
311 311 306 308 304 306 307 306 306 307 309 305 307 307 305 304 303 301 303 304 302 299 296 294 292 292 291 291 290 289 289 288 288 288 287 287 287 287 287 286 286 285 285 285
308 305 307 307 306 305 306 305 305 305 305 305 304 303 303 302 298 297 298 301 301 297 295 294 292 291 290 289 289 289 289 288 288 288 288 287 287 287 286 285 285 285 285 285
305 301 301 298 302 302 302 301 301 301 301 301 301 301 299 297 296 296 296 296 294 294 294 292 290 290 289 289 289 289 288 288 288 287 287 286 286 285 285 284 284 284 284 283
301 297 293 298 300 298 294 298 297 297 297 298 298 298 292 294 294 293 293 293 292 291 291 291 290 290 289 289 289 289 288 288 288 287 286 285 284 283 283 283 283 282 282 282
299 294 290 289 287 291 295 295 296 296 296 294 293 289 291 293 291 291 291 291 291 291 291 291 291 290 289 289 289 289 288 288 287 286 285 283 282 282 282 281 281 281 281 281
298 296 289 290 283 291 295 295 295 295 292 291 290 291 292 290 290 290 291 291 291 291 291 290 290 290 289 289 289 288 287 286 285 285 283 283 282 281 280 280 280 280 279 279
295 297 295 285 293 290 292 293 294 292 291 290 291 289 290 290 287 286 291 290 290 290 290 290 290 289 289 289 288 287 286 285 284 283 282 281 280 279 280 279 279 278 277 276
283 283 296 295 295 290 290 292 293 288 290 293 295 291 291 288 290 291 290 290 290 290 290 290 289 289 289 289 288 287 286 284 283 282 281 280 279 279 278 278 276 275 274 272
290 287 283 280 281 290 292 290 291 291 293 292 293 292 291 291 291 291 290 290 290 290 290 289 289 289 288 287 286 285 284 282 282 281 280 279 279 278 277 276 275 273 271 270
289 289 286 289 288 291 292 292 293 293 292 292 292 291 291 291 291 290 290 290 290 290 289 289 289 288 287 286 285 283 282 282 281 280 279 279 278 277 275 274 273 271 270 269
289 290 289 288 289 290 292 292 292 291 292 291 291 291 291 290 290 290 290 290 289 289 289 289 288 287 286 285 283 282 281 281 280 280 279 279 277 276 275 273 271 270 269 267
289 289 287 288 290 291 291 292 292 291 291 291 291 291 291 290 290 289 289 289 289 289 288 287 286 285 284 282 281 280 280 279 279 279 279 277 276 275 274 272 270 268 268 265
291 291 291 291 291 291 291 292 292 291 291 291 291 290 290 290 290 289 289 288 288 287 286 285 284 284 282 281 281 279 279 278 278 278 277 276 275 274 273 271 270 270 268 266

GFSCGP_850_thetae_018.txt.gz
Theta_e
312 309 309 309 310 310 312 312 312 311 311 312 311 310 310 314 309 307 306 305 304 303 303 304 305 306 306 307 307 308 308 309 310 311 313 319 323 323 320 320 320 320 321 321
310 309 309 309 309 310 310 311 311 311 311 310 311 311 310 310 311 309 306 304 303 302 303 304 305 306 306 306 306 307 307 307 308 309 310 312 315 317 319 317 317 317 318 318
310 312 311 311 311 312 311 311 312 312 312 310 311 310 311 307 305 305 305 304 303 302 302 302 304 305 305 306 306 306 306 306 306 306 306 308 310 312 315 315 314 314 314 313
310 311 312 311 313 312 314 311 312 312 312 313 310 312 311 310 305 304 303 303 302 301 301 301 302 303 303 303 304 305 305 305 305 305 305 305 306 305 305 305 305 305 306 308
314 313 312 312 312 311 313 310 311 311 310 310 310 311 309 307 307 304 302 302 301 301 300 300 301 301 301 302 302 302 303 303 303 304 304 304 305 303 302 302 302 302 302 302
310 310 310 310 310 310 309 310 309 308 309 311 310 310 311 309 309 304 302 301 301 300 300 299 299 299 298 298 299 299 300 300 300 301 301 301 301 301 302 302 301 301 301 300
312 310 310 310 310 309 308 310 314 314 311 314 311 311 311 307 305 305 301 301 301 301 300 299 299 298 298 298 297 298 298 299 299 299 299 299 298 298 298 297 297 298 297 297
315 318 310 308 310 311 308 311 315 319 313 312 310 313 312 302 302 302 302 302 301 301 300 300 299 298 298 296 296 296 296 296 294 293 293 293 292 292 291 290 289 290 290 290
314 316 310 309 310 312 312 312 312 313 302 308 312 311 305 302 300 300 300 301 301 300 300 299 299 299 298 297 296 295 292 292 291 291 290 290 289 289 288 288 288 287 287 288
314 316 312 310 311 309 311 311 312 310 312 309 311 311 311 305 301 299 299 299 299 299 299 300 300 298 297 295 293 291 290 289 289 288 288 288 288 288 288 288 288 288 288 288
312 314 313 310 311 312 309 311 313 312 309 309 307 308 307 306 302 300 299 300 300 301 302 301 300 298 295 293 291 291 290 289 289 289 288 288 288 288 287 287 287 287 287 287
311 311 308 312 309 308 310 310 310 311 310 308 310 311 305 305 303 301 300 300 301 302 302 299 297 295 294 293 292 290 289 289 289 289 288 287 287 287 287 287 287 287 286 286
311 309 304 309 306 309 310 309 308 308 307 306 310 309 302 300 301 302 302 302 302 302 299 296 295 294 293 292 291 289 289 288 288 288 288 288 287 287 287 287 287 286 286 286
312 310 309 313 306 307 307 306 305 306 307 305 307 306 303 301 301 301 301 302 302 302 299 296 294 293 292 292 291 290 289 288 288 288 288 288 288 288 287 287 287 286 286 286
309 308 308 307 306 306 306 306 304 305 304 304 304 301 302 301 299 299 299 298 299 301 298 296 295 293 292 291 290 289 289 289 289 288 288 288 288 287 287 286 286 285 285 284
304 304 301 298 303 303 302 302 302 302 302 302 303 303 302 300 297 296 296 296 297 299 297 295 295 294 292 291 290 289 289 289 289 288 288 288 288 287 287 285 284 284 284 284
302 300 296 298 299 297 295 296 298 298 298 297 297 296 292 295 295 295 295 294 293 292 292 294 294 292 291 290 290 289 289 289 288 288 287 287 287 286 284 284 284 283 282 282
299 295 295 294 288 291 296 294 295 295 295 293 293 288 292 295 295 295 293 292 291 291 291 291 291 290 290 289 289 289 289 288 288 287 286 286 286 284 283 283 282 281 281 282
298 298 294 292 287 291 294 294 294 295 293 291 291 289 293 294 290 290 291 291 291 291 291 291 290 290 290 290 289 289 289 288 288 287 286 285 283 283 282 281 281 281 281 281
295 297 296 282 287 290 292 293 293 292 291 289 291 288 290 289 286 287 291 291 290 290 290 290 290 290 290 289 289 288 288 287 287 286 285 283 282 281 281 281 281 280 279 279
287 289 297 293 285 287 289 291 292 289 291 292 293 293 291 287 291 293 291 291 291 290 290 290 290 290 289 289 288 287 287 286 285 285 283 282 281 281 280 280 280 279 279 277
290 290 289 288 291 291 291 290 291 291 292 293 293 293 292 292 292 291 291 291 290 290 290 289 290 289 289 288 288 287 286 285 285 283 282 281 280 280 280 279 279 278 277 276
289 290 286 289 289 291 292 293 294 294 293 292 292 292 292 291 291 291 291 291 289 289 289 289 289 289 288 287 287 286 285 284 283 282 281 280 279 279 279 278 278 278 276 274
288 289 288 288 289 290 292 293 293 292 292 292 292 291 291 291 291 290 290 289 289 289 289 289 289 288 287 286 285 285 284 283 282 282 280 279 279 279 278 277 277 276 275 273
289 288 286 287 290 290 291 291 292 292 292 291 291 291 291 291 290 290 290 290 289 289 289 288 288 287 286 285 284 284 282 281 281 281 280 279 278 278 277 277 276 275 274 272
290 290 290 289 292 291 291 292 292 292 291 291 291 291 291 291 291 290 290 289 289 288 288 288 287 285 284 284 283 282 280 280 280 280 279 278 277 277 276 276 276 275 273 273

GFSCGP_850_thetae_021.txt.gz
Theta_e
311 308 309 308 308 309 310 310 312 310 310 312 310 309 309 310 309 306 305 303 302 302 302 303 303 304 305 306 307 308 309 310 312 316 318 322 324 321 319 318 318 319 319 319
309 308 308 308 308 309 310 311 309 309 310 309 310 310 309 308 307 306 304 302 302 301 301 302 303 304 305 305 306 306 307 307 309 311 313 315 319 320 318 317 316 316 316 316
309 311 309 309 309 309 310 309 311 312 311 310 309 309 309 304 304 304 304 302 301 301 301 302 303 304 304 305 306 307 306 306 306 306 308 311 313 314 315 315 313 313 313 312
309 310 312 310 311 309 312 309 310 311 311 313 309 312 309 307 304 302 302 301 300 300 300 301 302 303 303 303 304 305 306 306 306 305 305 305 305 306 304 303 303 302 303 304
312 312 310 311 311 311 312 310 310 310 309 309 309 309 308 306 306 302 300 300 300 300 300 301 301 301 300 300 301 301 302 302 302 302 303 303 303 303 301 301 301 301 300 300
310 310 309 310 309 309 308 309 308 307 307 310 309 310 310 308 308 302 300 300 300 300 300 300 299 299 299 299 300 300 301 302 301 301 301 301 300 300 300 299 299 298 297 297
310 310 310 309 310 308 308 310 313 313 310 314 308 309 310 308 303 303 301 300 300 300 300 299 299 299 299 298 299 299 300 301 300 300 300 300 299 298 297 296 293 292 292 292
314 317 309 307 309 310 307 310 313 315 313 312 309 313 312 301 301 303 302 301 300 300 300 300 299 298 298 298 298 298 298 298 297 297 296 295 295 294 293 292 290 289 290 289
313 315 309 307 309 310 309 310 310 312 298 307 312 310 304 301 299 299 300 300 300 300 300 300 299 299 299 298 297 297 296 295 294 293 292 292 291 290 289 289 288 288 288 288
314 316 311 309 309 308 310 309 312 309 312 310 312 310 311 303 301 299 298 300 300 300 301 301 301 299 298 297 296 294 293 292 290 289 289 289 288 288 288 288 287 287 287 287
310 313 312 310 310 310 310 311 311 310 309 310 307 309 305 305 301 300 299 301 301 301 302 301 300 299 297 295 294 293 291 290 289 288 288 288 288 287 287 287 287 287 287 287
310 310 308 311 308 307 309 310 311 314 311 307 309 312 303 304 301 301 301 302 302 301 302 301 300 299 297 295 294 292 290 289 288 288 288 288 288 288 288 288 288 287 287 286
311 309 306 313 309 308 309 308 308 307 306 307 310 310 301 301 302 302 302 303 302 302 301 301 298 298 296 295 294 292 290 288 288 288 288 288 288 288 288 288 288 287 287 286
312 310 312 315 309 307 309 306 305 307 307 311 311 308 303 302 301 301 302 302 303 303 301 300 298 297 296 294 293 292 290 289 288 288 288 288 288 288 288 288 287 287 286 285
310 310 307 308 305 306 306 306 304 305 304 306 305 303 302 301 300 302 302 301 300 300 300 300 299 296 295 293 292 292 290 289 288 288 289 289 288 288 288 288 287 286 285 285
303 305 304 304 305 306 308 307 305 306 306 304 305 304 302 301 301 298 298 297 297 297 297 298 297 295 294 293 293 291 290 289 289 289 289 289 288 288 288 287 287 285 284 284
305 301 303 310 299 301 303 299 301 302 301 301 302 301 291 295 295 296 296 295 295 295 295 296 296 294 293 293 293 291 290 289 289 289 288 288 288 288 287 287 285 284 283 283
302 301 300 300 292 303 301 294 295 297 296 294 293 289 292 295 296 295 296 295 294 293 293 292 292 292 292 292 291 290 290 289 289 289 288 288 288 288 287 286 284 283 282 282
299 300 297 301 293 296 298 294 293 294 293 292 293 291 294 294 292 292 293 293 292 292 291 291 291 290 290 290 290 289 289 289 289 288 288 288 287 287 286 283 282 282 281 281
294 297 302 288 294 296 295 292 293 292 292 288 292 289 290 290 288 288 294 293 291 291 291 291 290 290 290 290 290 289 289 288 288 288 287 287 286 284 283 282 282 281 281 281
290 293 299 296 297 290 288 291 292 290 293 292 294 293 291 287 291 293 293 292 291 291 291 290 290 289 289 290 289 289 289 288 288 287 287 286 285 283 282 281 281 280 280 280
291 290 291 289 286 291 291 290 292 292 292 293 292 292 292 292 293 292 292 291 291 291 291 290 290 289 289 289 289 289 288 287 287 286 285 285 283 282 281 281 280 280 280 279
292 292 290 292 292 291 292 294 294 294 294 293 292 292 292 292 292 291 291 291 291 290 291 289 289 289 289 289 288 288 287 286 286 285 284 282 281 281 280 280 279 279 279 278
288 288 289 290 289 289 292 294 295 294 294 294 292 292 292 292 292 291 291 291 291 290 290 289 289 289 289 288 288 287 286 285 284 283 282 281 280 279 279 278 278 278 278 277
289 288 287 287 289 290 291 292 293 293 293 292 292 291 291 291 291 291 291 291 290 290 289 289 289 289 288 287 286 285 284 284 283 282 281 280 279 279 278 278 277 277 277 276
289 290 289 289 291 292 292 293 292 292 292 292 291 291 291 291 291 291 291 290 290 290 289 289 288 288 287 286 285 284 283 283 281 280 279 279 278 277 277 277 277 276 276 275

GFSCGP_850_thetae_024.txt.gz
Theta_e
310 308 309 308 307 309 308 309 311 310 310 312 310 309 309 311 307 304 304 303 302 303 302 303 304 305 306 307 308 309 310 313 317 318 320 323 324 319 318 317 317 317 316 317
307 308 308 308 308 308 309 310 309 308 308 310 309 309 308 308 306 304 303 302 301 301 302 302 303 304 305 305 306 307 308 310 311 312 314 318 320 318 316 316 315 315 314 315
308 311 307 308 307 308 308 308 309 310 310 309 309 309 308 304 303 302 302 301 301 301 302 302 303 304 304 305 305 306 306 307 307 308 309 311 313 314 314 312 310 308 308 310
308 308 311 308 309 307 309 307 309 310 311 313 309 312 308 306 303 301 300 300 300 300 300 302 302 303 304 304 304 304 304 305 304 305 305 305 305 305 304 304 303 303 303 303
313 310 309 310 310 308 311 308 309 309 309 309 309 309 308 305 306 302 300 299 299 299 299 300 301 302 301 301 301 302 302 303 303 303 303 303 303 302 302 301 301 300 300 299
310 309 308 310 308 309 306 308 307 306 306 309 309 310 309 307 307 302 300 300 299 299 299 299 299 299 299 299 299 300 302 302 302 302 301 301 301 299 298 297 296 295 295 294
310 310 309 308 309 307 307 309 313 313 310 314 308 308 309 307 304 303 301 300 299 299 299 299 298 298 298 298 298 299 300 301 300 300 299 299 298 297 296 296 294 293 292 292
312 316 309 307 310 309 307 309 313 315 312 312 307 311 311 301 300 301 302 302 300 299 299 299 298 298 298 298 298 299 299 299 299 298 297 296 295 295 295 294 293 292 291 290
312 315 308 306 307 309 308 309 309 310 296 305 311 310 304 301 300 299 299 300 300 300 300 300 299 299 298 298 297 297 298 297 296 295 294 293 293 292 292 291 290 290 289 289
312 316 310 307 308 307 308 307 311 308 311 312 312 310 312 305 302 298 298 299 300 300 300 300 300 299 299 298 297 297 295 293 293 292 291 291 290 290 289 289 288 288 287 287
310 313 312 309 308 309 310 310 310 309 309 313 309 312 303 305 301 299 299 301 301 302 302 302 301 301 300 298 296 295 293 291 291 290 290 289 288 288 288 288 288 288 287 287
310 309 308 311 307 306 308 309 310 314 311 306 309 314 301 302 300 301 301 302 303 303 303 302 301 300 299 298 295 294 292 291 290 289 288 288 288 288 288 288 288 287 287 287
310 310 306 309 309 307 308 307 307 307 306 307 314 312 301 301 300 302 303 303 303 303 302 301 300 300 299 297 295 294 292 290 289 288 288 288 288 288 288 288 288 288 287 287
311 309 309 314 309 308 310 307 305 309 313 314 312 312 305 303 302 301 302 303 304 303 302 302 300 300 299 297 295 294 292 290 288 288 288 288 288 288 288 288 288 288 287 287
311 310 309 309 307 306 307 307 305 307 309 313 311 309 304 304 302 303 304 303 302 302 301 301 300 300 298 297 295 293 292 291 289 289 288 288 288 289 288 288 288 288 287 287
305 311 306 305 306 305 306 306 304 306 306 305 305 305 303 304 303 301 302 302 301 300 298 299 298 297 298 296 295 293 293 291 290 289 288 288 288 288 288 288 288 288 287 287
305 304 302 311 300 302 308 305 306 305 304 306 307 306 294 296 297 299 300 298 297 298 297 296 295 296 296 296 294 293 293 291 290 289 289 288 288 288 288 288 288 287 287 285
305 303 304 302 299 306 302 293 298 305 304 299 294 291 293 294 296 296 297 297 296 296 295 294 293 293 294 294 293 292 291 290 290 289 289 288 288 288 288 288 288 287 286 284
301 302 300 305 302 301 301 293 293 295 296 292 295 294 294 294 293 293 294 294 294 294 293 292 292 291 291 290 290 290 290 290 290 289 288 288 288 288 288 288 287 286 284 283
297 300 307 294 301 304 297 292 293 293 294 289 293 292 290 291 288 288 292 292 293 293 293 292 291 291 290 290 290 289 289 289 289 289 288 287 287 287 288 287 286 284 283 282
297 297 304 300 303 299 291 290 293 294 297 290 292 293 291 288 291 292 292 293 293 292 292 291 291 290 290 290 288 289 289 289 289 288 287 287 287 287 287 286 285 283 282 281
296 297 293 294 298 301 291 290 294 293 292 294 293 292 292 292 292 292 292 292 292 292 291 291 290 290 290 289 288 288 289 289 288 288 287 287 287 286 286 285 283 281 280 280
294 293 293 295 295 291 291 293 294 294 294 293 293 293 292 292 292 292 292 292 291 291 291 291 290 290 290 289 289 288 288 288 288 287 286 286 286 285 284 283 281 280 279 279
289 288 290 290 290 290 292 294 294 294 294 294 294 293 292 292 292 291 291 291 291 291 291 291 290 290 290 289 289 288 288 288 287 286 285 285 285 284 282 281 280 279 278 278
290 288 287 288 289 290 292 293 294 294 294 294 293 293 292 292 291 291 291 291 291 290 290 290 290 290 289 289 289 288 288 287 286 285 284 284 283 282 281 279 279 278 277 277
288 289 289 289 291 292 293 293 293 293 292 292 292 292 291 291 291 291 291 291 291 291 290 290 290 290 289 289 288 288 287 286 285 284 284 282 282 280 278 278 278 276 276 275

GFSCGP_850_thetae_027.txt.gz
Theta_e
310 309 310 309 308 310 308 309 310 309 309 311 310 308 310 308 307 305 304 304 304 304 303 303 304 305 307 309 311 315 317 319 320 322 321 321 321 319 319 317 317 317 316 316
307 309 308 307 307 308 307 309 309 308 308 309 309 309 309 308 305 305 304 303 303 302 302 302 303 304 305 307 310 311 314 318 319 320 320 320 318 316 317 316 314 313 313 312
308 310 306 307 307 308 307 308 308 310 309 308 308 310 309 305 303 303 303 302 301 301 301 302 303 304 304 305 306 307 309 311 311 311 312 314 315 314 310 306 305 304 304 304
307 308 309 307 308 306 308 306 307 309 310 313 309 315 309 306 304 301 300 300 300 300 301 301 302 303 304 304 305 305 305 304 304 305 306 305 305 304 303 303 302 302 301 301
314 308 309 310 309 307 311 306 307 309 309 309 309 310 309 306 307 302 299 299 299 300 301 302 302 302 302 301 302 302 302 302 302 302 302 303 304 302 301 300 299 299 298 297
310 309 307 309 307 307 305 307 306 305 306 309 309 311 310 308 307 303 300 300 299 298 299 300 300 299 300 300 300 301 302 302 301 301 301 301 301 300 298 297 296 295 294 294
310 309 308 307 307 306 307 308 312 313 311 314 307 307 310 307 304 303 301 300 299 299 300 300 300 299 299 299 299 301 301 301 300 299 299 298 297 296 296 295 295 294 293 293
313 314 309 307 308 308 306 309 313 315 313 313 306 311 311 303 301 301 302 303 300 299 299 300 299 298 299 298 299 299 299 299 298 297 297 297 296 295 295 295 294 293 292 291
311 312 307 306 306 308 308 309 308 309 295 308 311 310 308 301 301 299 300 301 300 300 300 300 298 298 298 297 298 297 297 297 296 296 295 295 294 294 293 293 291 290 290 289
311 316 309 307 307 307 308 307 311 308 310 310 311 312 314 306 304 299 297 299 300 300 300 299 299 299 298 297 298 297 296 294 294 294 293 293 292 291 291 290 290 289 289 288
309 314 311 307 308 309 309 309 309 309 309 312 310 312 305 306 303 301 299 301 302 301 301 301 301 300 299 297 297 295 295 294 293 292 291 291 290 290 289 289 288 288 288 288
310 311 309 310 306 305 307 308 309 313 311 306 309 313 303 303 302 303 302 302 303 303 303 302 302 301 299 299 298 296 295 294 293 291 290 290 289 289 288 288 288 288 288 287
309 311 310 311 309 306 308 306 307 307 306 307 311 311 301 301 300 302 303 303 303 303 303 302 302 301 300 300 298 297 295 294 292 290 289 289 288 288 288 288 288 288 288 288
311 309 312 319 313 309 309 307 306 309 308 310 312 312 303 302 302 301 303 304 304 304 304 303 302 301 301 300 299 297 295 293 291 290 289 288 288 288 288 288 288 288 288 288
312 313 307 309 308 308 309 308 306 308 310 313 312 311 306 304 302 303 304 303 303 304 303 302 301 301 300 299 298 297 295 293 291 290 288 289 288 288 288 288 288 288 288 288
307 314 307 307 306 305 307 305 306 308 308 308 309 308 304 306 304 302 303 303 303 303 302 301 300 299 299 299 298 297 295 293 291 290 290 289 288 288 288 288 288 288 288 288
310 307 311 316 301 306 311 307 305 306 304 308 307 308 298 300 300 302 304 303 302 302 301 299 298 298 296 295 295 297 295 293 291 291 290 289 288 288 288 288 288 287 288 288
307 308 310 301 302 311 303 294 302 306 304 300 298 294 298 300 302 302 300 299 299 298 298 297 295 294 294 294 295 295 293 292 291 291 290 289 288 288 288 287 287 287 287 287
302 305 303 305 306 304 300 293 299 303 302 297 302 298 295 294 294 295 296 297 296 294 294 294 294 293 292 292 293 293 292 291 291 290 290 289 288 288 287 287 287 287 287 287
300 304 309 300 306 308 301 293 294 295 300 291 300 298 290 292 290 291 295 294 292 292 293 293 293 292 291 291 290 290 290 289 289 289 289 288 287 287 287 286 286 286 287 287
299 299 307 303 304 304 293 290 294 299 301 293 295 293 291 290 294 293 292 292 292 292 293 292 292 291 291 290 290 290 289 288 288 288 289 288 288 287 286 286 286 286 287 286
300 302 301 300 302 305 292 291 296 297 292 294 294 295 295 295 293 292 292 292 292 292 292 291 291 291 290 290 290 290 289 289 289 288 288 288 287 286 286 286 285 286 286 285
299 301 300 300 300 291 292 294 295 295 295 294 295 295 295 293 292 292 292 291 291 292 291 291 291 291 290 290 290 290 289 288 289 288 288 287 286 286 285 285 286 285 285 284
290 289 293 294 291 291 292 294 294 294 295 295 295 294 293 292 292 292 291 291 291 291 291 291 290 290 290 290 290 290 289 288 288 288 287 287 286 285 285 285 284 284 283 281
292 290 289 290 289 290 292 293 295 294 294 294 293 293 293 292 292 291 291 291 291 291 291 291 290 290 290 290 290 289 289 288 288 287 287 286 285 284 284 283 283 282 280 279
289 289 291 291 291 292 293 294 294 294 294 294 293 293 292 292 292 291 291 291 291 290 291 290 290 290 290 290 289 289 289 288 288 287 286 285 284 284 283 282 282 280 278 278

GFSCGP_850_thetae_030.txt.gz
Theta_e
311 316 317 318 317 316 316 317 318 315 312 314 317 316 317 312 310 310 309 306 304 303 304 304 306 307 308 310 314 317 321 321 321 322 322 322 322 320 320 319 318 317 317 316
313 316 317 313 313 313 313 316 317 315 311 313 315 314 315 313 312 311 310 306 303 303 304 303 304 305 308 310 315 318 319 320 319 320 320 320 319 317 316 314 313 311 310 310
317 315 311 312 312 313 314 315 316 315 312 312 313 317 317 313 307 305 305 305 302 302 303 303 304 305 307 309 310 312 315 317 319 319 319 317 315 312 308 306 304 304 303 303
313 311 311 311 313 313 316 313 313 313 314 319 313 322 319 315 311 306 304 303 301 301 302 303 303 304 305 307 309 310 311 311 311 311 310 308 305 304 303 303 302 302 301 300
317 311 311 313 314 311 316 310 312 312 314 314 316 318 319 311 313 309 305 303 301 300 300 302 302 303 304 304 305 304 304 304 304 304 303 303 304 303 301 300 299 298 297 296
315 309 311 314 309 310 309 311 311 311 314 318 318 319 319 317 315 310 306 302 300 299 301 301 302 302 302 302 302 302 302 303 302 302 301 301 301 301 299 298 297 296 294 294
313 313 309 308 311 308 310 315 320 320 318 321 311 315 318 315 310 309 307 303 300 299 300 301 301 300 300 301 301 301 301 301 300 300 300 300 299 298 296 295 295 294 294 293
320 321 312 309 315 314 312 317 322 325 322 320 309 316 317 307 304 303 304 303 300 298 299 301 300 299 299 299 299 300 300 300 299 299 298 298 297 295 295 295 294 294 293 293
318 318 309 307 308 313 311 313 314 314 306 318 318 314 313 305 305 303 303 302 300 299 300 300 299 298 298 298 299 299 300 298 298 297 296 296 295 294 294 293 293 292 292 291
315 318 310 307 309 309 311 312 315 314 322 323 318 317 319 311 309 305 303 302 301 299 300 300 300 298 298 297 298 298 298 296 297 296 295 294 293 293 292 292 291 291 290 289
313 316 313 309 311 314 311 312 312 314 316 322 322 319 314 315 311 307 305 303 302 300 301 301 300 298 297 297 298 298 297 297 296 295 294 293 292 292 291 290 290 289 289 288
313 315 317 313 308 307 312 314 313 319 317 314 315 319 306 308 309 308 307 303 302 302 302 301 301 299 298 298 298 298 297 296 295 293 292 291 291 290 290 289 289 289 288 288
313 316 321 317 311 308 310 310 312 315 313 320 321 318 305 304 305 305 306 304 304 302 302 302 301 300 299 299 298 297 296 295 294 293 291 291 290 289 289 289 289 288 288 288
313 316 318 322 320 316 313 311 311 313 319 319 317 316 308 308 307 305 304 304 303 304 303 301 301 301 300 300 299 298 297 296 294 293 291 290 289 289 289 288 288 288 288 288
313 317 316 316 314 314 314 314 311 313 315 318 317 315 313 310 308 308 307 304 302 303 303 303 302 302 301 300 300 299 299 297 294 292 291 290 289 288 288 288 288 288 288 288
311 317 316 315 312 311 313 313 312 312 314 315 314 315 312 310 308 305 304 303 303 303 303 303 303 302 301 301 301 300 299 297 295 293 292 290 289 288 288 288 288 288 288 288
312 315 314 319 312 309 313 312 312 311 312 313 314 314 307 306 305 305 304 304 304 303 304 303 303 302 301 300 299 298 297 297 296 294 292 290 289 288 288 287 287 287 287 287
313 314 314 318 309 316 311 301 311 312 312 310 308 306 306 307 305 304 304 304 304 304 303 302 301 299 298 296 295 294 294 295 295 294 291 290 289 288 288 287 287 287 287 287
305 311 309 309 312 314 299 299 307 309 311 306 309 305 301 298 299 299 303 303 301 300 298 298 297 295 294 293 293 293 294 295 294 292 291 291 290 289 288 288 287 287 286 286
302 307 311 306 314 316 307 297 298 303 308 299 305 303 296 296 304 306 299 297 297 297 295 293 293 293 293 293 292 292 292 292 291 291 290 289 289 289 288 287 287 286 286 285
304 303 311 308 311 309 304 295 296 307 310 297 302 301 294 299 301 298 296 296 294 293 292 292 293 293 292 292 291 291 290 290 290 289 288 288 288 288 288 287 286 285 285 285
305 307 308 307 309 312 294 293 302 301 296 298 298 300 299 298 296 295 294 293 292 292 292 292 292 291 291 291 290 290 290 290 289 289 289 289 288 288 288 287 286 285 285 285
305 305 306 307 307 294 294 296 296 297 298 296 296 297 296 295 294 293 293 292 292 292 292 292 292 291 291 291 290 290 290 289 289 289 289 288 288 288 287 286 286 285 285 285
294 292 299 300 295 293 293 294 295 296 298 296 296 296 295 295 294 292 292 292 292 292 291 291 291 291 291 290 290 290 290 290 290 289 289 288 288 287 287 286 286 285 285 284
296 294 293 292 290 291 293 294 295 295 294 295 295 294 294 294 293 292 292 292 292 291 291 291 291 291 291 290 290 290 290 290 290 289 288 288 287 287 286 285 285 284 284 283
292 292 295 297 293 294 295 296 296 294 294 294 294 294 294 293 292 292 292 292 291 291 291 290 291 290 290 290 290 290 290 290 289 289 288 288 287 286 285 284 284 283 282 282

GFSCGP_850_thetae_033.txt.gz
Theta_e
316 318 319 320 319 320 320 320 321 321 316 316 319 319 319 316 313 314 315 313 310 307 307 307 307 308 309 312 316 318 321 322 323 323 323 324 323 322 321 319 319 318 316 316
316 318 319 319 318 319 318 319 320 321 316 315 317 318 318 318 316 315 315 314 310 306 304 305 305 307 309 314 318 319 320 320 320 321 322 321 320 319 318 315 312 311 310 310
319 319 315 316 316 317 318 319 320 320 316 314 316 318 318 318 317 316 313 314 311 306 304 303 304 306 309 313 316 318 318 319 319 320 319 319 317 315 311 309 306 305 304 303
317 317 315 315 317 317 319 319 317 317 317 321 317 322 322 321 317 313 311 310 308 306 304 302 303 306 309 311 316 317 317 318 319 319 318 315 312 306 305 303 303 302 301 300
318 314 314 316 317 316 318 315 316 317 318 319 320 319 322 322 321 316 311 309 307 305 303 301 301 304 309 311 313 314 316 316 316 315 313 307 304 303 303 302 301 300 298 297
316 311 314 316 312 314 313 315 315 315 318 322 321 322 323 321 317 318 312 308 307 304 302 301 302 304 306 308 310 310 310 310 308 306 304 303 303 303 302 300 298 297 296 295
317 316 313 312 314 311 314 318 324 323 321 324 316 321 322 319 313 314 311 308 305 303 301 300 303 303 304 304 305 305 305 304 303 302 302 301 301 300 299 298 297 296 295 294
323 323 318 313 318 318 315 319 325 328 327 324 311 318 319 316 311 308 311 307 304 302 301 300 302 302 302 302 302 302 302 302 301 301 300 300 299 298 297 296 295 294 294 294
322 323 315 313 314 318 315 317 318 319 312 320 320 317 317 309 308 307 308 306 304 302 300 300 300 301 301 300 301 301 301 301 301 300 299 299 298 296 295 295 294 294 293 292
321 322 314 311 310 312 314 315 316 317 326 326 322 321 321 313 311 308 307 306 304 302 301 300 300 301 300 300 300 300 300 300 300 299 298 297 296 295 293 293 293 292 291 291
318 319 315 310 313 316 313 315 315 317 319 325 325 323 319 319 315 311 307 306 305 303 301 300 301 301 300 299 299 300 299 299 299 298 297 295 294 293 293 292 292 291 290 290
317 319 323 317 313 313 315 316 316 320 319 317 320 322 311 317 316 311 309 307 306 303 302 301 300 300 299 298 298 298 298 298 297 296 295 294 293 292 292 291 290 290 290 289
315 318 324 322 314 310 312 313 314 315 316 322 323 322 310 309 312 311 310 307 306 304 303 301 300 300 299 298 298 297 297 297 295 295 294 294 293 291 291 290 290 289 289 289
314 318 322 325 323 318 315 313 313 315 318 319 321 320 311 310 310 309 309 307 306 304 304 302 301 300 300 298 297 297 296 296 295 295 294 293 292 291 290 289 289 289 289 288
314 319 320 320 320 320 318 316 314 314 316 319 320 319 319 312 311 310 308 308 306 304 303 303 301 300 299 298 297 297 297 297 296 295 294 294 291 290 289 289 289 288 288 288
311 316 317 318 318 319 319 317 316 314 314 316 317 319 318 312 311 311 309 308 306 305 305 304 302 300 300 298 299 300 299 298 298 297 296 294 291 290 289 288 288 288 288 288
312 313 316 319 317 317 315 316 316 316 314 315 317 316 312 313 310 309 309 307 307 306 305 303 302 302 301 301 301 301 300 299 299 298 297 294 292 291 289 288 288 288 288 288
313 312 314 319 316 320 318 317 315 316 316 314 314 311 311 310 309 309 309 308 307 305 304 303 303 302 302 302 302 301 300 299 298 297 296 295 292 291 289 288 288 288 288 287
312 314 316 318 318 319 317 304 311 315 316 314 313 309 304 305 306 305 306 307 306 305 304 304 303 303 302 301 299 298 296 294 294 294 294 295 293 291 290 289 288 288 287 287
303 312 314 311 319 322 314 306 304 310 316 309 310 307 301 301 308 311 305 304 304 304 303 303 301 300 299 297 295 293 293 292 292 293 294 294 292 291 290 289 289 288 287 286
307 311 314 316 317 314 306 298 304 314 316 302 307 303 300 304 306 304 303 302 301 299 298 297 297 296 294 293 293 292 292 292 292 292 291 290 290 289 288 288 288 288 287 286
310 311 312 313 316 317 297 297 308 304 297 301 305 306 304 301 302 300 298 298 297 296 296 294 293 293 293 292 291 291 291 291 291 290 289 289 288 289 289 288 288 287 287 286
308 309 312 311 311 295 296 296 302 299 300 300 301 303 303 301 300 297 296 296 295 293 293 292 292 292 292 291 291 291 291 291 290 290 289 289 289 289 289 288 288 287 286 286
298 296 304 305 297 297 295 298 300 303 301 298 298 299 299 299 296 295 294 293 293 292 292 292 291 291 292 291 291 291 291 290 290 290 289 289 289 289 288 288 288 287 286 286
298 297 299 295 293 292 295 299 300 299 299 297 296 296 296 295 295 295 294 293 293 293 292 292 291 291 291 291 291 290 290 290 290 290 290 289 289 289 288 288 287 287 286 285
294 295 297 300 295 299 297 299 300 300 298 296 294 295 295 295 295 294 294 293 293 292 292 291 291 291 291 291 291 290 290 290 289 289 289 289 289 288 287 287 286 286 285 284

GFSCGP_850_thetae_036.txt.gz
Theta_e
316 316 317 317 317 317 318 318 318 319 314 316 316 316 316 314 313 314 315 313 312 309 308 308 308 308 309 312 313 317 320 321 321 321 322 322 322 322 323 321 319 318 318 316
315 316 317 318 319 318 318 318 317 318 314 315 315 315 315 316 313 314 314 315 312 309 308 306 306 307 309 311 314 318 319 319 320 321 321 321 320 321 320 319 317 312 313 312
318 318 317 317 317 318 317 317 317 318 316 314 313 313 315 315 317 314 315 315 314 311 309 306 305 306 308 312 315 317 318 318 319 319 319 321 320 318 317 313 310 308 305 304
317 317 316 317 317 316 317 317 317 317 316 317 314 317 318 318 316 315 315 314 313 309 307 306 304 305 308 312 314 316 316 316 316 319 319 319 317 314 310 307 304 303 302 300
317 315 314 316 316 316 317 315 316 317 317 317 317 317 317 317 318 315 311 312 311 308 306 305 304 305 308 312 314 314 315 316 318 318 318 316 314 307 304 303 302 300 299 298
315 313 314 315 311 314 313 315 315 315 316 318 318 319 319 319 318 316 312 312 310 307 305 304 302 304 308 311 315 315 316 317 317 317 316 311 305 303 303 301 300 298 298 297
314 314 313 313 313 312 315 317 320 319 317 319 315 318 319 316 314 315 312 310 309 307 304 302 302 303 308 310 312 314 315 316 315 313 308 303 303 302 301 300 299 298 297 296
317 319 315 311 316 315 313 317 320 324 322 320 311 315 317 311 310 311 311 309 308 305 303 302 303 304 306 309 310 311 311 311 308 304 303 302 301 301 300 299 298 297 296 295
320 321 315 313 314 315 314 316 317 317 307 313 317 314 315 308 307 308 309 308 306 304 302 302 302 303 305 307 308 308 307 305 303 302 301 301 300 300 298 297 296 296 295 294
320 322 315 309 311 312 314 313 315 314 316 318 319 318 318 311 309 306 307 306 304 303 302 302 302 303 304 303 304 304 303 302 302 301 300 300 300 298 297 296 296 295 294 293
317 319 313 310 311 314 312 313 315 315 316 319 319 319 317 314 311 307 307 306 304 303 302 302 302 302 303 302 301 302 301 301 300 300 300 300 298 296 296 295 295 293 292 291
316 318 313 312 311 311 314 314 314 316 317 316 315 320 313 314 311 309 307 307 305 304 303 302 302 303 302 301 300 301 300 300 300 300 300 298 297 296 295 295 293 292 291 291
316 317 320 320 313 310 311 312 314 315 313 318 317 319 308 308 310 310 307 307 306 304 303 302 301 302 302 301 300 300 299 299 299 299 299 297 296 296 295 293 293 291 291 290
316 317 320 323 320 316 312 311 313 314 316 315 317 318 310 309 309 309 309 307 306 305 304 303 302 302 302 301 300 299 298 299 299 298 298 296 296 296 293 293 291 291 290 289
315 317 317 318 318 316 313 313 312 313 314 316 317 316 316 311 307 309 310 308 306 305 303 303 303 302 301 300 300 298 298 298 298 297 297 296 296 293 292 292 291 290 289 289
312 316 316 317 316 316 318 318 313 312 313 314 315 315 315 315 311 309 309 307 306 305 305 305 303 301 302 301 301 300 298 297 297 297 297 296 295 294 292 292 290 289 289 288
311 313 314 319 315 315 318 317 318 316 313 313 314 315 312 313 308 308 308 308 306 306 306 305 304 304 303 302 301 301 299 297 297 297 296 296 296 294 293 291 290 288 288 288
311 313 314 319 316 321 318 315 316 317 317 315 313 312 309 312 312 311 310 309 308 307 306 306 305 305 303 301 301 300 299 298 298 298 298 297 296 295 293 291 289 288 288 288
313 313 315 318 320 318 316 306 312 314 317 315 315 313 308 311 310 307 309 309 309 308 308 308 310 306 304 302 301 300 300 299 299 299 298 297 296 295 293 291 290 288 288 287
312 315 314 313 319 321 311 303 307 310 316 309 311 313 302 305 310 307 308 308 308 308 312 311 305 304 303 302 301 301 300 299 299 296 294 293 293 294 293 292 291 289 288 288
309 313 317 316 320 317 302 296 306 314 311 300 307 306 302 306 308 311 311 310 312 311 305 304 303 303 303 302 300 299 297 295 293 292 292 293 293 293 292 291 290 289 288 288
312 314 316 315 318 319 299 300 310 302 298 304 304 302 302 304 306 309 310 307 305 304 303 302 301 300 299 297 295 294 293 292 291 291 291 291 290 290 290 289 288 288 288 288
309 308 313 311 310 295 295 297 299 299 299 300 305 303 303 303 302 302 303 303 302 300 298 297 297 296 294 293 293 292 292 291 291 291 290 290 290 289 289 288 289 289 288 288
298 297 304 304 297 296 298 300 302 306 307 307 303 300 302 302 300 298 297 297 297 296 295 294 293 292 292 292 292 291 291 291 291 291 290 290 290 289 289 289 288 288 288 288
299 299 298 295 295 295 298 301 304 306 303 298 297 296 298 299 297 296 296 296 295 294 293 293 293 292 291 291 292 291 291 290 290 290 290 290 289 289 289 289 288 288 287 286
294 298 301 301 296 300 300 303 304 304 301 298 297 296 295 296 295 295 295 294 294 293 293 292 292 291 291 291 291 291 291 290 290 290 290 289 289 289 289 288 288 287 287 286

GFSCGP_850_thetae_039.txt.gz
Theta_e
314 312 313 313 311 313 315 316 317 315 314 314 312 312 312 314 313 312 313 312 312 311 310 310 310 310 309 311 311 312 314 318 319 321 322 322 322 321 321 321 321 320 319 318
313 313 313 313 313 314 314 315 314 314 313 312 312 312 312 313 312 313 313 313 312 311 310 309 309 309 309 311 312 313 316 320 320 320 321 321 321 320 320 321 318 317 316 315
314 315 315 315 316 316 315 315 315 315 314 313 312 312 312 312 314 314 313 314 313 313 311 309 309 309 309 311 312 313 317 318 319 320 320 320 319 319 320 318 316 313 312 307
314 315 316 314 315 314 315 315 315 315 315 315 312 316 314 315 313 311 313 312 313 311 310 311 309 309 309 310 312 314 317 318 318 318 318 319 319 320 318 316 310 307 303 301
315 314 314 315 315 313 315 314 315 315 314 316 315 315 315 314 315 316 313 312 312 312 312 310 310 309 308 310 311 314 316 316 316 316 318 319 319 317 314 309 304 302 299 298
313 313 312 313 310 313 311 313 313 313 313 315 314 316 316 317 317 316 312 312 312 312 310 309 308 307 307 310 312 313 314 314 314 315 318 318 317 313 308 303 302 299 298 298
312 312 312 312 312 311 313 314 317 317 315 319 314 315 318 315 313 313 312 310 310 310 309 308 307 306 306 308 312 312 313 314 314 315 316 315 313 308 304 303 301 300 298 298
315 315 312 311 312 313 312 314 317 320 319 317 311 314 316 313 313 312 314 313 309 308 308 307 307 306 306 307 311 312 313 314 316 316 315 312 306 303 302 301 299 298 298 297
315 315 312 310 313 314 312 315 315 316 301 310 315 313 312 309 308 308 309 310 309 307 307 307 306 306 305 307 310 313 314 315 315 315 312 305 302 302 301 300 298 297 297 297
316 320 312 309 312 311 313 312 316 313 314 314 315 316 318 312 310 306 306 306 306 306 306 306 306 305 304 307 309 311 313 314 314 311 305 302 302 301 300 299 298 297 296 295
314 318 312 310 311 313 312 313 314 315 314 317 316 317 312 315 312 307 307 307 308 307 306 306 305 304 303 305 308 310 310 310 309 304 302 301 301 300 298 297 296 296 295 294
314 316 310 311 309 309 313 313 312 316 316 312 313 319 311 312 310 309 308 307 307 307 306 306 304 303 303 303 306 307 307 307 304 302 301 300 300 299 297 296 296 295 294 293
314 316 316 316 311 310 311 311 314 314 310 315 315 319 308 309 310 310 308 308 307 307 305 305 304 303 303 303 303 303 304 303 301 300 300 299 298 297 297 296 295 294 294 293
316 316 319 321 319 312 312 312 313 315 315 316 317 317 313 311 310 308 308 309 308 307 306 304 303 303 303 302 302 301 301 300 300 299 299 298 298 297 296 295 295 294 293 292
316 317 315 317 317 314 312 312 312 313 314 316 317 316 316 313 308 309 311 308 307 306 305 305 305 304 303 302 302 301 300 299 299 298 298 298 297 296 295 294 294 293 292 291
312 317 316 318 315 315 316 313 312 313 313 313 315 315 312 314 315 310 311 310 307 307 307 306 304 304 304 303 303 301 299 299 298 298 297 296 295 295 294 294 293 292 291 290
312 314 314 320 315 315 317 317 317 314 313 313 314 314 311 313 312 309 310 310 310 311 310 307 307 306 305 305 304 302 300 298 298 297 296 295 295 294 295 294 292 292 290 289
312 314 313 318 315 320 318 314 316 317 316 313 312 314 312 313 314 314 314 313 311 310 308 307 306 305 306 305 303 301 300 298 298 296 295 295 294 294 294 293 293 291 290 289
313 313 315 318 319 318 317 310 313 314 316 315 316 315 314 313 312 311 314 314 314 313 311 310 309 308 307 305 304 302 299 299 298 297 295 295 295 295 294 294 294 291 290 289
311 313 314 313 320 321 317 306 308 311 318 313 313 314 314 307 312 313 313 311 310 309 308 308 307 307 306 305 305 301 300 300 298 297 297 297 296 296 296 295 294 292 290 289
315 315 315 316 319 317 303 298 310 317 314 298 306 309 311 309 313 311 313 309 308 307 307 308 309 308 308 306 306 301 301 300 300 300 299 297 296 294 293 293 293 292 290 289
314 317 318 317 319 320 300 302 313 304 300 303 303 303 304 307 308 310 308 307 308 310 308 307 307 306 305 303 302 301 300 300 299 297 294 292 292 292 292 292 292 291 290 289
312 308 315 314 313 296 296 297 297 298 298 298 302 301 303 305 306 306 307 307 307 307 308 308 305 303 301 301 300 300 299 295 293 292 291 291 291 290 290 289 289 289 288 288
300 298 303 303 298 296 298 300 301 301 298 297 298 302 301 302 302 303 305 307 307 304 303 302 300 299 298 296 294 293 292 291 291 291 291 291 290 290 290 289 289 288 288 288
300 300 299 297 296 295 298 300 303 305 303 301 298 296 300 302 301 300 300 301 300 298 297 296 295 294 293 292 292 292 291 291 291 291 291 290 290 290 290 289 289 289 288 288
296 299 302 304 299 301 301 303 304 305 304 299 298 295 295 297 297 296 296 296 296 296 294 293 292 292 291 291 291 292 291 290 290 290 290 290 290 290 289 289 289 289 288 288

GFSCGP_850_thetae_042.txt.gz
Theta_e
313 311 312 312 309 312 313 313 315 314 314 313 311 311 311 312 311 311 312 312 312 313 312 311 310 311 311 311 312 312 312 312 315 319 320 322 321 321 321 320 321 323 321 320
312 312 312 311 311 312 312 314 312 312 313 311 312 311 310 311 312 313 314 314 313 312 311 310 310 310 310 311 311 312 312 313 315 318 320 321 321 320 320 320 321 321 319 318
313 315 313 313 314 314 313 313 313 315 313 311 311 311 311 311 312 314 315 316 315 314 313 310 310 311 310 310 311 312 313 314 316 319 320 320 320 319 319 319 320 318 317 315
312 313 314 313 314 313 314 312 314 314 315 314 312 316 313 312 311 310 314 314 314 313 311 311 310 310 310 310 311 312 314 316 318 319 319 319 319 318 318 320 318 315 313 309
314 313 313 314 314 313 315 313 313 314 313 314 313 313 312 313 313 313 315 315 316 313 313 312 311 311 311 309 311 312 315 317 318 317 318 318 319 318 318 318 315 312 305 301
312 312 312 314 311 312 311 313 312 311 312 315 314 314 314 314 315 313 314 315 316 315 312 311 311 310 310 309 311 312 315 316 316 316 316 317 319 318 318 315 310 305 301 299
312 312 311 311 312 312 312 313 314 316 314 317 312 313 317 314 312 313 314 317 315 313 311 309 310 309 309 309 310 312 314 315 315 315 315 315 317 318 318 313 306 301 299 298
315 315 312 310 312 313 312 312 315 317 316 315 311 315 315 311 314 313 315 314 314 312 309 308 309 309 309 308 309 311 313 313 313 313 314 316 317 317 314 308 302 300 300 299
313 313 311 310 311 313 311 314 313 315 298 310 315 313 312 309 309 310 311 310 310 310 310 309 309 309 308 308 308 310 312 312 312 313 313 315 315 313 309 302 299 298 298 298
313 315 310 310 312 311 311 311 314 311 314 314 315 314 318 313 311 310 308 308 308 309 308 308 308 308 308 307 307 309 311 312 312 313 314 314 313 309 303 299 298 297 297 297
313 316 312 310 311 312 312 313 313 314 312 315 313 316 310 314 312 311 309 313 311 309 309 309 308 307 307 306 305 307 311 311 312 313 314 313 311 304 299 298 297 297 297 296
312 316 312 311 309 308 311 313 312 315 314 311 313 320 310 311 310 310 313 315 312 310 310 309 308 307 306 305 304 306 310 312 312 312 312 311 306 300 299 297 297 296 296 295
313 314 313 314 311 309 310 311 314 312 309 316 315 319 307 308 309 312 312 316 313 309 308 308 307 306 306 304 303 306 308 311 311 311 310 307 301 300 298 297 296 296 295 295
314 315 315 318 317 311 311 310 311 315 317 317 316 318 313 311 311 311 312 314 313 310 308 308 307 307 306 305 304 305 307 308 309 308 307 302 299 299 298 297 296 295 295 294
314 317 316 316 315 312 312 313 312 314 315 317 318 317 317 313 309 310 315 314 311 310 308 308 308 307 306 305 304 303 305 307 306 305 304 300 298 297 297 296 295 294 294 293
312 317 316 317 315 313 314 311 311 313 314 314 315 316 313 313 314 311 313 314 311 312 313 313 310 307 307 306 305 303 302 304 304 303 301 299 297 296 294 295 294 294 293 292
313 316 317 320 316 314 317 317 313 312 313 313 315 315 310 312 311 312 312 312 313 315 315 314 313 313 309 308 306 305 303 302 301 300 299 298 296 295 293 294 294 293 292 291
313 315 316 319 316 321 317 314 316 316 315 311 312 313 312 312 313 313 313 313 314 314 314 314 314 312 310 307 306 304 303 302 299 298 297 296 295 294 293 294 294 292 291 290
314 315 316 318 320 317 316 310 313 314 317 316 316 315 315 314 313 312 313 315 314 315 315 315 315 312 307 305 304 303 302 300 299 298 297 296 294 294 293 293 293 291 291 292
313 314 315 313 319 321 317 309 314 310 318 313 313 315 314 311 313 315 315 315 315 314 313 313 311 308 306 305 304 302 300 301 299 299 298 296 295 294 293 293 293 292 294 294
316 316 316 317 319 315 306 299 312 318 315 300 308 312 311 311 314 311 312 313 314 313 310 308 307 307 305 304 303 303 301 301 301 301 301 298 296 294 293 293 293 296 291 290
315 317 317 315 317 318 301 304 314 305 301 303 303 303 304 308 310 311 309 311 311 308 307 306 305 304 304 303 303 303 306 308 306 301 300 298 295 294 295 296 294 292 291 290
314 314 317 315 314 296 297 297 298 297 297 299 301 301 302 303 304 305 305 305 305 306 306 306 306 305 305 307 307 306 306 303 300 298 297 296 296 296 295 293 292 292 292 291
301 299 307 307 301 297 298 300 299 297 297 297 299 299 300 302 302 304 305 306 306 306 307 307 307 307 307 306 303 301 300 299 298 298 297 295 293 292 292 292 291 290 290 289
298 301 299 298 297 296 298 301 302 302 303 305 302 302 301 300 301 303 306 306 306 306 304 303 302 301 301 299 298 298 297 295 293 292 292 291 291 291 290 290 289 289 289 288
297 300 301 303 300 303 302 302 303 302 301 302 298 296 296 299 299 298 299 299 299 298 297 297 296 294 294 293 293 292 292 291 291 291 291 291 291 290 290 289 289 289 288 288

GFSCGP_850_thetae_045.txt.gz
Theta_e
312 310 311 311 309 311 311 312 313 313 313 313 311 310 310 311 311 311 312 313 313 314 315 313 312 311 311 311 312 312 312 312 313 314 319 322 322 322 321 321 320 322 322 322
311 311 311 310 310 311 312 313 312 311 311 311 311 311 309 309 310 312 313 314 315 314 315 314 312 312 311 311 312 312 312 312 312 315 315 318 321 320 320 320 319 321 322 321
312 314 311 312 312 312 311 311 312 313 312 310 310 310 310 310 311 312 313 315 315 315 316 315 313 313 311 311 311 312 312 312 313 316 319 320 321 320 319 318 318 319 320 319
312 312 312 312 313 312 313 311 312 313 314 314 311 314 311 310 310 309 314 315 316 316 315 315 314 313 312 311 311 311 312 312 313 316 318 318 319 319 318 318 317 319 318 316
312 312 312 313 313 311 314 311 311 313 312 313 312 312 314 311 312 312 313 317 317 318 317 316 315 314 314 311 311 310 311 313 314 316 318 318 318 319 319 317 317 318 316 313
311 311 311 313 311 311 310 312 310 310 311 314 313 313 313 313 313 313 313 316 317 317 317 315 312 312 311 310 309 310 312 313 315 317 317 317 317 318 318 317 317 317 313 308
311 312 311 311 312 311 312 312 314 314 313 316 310 312 315 312 311 312 314 317 318 316 316 314 312 311 310 310 309 309 311 313 315 317 317 317 316 316 318 318 317 315 310 301
313 312 311 309 313 313 311 312 314 315 314 313 310 314 315 310 312 313 315 316 315 315 315 316 315 312 310 309 309 309 311 313 315 316 316 315 316 315 316 317 317 313 307 300
313 313 310 309 310 312 311 313 312 314 298 309 313 312 311 309 309 310 313 314 314 315 316 315 313 310 309 309 309 309 311 312 314 316 314 314 314 314 314 316 315 310 302 298
312 313 310 310 312 310 311 310 314 310 312 311 313 313 316 315 312 311 309 313 316 314 314 314 312 310 309 308 308 308 310 311 314 314 313 312 313 313 313 314 312 304 299 297
312 313 311 309 310 311 311 312 312 312 311 314 312 315 309 314 311 311 310 317 316 315 314 313 313 311 309 308 308 308 309 311 312 313 313 312 313 313 314 312 308 301 298 297
310 313 311 311 309 308 310 312 312 313 312 310 311 317 310 309 310 310 313 316 316 316 315 312 312 311 309 308 307 307 307 309 311 313 312 312 312 313 312 308 303 298 297 296
312 313 308 312 311 307 310 310 312 311 308 315 313 318 305 308 309 311 313 316 315 315 317 312 311 311 309 308 307 307 306 307 310 311 311 311 312 311 309 306 299 296 295 295
313 314 313 317 315 310 310 309 311 313 314 316 316 317 314 312 308 310 313 316 315 315 315 313 311 311 311 309 308 307 306 305 307 310 311 311 312 310 308 304 298 296 295 294
314 317 315 315 315 311 311 311 311 313 314 315 317 316 316 313 309 311 316 316 314 315 315 316 315 312 311 310 309 307 306 305 305 308 310 311 311 309 306 300 296 295 294 293
312 316 315 316 315 314 313 310 311 312 314 314 315 316 313 313 314 311 314 316 314 315 315 316 316 313 311 310 310 308 307 305 304 306 309 310 309 306 303 297 295 294 293 292
314 315 315 319 315 315 315 315 315 312 312 313 315 315 311 313 312 312 313 312 313 315 315 316 316 316 315 314 310 309 307 305 303 305 307 308 307 304 299 296 294 293 293 292
313 315 315 318 315 320 317 315 314 315 314 312 312 314 314 313 314 314 313 313 314 314 314 315 315 315 315 314 311 308 306 305 303 303 305 305 303 299 296 295 294 293 292 291
315 315 317 319 320 318 315 312 312 313 316 314 313 312 312 313 312 312 313 314 315 315 314 314 314 313 314 313 311 307 305 304 302 301 302 302 300 298 295 294 293 292 292 291
313 315 317 313 320 321 316 312 314 310 317 314 313 314 314 313 313 315 315 315 315 314 314 314 313 311 310 310 308 306 303 302 301 300 300 300 299 298 295 294 292 295 294 291
316 316 317 318 319 316 307 301 312 317 314 303 307 310 312 311 314 311 311 312 313 313 313 313 311 308 307 307 305 302 301 300 299 298 298 298 296 295 294 292 297 294 291 292
315 316 317 316 318 319 302 306 313 304 300 301 303 304 305 309 311 311 308 309 312 311 309 308 307 305 304 303 301 300 299 298 298 297 296 295 294 293 292 297 294 294 291 291
315 313 314 313 314 300 299 298 299 297 298 299 300 300 301 303 305 305 305 305 305 305 305 304 304 303 302 301 300 300 299 299 299 300 302 301 300 299 298 296 295 293 293 293
302 300 310 310 303 296 299 299 299 297 298 299 299 300 301 302 303 304 305 305 306 306 307 307 307 306 306 305 305 306 305 305 304 303 302 300 299 298 297 295 293 293 292 290
302 302 304 305 295 297 298 299 299 302 304 305 305 303 303 304 305 305 306 306 306 306 305 305 306 306 306 306 305 303 301 299 299 298 297 296 295 294 293 293 292 292 291 291
298 302 307 308 300 303 301 302 302 303 304 304 301 298 300 299 301 302 302 302 303 302 302 301 300 300 300 299 299 298 298 297 296 295 295 294 294 293 293 292 292 291 290 290

GFSCGP_850_thetae_048.txt.gz
Theta_e
311 310 311 310 308 310 309 311 312 311 311 312 310 308 309 313 311 311 313 314 315 315 317 315 314 313 313 312 312 312 312 313 313 312 312 319 318 323 323 323 322 323 322 325
309 310 309 310 309 311 311 312 311 310 310 311 310 310 310 309 310 313 315 315 316 316 317 316 315 314 313 313 312 312 312 312 313 312 313 318 317 322 321 321 321 321 321 323
311 312 310 310 310 312 310 310 311 312 311 309 309 310 309 309 310 312 313 315 316 316 317 317 316 315 314 313 313 312 311 312 312 312 314 317 318 321 320 320 319 318 318 323
310 311 312 311 311 310 312 309 311 312 313 313 310 313 310 310 310 308 314 314 316 316 317 316 316 315 315 315 313 312 311 311 312 312 313 316 317 318 319 319 318 317 318 319
312 311 312 312 312 310 312 310 310 311 311 311 311 312 312 311 311 311 313 316 317 317 317 317 317 316 315 314 313 312 310 310 311 312 313 315 317 318 318 319 317 316 317 319
310 311 310 311 310 311 309 310 309 308 310 313 311 312 312 311 312 311 312 315 317 316 316 316 316 316 315 313 312 311 309 309 311 312 313 314 318 319 319 318 317 316 316 317
311 311 310 311 311 310 311 312 314 311 311 315 309 311 314 311 310 309 310 316 316 316 316 316 317 317 316 314 312 310 309 309 311 312 314 315 318 318 317 318 316 315 316 316
311 310 310 308 312 312 310 312 313 312 311 311 309 313 313 309 311 313 312 315 315 316 316 316 316 316 315 313 311 309 309 309 310 312 314 316 317 317 316 316 317 317 315 316
310 311 309 308 310 311 311 312 311 313 297 308 310 309 309 308 308 310 312 314 316 317 317 317 317 316 315 313 311 309 308 309 310 312 314 316 316 315 315 315 315 316 316 315
311 312 309 309 310 310 310 310 313 310 312 310 311 311 313 313 312 309 308 312 316 315 317 317 317 316 315 313 311 309 308 308 309 311 313 315 316 315 314 314 314 315 315 312
310 312 310 309 310 310 311 312 311 311 310 311 310 313 308 311 310 310 310 315 315 316 316 316 316 316 314 312 310 309 308 308 309 311 313 315 316 313 313 313 313 314 313 308
310 312 310 310 308 307 309 310 310 311 310 309 310 315 308 309 309 310 312 315 315 315 316 316 315 315 315 313 312 310 308 308 308 310 312 314 315 313 312 312 312 312 311 304
311 313 310 312 311 307 309 309 310 309 308 312 311 316 306 308 308 310 310 314 315 315 316 317 317 316 315 314 313 311 309 308 308 309 311 313 314 312 311 311 311 311 309 301
312 314 315 318 314 310 310 308 310 313 314 315 313 315 313 312 311 310 313 316 315 316 315 316 317 317 315 314 313 311 310 308 307 308 309 311 313 312 311 311 311 310 306 298
314 316 313 315 312 310 310 310 310 313 313 313 315 314 315 313 311 312 316 317 315 316 313 315 317 317 316 314 313 312 310 308 307 307 307 309 311 312 310 311 311 308 304 296
312 315 314 315 314 312 314 309 311 311 312 313 313 314 314 314 314 312 314 315 315 316 317 317 316 315 316 316 315 312 311 310 307 306 306 307 309 310 310 310 309 306 301 295
314 313 314 318 314 314 317 314 315 314 313 313 313 314 314 313 312 313 313 314 314 315 316 316 315 315 315 315 315 314 312 310 308 306 305 305 307 309 309 309 307 304 300 294
312 313 314 318 313 319 316 312 313 314 314 312 312 313 313 313 314 313 313 313 314 314 314 314 314 314 314 314 314 313 310 309 308 306 304 303 304 306 308 307 305 302 297 293
313 314 317 318 318 316 314 310 312 312 314 313 313 312 312 312 312 312 313 313 313 313 313 314 314 314 313 313 312 311 309 307 306 305 303 302 302 304 306 305 303 300 295 292
313 315 315 315 318 319 315 313 312 309 316 313 312 313 312 311 312 313 313 314 314 313 313 314 314 314 313 312 310 309 308 306 304 302 301 300 300 302 303 303 301 297 294 292
314 315 317 317 318 313 307 302 310 316 314 303 308 310 308 311 313 310 311 311 312 312 313 313 312 312 310 309 307 306 304 302 301 299 298 297 298 299 299 299 297 295 292 291
315 315 316 317 317 318 304 308 313 307 301 304 305 305 305 307 309 310 308 309 311 312 309 308 308 307 306 304 303 302 301 299 298 296 295 295 295 297 296 295 294 293 292 290
313 311 313 313 314 309 307 307 311 309 302 301 304 304 303 303 304 304 305 305 305 305 305 304 304 303 302 300 299 298 297 297 296 295 294 293 293 293 293 293 292 291 290 292
304 301 310 310 306 303 304 306 307 305 302 303 302 302 302 303 303 303 304 304 305 305 306 306 307 307 307 306 305 305 304 304 303 302 302 301 299 298 296 295 294 293 293 295
301 303 307 306 301 299 302 300 300 298 299 301 302 302 303 306 304 305 304 304 305 305 304 304 304 304 304 304 305 304 304 303 303 302 301 301 300 299 298 296 296 295 295 294
298 302 307 309 303 307 305 308 304 300 302 302 302 301 300 300 302 302 302 303 303 303 302 303 303 303 303 302 301 299 299 298 298 297 297 296 295 295 294 293 293 292 291 290

GFSCGP_850_thetae_051.txt.gz
Theta_e
310 310 311 309 309 309 308 310 311 310 310 311 310 309 309 313 311 311 314 316 316 317 318 317 315 314 314 314 314 313 312 312 312 312 312 312 313 318 324 323 323 324 324 325
308 310 309 308 307 310 310 312 311 309 309 310 310 311 309 309 312 313 315 316 317 317 318 318 317 316 315 315 314 314 313 312 312 312 312 312 313 318 319 321 323 325 323 325
310 311 308 309 309 310 310 310 310 312 310 308 308 310 309 309 309 312 314 316 316 317 317 318 318 317 316 315 315 314 314 312 312 312 312 312 314 319 319 320 321 321 321 323
310 310 310 310 310 309 312 308 309 311 312 312 309 312 310 310 309 308 314 316 317 317 316 317 317 316 316 316 315 314 313 312 312 311 311 312 313 316 317 319 320 320 320 320
310 310 311 311 311 309 311 308 309 310 311 311 310 312 312 309 311 310 311 315 316 316 316 316 316 316 316 315 315 314 313 312 311 311 311 312 313 317 317 319 319 320 318 317
309 310 309 310 309 310 307 309 308 307 309 313 310 312 310 310 311 311 311 315 316 316 315 316 316 316 317 316 315 314 312 311 311 310 310 311 313 317 318 320 318 319 317 316
310 310 309 310 310 309 310 311 312 310 311 315 308 311 313 310 309 309 311 315 316 314 315 316 317 317 317 318 317 315 313 311 310 309 310 311 312 315 319 318 318 318 316 316
311 310 309 308 310 311 309 311 311 310 309 309 308 312 312 309 310 312 312 313 314 314 314 316 316 317 317 317 316 315 313 311 309 309 309 310 312 314 314 317 318 318 315 315
308 309 308 307 309 310 310 312 310 310 296 308 309 308 308 307 307 309 313 312 314 315 316 317 317 317 317 316 315 314 312 311 309 308 308 310 312 314 313 318 318 316 316 315
309 310 308 309 310 309 310 309 312 309 311 310 310 309 313 313 312 310 308 312 314 314 316 317 318 317 317 316 315 314 312 310 309 308 308 310 312 314 315 317 318 315 316 316
309 310 309 308 309 310 311 311 310 310 309 310 309 312 306 310 309 309 308 312 314 316 317 318 317 317 317 317 316 314 313 311 309 307 308 309 311 313 315 316 316 314 315 315
309 310 308 309 308 306 308 310 309 311 310 308 309 314 308 309 309 310 310 313 315 316 317 317 317 317 317 317 317 316 314 313 310 308 307 308 311 313 314 316 315 314 313 314
310 312 308 311 310 306 309 307 309 308 307 310 312 315 306 307 309 311 312 314 315 315 316 316 315 316 316 316 317 316 316 314 312 309 307 308 310 312 313 315 313 312 313 313
312 314 314 317 313 309 310 308 309 312 313 314 311 314 312 311 311 310 313 315 315 316 315 315 315 315 316 316 316 316 316 314 312 310 308 308 309 311 312 313 313 311 312 312
312 315 314 315 313 309 309 310 309 312 313 314 315 313 313 312 310 312 314 315 315 316 316 316 315 315 314 315 315 316 315 314 312 310 309 309 308 310 312 312 312 310 310 311
310 315 312 314 313 313 312 309 309 310 312 312 313 313 313 313 313 311 312 313 314 315 316 316 317 316 315 315 315 315 315 313 312 310 309 308 307 308 310 311 311 310 310 310
312 312 314 317 314 312 315 313 313 312 310 311 312 312 312 312 312 312 312 313 313 314 314 315 315 315 315 315 314 314 313 312 311 310 309 307 306 307 308 309 310 310 309 309
312 313 313 316 313 318 315 312 313 314 313 312 312 312 312 313 314 314 313 313 313 313 313 314 314 313 313 313 313 313 312 311 310 308 307 306 305 305 306 307 308 309 308 308
312 313 313 316 317 315 312 309 312 312 314 313 313 313 313 313 312 312 312 313 313 313 312 312 312 313 314 314 313 313 312 310 309 308 306 305 304 303 304 305 306 306 306 305
309 312 313 314 317 317 313 310 311 308 315 312 311 312 312 311 311 313 312 312 313 313 313 313 313 313 314 314 313 312 311 309 308 305 304 302 300 300 300 302 303 304 302 299
310 310 313 314 316 315 307 301 309 314 313 305 312 312 311 310 312 312 309 311 311 311 311 312 312 312 311 311 310 308 307 305 303 300 299 298 298 297 297 298 299 300 299 295
308 310 312 313 314 315 304 306 311 309 307 307 307 309 309 310 311 312 310 309 310 310 308 307 306 306 306 305 304 304 303 301 299 298 297 296 295 295 295 296 296 296 292 293
310 308 310 312 312 306 305 306 308 308 310 311 306 308 309 305 305 307 307 306 305 305 305 304 303 304 302 301 300 300 299 298 297 296 295 294 293 293 293 294 294 292 294 293
302 304 304 305 304 305 306 306 305 308 309 306 306 304 304 304 304 305 304 303 303 302 303 304 305 305 304 304 304 305 305 304 303 302 301 298 295 294 293 293 293 295 294 294
301 299 304 305 303 303 307 306 309 309 306 305 304 304 303 302 303 303 304 303 303 304 304 303 304 304 304 303 303 303 302 302 302 301 300 299 298 298 298 297 297 296 295 294
298 302 304 304 302 305 304 307 308 306 305 302 301 300 302 304 304 303 303 303 303 303 303 303 302 302 303 303 303 302 302 301 300 300 299 299 299 299 298 297 296 295 294 293

GFSCGP_850_thetae_054.txt.gz
Theta_e
312 316 317 317 316 313 314 315 315 315 313 315 317 317 317 316 316 315 316 316 316 317 318 318 316 315 315 315 315 315 315 314 314 313 312 311 312 312 311 317 320 320 325 324
314 316 316 313 312 314 314 316 316 315 312 313 316 316 317 316 316 316 317 317 317 317 316 317 318 317 316 315 315 314 314 314 314 313 312 312 312 312 312 318 318 324 321 324
315 314 311 313 312 314 315 316 316 315 313 313 314 316 318 316 314 314 315 315 315 316 316 316 317 317 317 316 316 315 315 314 314 312 312 311 312 312 313 320 319 319 323 323
314 312 312 313 314 314 316 314 313 314 316 316 313 315 316 317 316 315 315 316 316 316 315 316 315 316 317 317 317 316 315 314 314 313 312 311 311 312 313 316 318 320 320 325
315 313 313 314 315 313 315 312 313 314 317 316 316 316 316 313 316 316 317 316 317 316 315 316 316 316 316 315 316 316 315 314 314 313 312 311 311 311 312 315 319 319 323 322
312 309 312 314 310 312 311 314 314 314 316 318 316 316 316 316 316 316 316 316 316 315 315 316 316 316 315 315 316 315 314 314 313 312 312 311 311 311 312 313 320 319 320 321
312 313 311 310 313 311 313 316 315 318 319 318 312 315 315 315 315 314 315 316 315 314 314 315 316 317 317 317 316 316 316 315 313 312 311 310 310 310 311 313 319 319 319 320
314 313 313 312 315 315 315 316 316 319 317 315 311 316 317 315 313 313 313 314 313 314 315 315 316 317 317 317 317 316 316 315 314 311 310 309 309 310 310 311 318 318 318 319
313 312 310 309 310 314 314 315 315 314 308 315 314 315 314 314 312 312 313 313 313 314 315 316 317 317 317 317 317 316 315 315 313 312 309 309 309 309 310 311 316 317 319 318
311 312 310 309 310 310 312 313 315 315 322 319 314 315 316 317 317 317 314 314 314 315 315 315 316 318 318 317 317 316 315 314 314 313 311 309 308 309 309 312 312 318 314 317
313 313 311 310 312 314 313 313 313 314 315 319 317 315 316 316 316 316 315 313 314 315 315 315 317 318 317 317 316 316 316 315 315 313 311 309 308 308 309 311 312 315 314 317
312 313 314 313 309 308 310 314 314 316 316 314 315 317 312 315 316 313 314 314 315 315 315 315 316 317 317 317 317 316 316 316 315 314 312 310 308 308 309 311 312 312 315 317
313 314 318 317 312 309 311 312 313 314 313 319 320 318 313 312 313 313 313 314 314 315 315 316 316 316 316 316 317 316 316 316 316 316 314 312 310 308 308 310 311 312 315 316
312 313 316 319 318 314 313 312 312 314 317 317 317 316 316 315 315 315 314 313 313 313 315 314 315 315 315 315 314 315 315 315 315 315 315 313 311 309 308 309 311 311 314 316
312 316 316 316 316 312 314 314 312 313 315 317 317 316 316 316 316 315 314 314 314 315 316 316 316 316 316 316 314 314 315 315 315 314 314 314 311 309 307 308 310 311 312 314
311 315 315 316 316 316 317 317 315 314 315 315 315 316 316 316 315 313 312 313 313 314 314 314 314 314 315 315 315 314 313 313 313 314 314 312 310 309 307 307 309 311 312 313
312 312 312 317 316 315 316 316 316 315 315 316 316 316 316 316 315 314 313 313 313 312 313 313 313 314 314 314 314 313 313 313 313 312 311 311 310 308 307 307 308 309 310 312
313 313 312 315 313 315 316 315 315 316 316 315 315 315 315 315 315 314 314 313 313 314 314 313 313 312 312 312 313 313 313 313 313 312 311 309 308 307 306 305 306 307 308 309
308 312 313 314 315 313 314 314 315 316 316 315 315 315 314 314 313 314 314 314 313 313 313 313 312 312 312 312 313 313 313 313 312 311 310 309 307 305 304 304 305 306 306 307
307 310 312 313 314 314 312 311 312 312 316 315 315 315 315 314 316 316 314 313 313 313 313 313 312 312 313 313 314 314 312 311 310 309 307 305 304 302 301 301 301 302 303 303
308 310 312 312 313 314 312 311 310 314 317 306 310 313 313 314 315 314 311 311 311 311 311 312 312 312 312 312 311 310 309 308 306 304 302 301 300 298 297 297 297 299 299 300
308 312 311 310 311 312 304 307 312 308 306 306 305 308 308 310 311 311 311 309 309 310 309 309 309 309 308 307 306 305 304 303 302 301 300 299 298 296 295 295 295 296 297 296
306 307 308 310 311 306 305 306 306 305 306 305 306 306 307 307 308 308 308 307 306 307 307 305 304 304 304 303 302 301 300 299 299 298 297 296 296 295 294 294 294 294 294 293
302 304 306 305 305 305 305 303 303 304 305 305 306 306 304 305 308 306 305 304 304 304 304 303 301 301 301 301 302 304 304 302 299 298 297 296 295 295 294 294 293 294 296 295
301 301 303 303 303 303 303 303 303 304 306 306 307 306 305 304 305 304 303 302 302 301 300 300 302 303 304 303 303 302 302 300 300 299 297 296 295 294 294 292 292 292 293 293
299 300 300 302 301 301 302 304 306 305 305 307 307 308 305 302 301 302 301 301 300 301 301 302 302 303 303 302 301 301 302 300 300 299 298 298 297 296 295 294 294 293 293 293

GFSCGP_850_thetae_057.txt.gz
Theta_e
315 315 315 316 317 317 316 317 317 317 316 316 317 318 318 318 318 318 318 318 317 318 318 318 316 315 315 315 316 317 318 317 318 318 317 316 314 314 314 316 323 326 325 325
315 316 317 317 317 316 316 316 317 317 316 315 317 317 318 318 318 318 318 318 318 318 318 319 318 316 316 315 315 315 316 316 316 315 315 314 313 313 313 312 312 314 318 322
315 316 315 315 315 316 316 317 317 317 316 316 317 317 317 318 318 317 317 317 317 317 318 318 318 317 316 317 317 316 315 315 315 315 314 314 313 313 312 312 312 312 314 320
315 315 314 315 315 315 315 316 316 316 316 316 316 317 316 317 318 319 318 318 318 318 318 317 317 318 317 316 316 316 315 314 314 314 314 314 314 313 313 312 312 312 316 319
315 315 314 315 315 315 316 315 316 316 317 318 317 317 317 318 318 318 318 318 318 318 319 318 317 316 316 315 315 315 314 314 314 314 314 314 313 313 312 311 312 312 318 319
315 312 315 315 313 315 314 316 317 317 317 317 316 317 317 317 317 318 318 318 318 317 316 315 315 315 315 314 315 315 314 314 314 313 313 313 313 312 311 311 312 312 316 319
315 314 313 313 315 314 316 316 315 317 320 318 316 317 317 317 317 317 317 317 317 316 315 315 315 315 316 317 316 316 315 314 313 312 312 312 312 311 311 312 311 312 314 319
315 315 314 313 316 316 316 316 316 318 319 318 314 317 316 317 317 317 316 316 316 316 316 316 315 316 317 317 317 317 316 315 314 313 313 312 311 311 311 311 311 311 312 316
314 314 314 313 314 315 316 317 317 318 316 316 315 316 316 317 315 315 315 315 315 316 316 316 315 316 316 317 317 316 316 316 316 315 314 313 311 310 310 311 310 311 311 314
314 314 312 312 312 313 314 315 315 315 324 319 315 316 317 318 317 317 317 317 317 316 315 315 315 316 316 316 317 316 316 316 315 314 314 313 312 311 310 310 310 310 311 311
314 313 313 311 313 314 313 313 314 315 316 318 318 316 317 317 317 317 318 317 316 316 315 314 314 316 317 317 317 316 316 316 316 316 315 314 313 312 310 309 309 309 310 311
313 314 316 313 312 311 314 314 314 316 317 316 316 318 314 316 317 317 317 315 315 315 315 315 316 317 317 317 317 317 317 317 316 316 316 315 313 312 311 310 309 308 309 311
313 315 319 316 314 311 313 314 313 315 315 320 319 316 315 316 316 316 316 316 315 315 315 314 315 315 316 316 316 316 316 316 316 315 316 316 316 313 312 310 309 308 309 311
313 314 318 320 319 316 314 313 314 314 316 317 317 317 317 317 317 317 316 315 315 315 315 315 315 315 315 315 315 314 315 315 315 315 315 315 316 314 311 310 309 308 308 310
313 313 315 317 317 316 316 315 315 315 315 316 316 316 317 317 317 317 317 316 316 315 315 315 315 315 315 314 314 315 314 313 314 314 314 315 314 313 311 309 309 308 308 310
312 315 315 316 316 317 317 317 316 315 315 316 316 316 316 316 317 317 316 316 316 315 314 314 314 314 314 314 314 314 314 314 313 313 313 313 313 312 311 309 308 308 308 309
312 312 313 315 314 314 316 316 317 317 317 317 318 317 317 317 316 316 316 316 316 315 315 314 314 314 314 313 313 312 312 312 313 312 312 312 311 309 309 307 307 307 307 308
310 311 311 314 314 316 315 313 314 316 316 316 316 316 316 316 315 315 315 315 315 315 315 314 314 314 314 312 312 312 312 311 311 311 311 310 309 308 306 305 305 305 305 306
308 310 311 312 312 312 311 312 313 316 316 316 316 316 316 315 315 315 315 315 314 314 314 314 314 313 312 311 312 312 312 312 312 311 310 309 307 306 305 304 304 303 304 304
307 309 309 309 311 311 310 311 311 312 313 313 310 313 315 315 316 316 315 314 314 313 313 313 312 311 311 311 311 312 312 312 311 310 308 307 306 304 303 301 301 301 301 301
307 307 308 308 310 310 310 309 309 313 314 306 306 307 308 309 312 311 311 309 310 311 312 311 311 311 311 311 311 310 309 308 307 307 306 305 304 302 301 300 298 298 299 298
307 309 309 308 309 309 307 309 312 308 304 304 305 305 306 308 309 307 307 308 307 307 308 309 309 309 310 309 308 307 306 306 305 304 303 301 300 299 298 297 296 296 297 297
303 304 306 308 310 307 307 307 307 305 304 303 304 304 305 306 305 306 305 307 308 308 306 306 306 306 305 304 304 304 304 303 301 300 299 298 297 296 295 294 294 295 295 295
302 302 303 303 303 305 306 306 305 303 302 302 302 302 305 305 306 306 307 308 308 309 307 304 302 302 302 301 300 300 301 301 299 297 296 295 295 294 294 294 294 293 294 294
300 301 301 302 301 302 302 302 302 301 300 303 303 303 304 304 304 304 303 305 307 304 305 302 302 298 299 300 302 302 301 299 299 298 297 296 294 294 293 292 292 292 292 292
298 299 300 301 300 299 299 300 300 301 303 304 302 301 302 303 304 303 303 301 300 302 300 298 296 298 302 302 302 301 299 298 298 297 297 296 296 296 295 294 293 293 292 292

GFSCGP_850_thetae_060.txt.gz
Theta_e
315 313 313 314 314 315 316 315 316 316 314 316 315 314 314 316 317 317 318 318 317 317 317 318 317 316 316 317 319 321 324 321 320 320 321 323 323 322 322 323 327 329 328 327
314 313 314 316 316 316 316 315 314 315 315 314 314 313 313 315 315 317 317 317 317 317 318 317 318 318 317 316 316 320 322 319 318 319 318 320 320 319 319 319 317 320 328 330
316 315 315 316 315 316 315 315 314 315 315 314 314 313 315 315 315 316 317 317 317 317 317 318 318 318 318 317 316 315 316 316 317 318 319 320 320 319 318 315 314 314 317 321
315 314 314 314 315 314 314 315 315 315 315 313 316 313 314 313 312 314 317 317 317 317 317 317 317 318 318 318 317 316 315 316 316 316 317 317 316 315 315 314 314 313 312 315
314 313 314 315 315 314 315 315 316 316 316 316 315 314 312 313 313 314 316 318 318 318 318 318 318 317 317 317 317 316 315 314 314 314 315 315 315 315 314 314 314 313 312 312
314 312 314 314 313 314 314 316 316 316 315 314 314 313 311 312 314 315 317 318 318 317 318 317 318 317 316 316 316 315 315 314 314 313 313 314 314 314 314 314 313 313 312 312
314 313 313 313 314 313 315 315 313 316 316 312 314 312 314 314 313 314 315 316 316 317 316 315 315 315 315 315 315 315 314 314 313 313 313 313 313 313 313 313 313 313 312 312
313 315 313 312 314 314 313 313 314 315 318 315 310 312 314 314 316 316 316 316 316 316 317 315 315 315 315 316 316 316 315 314 313 313 313 313 313 312 313 312 312 312 312 312
313 314 313 312 313 314 314 314 315 314 306 311 312 313 313 314 313 314 315 315 314 316 316 316 316 315 315 315 316 316 316 315 314 314 314 313 313 312 312 312 312 312 312 312
314 313 312 310 311 312 313 313 313 312 312 312 311 311 312 314 314 312 315 317 317 316 316 315 315 315 315 316 316 316 316 316 315 315 315 314 314 313 313 313 312 312 311 311
313 314 312 311 311 312 312 312 313 313 312 314 313 311 313 314 314 314 315 316 316 315 315 315 314 314 315 316 316 317 317 317 317 317 317 316 316 314 313 313 312 312 311 311
313 314 312 312 311 310 311 311 312 313 314 311 313 314 313 312 314 316 316 315 316 315 315 315 315 315 316 316 316 316 316 316 316 316 316 317 316 315 314 314 312 311 310 310
314 315 312 314 313 310 312 312 312 312 310 313 311 313 311 312 313 315 316 315 316 316 315 315 315 315 315 316 315 315 315 315 315 315 315 315 315 315 315 315 313 311 310 309
314 314 315 315 318 316 313 312 312 312 311 313 313 314 313 312 312 313 315 316 316 316 315 315 315 315 316 315 315 315 315 314 314 314 314 314 314 314 314 314 313 312 310 309
313 314 313 314 315 315 316 316 315 315 314 314 313 313 313 313 312 314 316 315 316 316 316 316 316 315 315 315 314 314 314 314 314 313 313 314 314 313 312 313 312 311 310 309
312 314 313 313 314 315 315 315 314 313 313 313 314 314 313 313 314 314 314 315 315 315 315 315 315 315 315 315 314 314 314 314 313 312 312 312 312 313 312 311 310 309 309 308
312 311 312 314 311 312 315 313 313 314 314 314 314 313 312 313 314 315 315 315 314 315 315 315 315 315 314 314 314 314 314 313 312 311 311 311 310 311 311 310 308 307 307 306
310 310 310 312 311 313 309 311 311 312 313 313 314 314 314 314 314 315 314 315 315 314 314 314 314 314 314 314 314 313 312 312 311 311 310 309 309 309 308 308 307 305 305 304
308 308 310 311 309 309 307 307 308 309 310 311 312 313 313 312 311 313 313 311 310 311 311 311 312 312 312 312 312 312 312 312 311 311 311 310 309 308 307 307 305 303 303 302
305 307 306 304 299 296 302 303 306 307 309 307 309 308 307 307 309 310 311 311 310 309 310 309 309 310 310 311 310 310 311 312 311 311 310 309 308 307 306 304 303 302 301 300
303 300 307 307 307 306 302 303 307 305 306 305 305 304 305 305 306 305 305 305 306 307 308 309 309 308 308 309 308 308 309 309 309 308 307 306 305 304 303 302 301 300 299 298
298 297 299 300 305 306 306 306 307 305 306 306 305 304 304 304 303 303 303 305 304 305 306 308 309 309 309 306 306 307 305 304 304 305 304 302 302 301 300 299 298 297 296 295
296 299 299 303 302 305 306 305 306 306 305 303 302 301 301 303 302 303 304 303 302 303 305 306 307 307 309 308 303 303 303 302 301 300 299 299 298 297 296 296 295 295 295 294
295 299 295 295 296 299 302 303 301 301 301 302 300 300 301 303 303 301 301 302 302 303 305 304 305 305 305 307 304 299 298 300 297 297 297 297 296 295 294 294 294 294 294 293
296 295 293 294 296 299 299 300 300 298 298 299 300 300 302 304 303 302 302 303 302 304 304 302 301 301 302 301 302 300 296 295 296 296 296 295 295 295 294 293 294 294 294 294
295 295 295 296 297 297 298 298 298 297 298 299 299 298 298 299 301 300 301 302 303 302 300 299 299 300 299 297 298 298 299 293 296 296 295 295 296 295 294 295 294 293 293 293

GFSCGP_850_thetae_063.txt.gz
Theta_e
314 309 309 309 309 311 313 314 313 313 314 314 312 311 311 314 314 314 316 316 317 317 317 317 317 317 317 317 318 322 325 325 327 328 325 326 325 324 324 325 326 326 326 324
309 309 310 310 312 313 314 314 313 313 313 313 312 311 309 311 313 314 314 315 316 317 317 317 317 317 317 317 316 317 320 323 323 324 322 323 322 322 323 324 326 327 327 324
311 313 311 314 314 314 314 313 313 313 313 311 312 310 311 312 313 315 315 315 315 316 316 317 317 317 317 317 317 317 316 317 320 321 323 324 323 323 324 324 324 324 326 324
313 313 313 314 314 312 314 313 313 314 311 310 311 310 310 312 310 309 313 316 317 317 317 317 316 317 317 317 318 318 317 316 317 320 322 322 321 320 319 321 321 321 322 323
312 312 312 313 313 312 312 313 313 314 313 314 312 310 309 309 311 310 312 315 316 317 318 318 317 317 317 317 318 318 317 316 316 317 319 320 320 319 319 320 319 319 318 317
312 312 312 312 311 312 312 313 313 313 311 311 311 309 307 308 310 312 313 316 317 316 317 318 318 318 317 317 316 317 316 316 315 315 316 316 316 316 316 316 315 315 314 314
313 312 312 312 312 311 313 309 309 311 313 310 309 310 309 310 310 313 313 314 316 316 316 316 315 315 315 315 315 315 315 315 314 314 314 314 314 314 314 314 314 314 314 314
312 311 311 311 311 312 312 309 309 311 314 311 309 311 312 310 312 315 315 314 314 314 315 315 315 315 315 315 314 314 314 314 314 313 313 313 313 313 313 313 313 313 313 313
310 311 310 310 311 311 312 313 311 311 299 308 309 309 309 310 311 313 313 314 316 316 316 316 316 316 315 315 315 315 316 315 315 315 314 314 314 313 313 313 313 313 313 313
312 313 309 310 311 310 311 311 312 309 308 309 308 308 310 310 311 309 312 315 316 316 315 314 315 315 315 315 315 315 316 316 316 316 316 315 315 315 315 315 315 314 314 313
310 311 310 310 310 311 311 311 311 311 310 311 310 309 306 309 311 311 313 315 315 315 315 314 315 315 315 316 316 316 315 315 316 316 316 316 316 316 316 316 315 314 313 313
311 311 309 310 309 309 309 309 310 311 311 308 310 312 311 311 312 314 314 315 315 315 315 315 315 315 315 315 315 315 315 314 314 315 315 314 315 315 315 315 315 314 313 312
312 312 306 311 311 309 311 310 310 310 307 310 309 312 308 309 311 312 313 314 315 315 315 315 316 315 315 315 315 315 314 314 314 314 314 314 314 314 314 314 314 313 313 312
313 312 311 311 314 314 312 314 313 311 310 311 311 312 311 310 309 310 312 313 315 314 315 315 315 315 315 315 315 315 315 314 314 314 314 314 313 314 313 313 312 312 312 312
313 314 313 312 313 315 316 315 314 314 312 313 312 312 312 311 311 312 312 313 313 314 314 315 315 315 315 315 315 314 314 314 314 314 314 314 313 312 312 312 311 311 310 311
311 312 313 313 312 313 314 314 313 314 313 311 311 311 311 311 311 311 312 313 314 314 314 314 314 314 314 314 314 314 314 314 314 314 313 313 312 311 311 311 310 310 309 309
312 311 312 313 311 312 313 311 312 313 312 312 313 312 311 311 311 312 314 314 312 311 311 311 311 312 313 314 313 313 313 313 312 312 312 312 311 311 310 309 309 309 308 307
311 309 309 309 308 312 307 307 310 311 311 311 312 312 312 312 311 311 312 309 309 309 309 309 310 311 311 312 312 312 312 312 312 312 312 312 312 311 310 308 308 307 306 305
307 308 305 299 298 304 307 306 306 305 304 303 304 306 308 306 306 310 310 304 304 305 306 306 307 309 309 309 309 310 311 311 311 311 311 311 311 311 311 310 307 305 304 303
305 306 307 292 303 300 303 303 303 304 304 304 304 304 304 304 304 303 304 304 303 303 303 302 305 307 308 308 309 309 309 309 310 310 310 310 310 308 307 306 306 304 303 302
303 304 305 304 302 297 299 300 304 303 301 304 304 304 303 303 303 302 302 302 302 302 302 302 302 304 306 306 307 308 308 309 308 307 307 306 306 306 305 303 302 301 300 299
302 302 303 304 304 304 302 303 303 302 304 303 303 302 303 300 300 300 300 302 302 301 301 301 302 302 304 306 306 306 307 307 306 305 303 303 301 300 301 300 299 299 298 297
294 297 294 299 299 300 305 303 303 306 303 301 301 301 300 299 300 299 300 302 303 302 301 302 303 304 304 306 305 305 305 305 302 303 301 299 299 298 297 297 296 296 296 293
293 296 293 294 294 295 299 299 299 300 300 298 298 298 299 299 299 299 300 301 300 300 300 301 302 302 303 303 302 301 302 300 298 300 298 297 295 295 295 294 294 295 295 294
294 294 291 290 294 297 298 298 297 297 297 297 297 296 297 297 298 298 299 299 298 300 301 301 301 301 301 300 300 299 297 296 296 298 298 296 293 293 293 293 294 293 292 292
294 294 293 292 295 295 295 295 295 296 297 297 296 297 297 297 298 298 298 297 296 298 298 299 300 299 299 299 295 295 295 293 293 293 295 295 293 293 293 294 293 292 293 293

GFSCGP_850_thetae_066.txt.gz
Theta_e
312 309 309 309 308 309 309 311 312 313 313 313 311 309 309 313 312 313 314 314 314 316 316 316 316 315 316 316 316 317 318 319 325 328 329 330 329 329 325 332 330 330 328 328
308 309 308 308 309 311 312 312 312 312 313 312 311 310 309 310 311 312 313 314 314 314 314 315 316 316 316 316 316 316 317 319 319 324 326 329 328 326 325 327 328 331 329 328
307 310 309 312 312 312 312 311 311 311 312 310 310 307 307 310 312 313 313 314 315 316 316 315 315 316 316 316 316 316 316 317 318 320 325 328 330 329 326 326 327 328 328 328
312 312 310 312 312 311 313 312 312 312 310 309 308 307 307 309 308 307 313 313 314 315 316 316 316 316 316 317 317 316 316 316 317 319 322 325 327 326 323 324 325 327 328 330
312 311 312 312 312 311 311 312 311 312 311 312 310 309 307 307 310 308 309 311 316 317 317 317 317 317 316 316 316 317 316 316 317 318 319 321 323 324 325 325 324 323 326 327
311 311 311 310 311 311 310 311 309 310 308 309 309 307 305 306 308 311 312 315 316 316 315 317 317 317 317 317 317 317 316 316 317 317 318 319 321 322 323 322 320 320 321 323
312 311 311 311 311 311 310 308 307 308 309 308 307 308 307 308 307 310 310 313 315 315 315 315 315 315 314 315 315 316 316 316 316 316 316 316 316 316 317 316 316 315 315 316
311 313 311 310 311 312 309 307 307 308 310 308 308 310 311 310 311 311 313 313 313 315 315 315 315 315 315 314 314 314 314 315 315 314 314 313 313 313 313 313 313 313 313 313
310 309 310 310 310 311 312 311 308 308 296 306 308 307 307 308 309 310 312 315 315 315 315 315 315 315 315 315 315 315 315 315 315 315 315 315 314 314 314 314 314 314 314 313
308 311 309 309 310 310 310 309 312 308 306 306 306 308 308 310 309 308 312 314 314 315 315 315 314 315 315 315 315 315 315 314 315 316 316 315 315 315 315 315 315 315 315 314
309 310 310 309 310 310 310 311 310 310 308 309 307 307 305 308 309 310 312 314 314 314 315 315 315 315 315 315 315 315 315 315 314 314 314 315 315 315 314 314 314 314 313 313
308 309 308 309 308 308 309 310 309 310 309 307 308 309 309 309 309 311 312 313 314 314 314 315 315 315 314 314 314 314 314 315 314 314 314 314 314 314 314 313 313 313 312 312
310 309 307 311 310 309 310 309 309 308 306 309 308 310 306 307 308 310 311 312 313 314 314 314 314 314 314 314 314 314 314 314 314 314 314 313 313 313 313 313 313 312 312 311
312 310 309 312 312 309 310 312 312 309 308 311 310 310 309 308 308 310 311 311 311 312 313 314 314 314 314 314 313 314 314 314 313 313 314 314 313 313 313 312 312 312 312 311
313 311 312 312 313 314 315 314 313 314 311 310 312 311 310 310 309 311 310 311 311 312 313 313 314 313 313 313 313 314 314 313 313 313 313 312 312 312 312 312 311 311 311 311
310 311 312 311 312 313 315 313 312 312 312 312 311 312 309 310 310 310 311 312 311 311 311 311 312 312 313 312 313 313 312 312 312 311 311 311 312 312 312 311 310 310 310 309
312 310 312 310 310 311 313 312 312 312 311 312 313 312 310 309 309 311 311 309 307 306 307 308 309 310 310 311 311 311 311 310 310 311 311 311 311 312 312 312 310 309 308 308
312 310 310 311 307 313 307 305 309 311 310 310 311 310 308 306 307 308 306 304 303 303 304 304 303 304 306 307 308 309 310 310 310 311 311 310 310 310 311 311 311 311 309 307
309 309 308 309 306 302 304 305 305 308 306 307 307 302 303 304 305 307 303 303 302 302 302 302 302 301 302 303 304 305 306 307 309 310 310 310 310 310 309 309 309 309 308 306
306 307 309 301 304 297 300 303 303 301 303 303 304 303 303 303 303 301 300 300 301 302 302 301 301 301 301 301 301 301 302 304 305 307 309 309 310 309 309 308 307 306 305 304
304 306 308 304 305 299 297 302 303 299 299 303 304 303 303 302 301 301 301 301 301 300 301 302 301 300 301 301 302 302 302 302 305 306 308 309 309 306 305 305 304 302 302 301
300 299 298 302 302 300 300 299 300 299 303 303 302 301 301 301 300 299 299 299 298 299 299 300 301 301 300 300 300 301 302 303 304 305 306 307 307 303 301 300 301 300 299 298
298 297 295 297 298 299 303 302 302 304 301 301 300 298 298 298 298 298 298 297 297 298 298 298 298 300 300 301 300 300 301 303 302 301 302 302 301 301 299 297 297 299 297 295
293 294 293 292 292 296 300 302 301 299 301 298 297 297 296 296 296 297 297 296 297 298 296 296 296 298 299 300 300 300 300 302 300 299 299 298 297 297 296 295 296 296 295 294
293 293 290 289 293 296 296 298 296 296 295 295 295 296 296 296 295 296 296 296 296 296 295 295 293 293 294 296 298 299 299 300 300 296 295 295 296 295 295 294 293 294 294 293
294 294 295 293 295 294 295 296 294 295 295 295 294 293 294 295 295 296 296 296 295 295 295 293 292 292 292 294 297 297 296 298 297 295 293 292 292 292 292 291 291 291 291 291

GFSCGP_850_thetae_069.txt.gz
Theta_e
310 309 308 308 307 306 307 310 311 311 312 312 310 309 308 313 312 312 314 314 314 314 314 315 315 315 315 316 316 317 319 321 324 326 328 329 330 331 332 331 330 328 329 329
308 308 308 307 308 310 311 311 311 311 312 311 310 309 308 309 310 312 313 313 314 314 314 314 314 315 315 315 315 315 316 317 320 323 324 326 327 329 330 331 331 332 326 330
308 309 307 309 309 309 310 310 310 310 310 308 307 305 305 307 309 312 313 313 312 312 314 315 314 314 315 316 316 316 316 316 316 318 324 326 328 329 330 330 330 330 325 330
309 310 308 310 311 309 311 309 309 311 309 308 307 306 306 307 306 306 311 311 311 313 315 315 316 315 315 315 315 316 316 316 316 317 320 322 324 326 325 326 327 328 328 328
310 310 310 311 311 309 311 310 309 310 309 311 310 308 306 305 309 306 308 312 315 315 316 316 316 316 316 315 315 316 316 315 316 317 319 320 323 323 325 327 328 328 327 328
310 310 310 309 310 310 308 308 307 308 306 307 308 306 304 305 307 310 311 313 314 314 314 315 315 315 316 316 316 316 316 315 315 316 318 320 321 322 323 324 325 326 326 326
311 311 310 310 310 311 308 306 306 307 308 307 306 307 306 306 306 307 307 311 313 314 314 314 314 314 314 314 314 315 315 315 315 315 316 317 317 318 320 321 321 322 322 320
311 313 311 310 310 311 308 307 307 306 307 306 307 310 309 307 308 309 310 312 314 314 314 315 315 315 314 314 314 314 314 314 315 315 315 314 314 314 314 314 314 314 314 314
309 309 309 309 309 310 311 308 306 306 294 305 306 306 306 306 305 311 313 314 314 314 314 314 314 314 315 315 315 314 314 314 314 315 315 315 314 314 314 314 314 314 314 313
308 309 309 309 309 309 309 308 310 306 304 304 305 307 306 309 309 310 310 312 313 314 314 314 314 314 314 314 314 314 314 314 314 314 314 314 314 314 314 314 314 314 314 314
306 309 310 309 309 310 310 310 308 308 306 306 304 305 303 307 309 308 310 313 313 313 314 314 314 314 313 314 313 314 314 314 314 314 314 314 314 314 314 313 313 313 313 313
308 308 308 310 307 307 308 309 308 308 308 306 307 308 305 308 308 310 311 312 313 314 313 313 314 314 314 314 314 313 313 313 313 313 313 313 313 313 313 313 313 313 313 312
309 308 307 311 309 308 309 308 308 306 306 308 309 308 305 306 306 309 310 310 311 312 312 313 314 314 314 314 314 313 313 313 313 313 313 313 313 313 313 313 313 313 312 312
310 308 309 312 311 308 309 308 307 309 308 310 308 308 307 305 307 309 310 311 310 311 313 313 313 313 313 313 312 312 312 312 312 312 311 311 311 311 311 311 312 312 312 312
311 309 311 312 312 312 312 310 311 308 310 310 310 307 307 307 308 310 310 310 312 312 312 312 312 312 312 312 312 312 311 311 311 310 310 310 309 310 310 311 311 312 312 311
310 311 311 311 312 313 314 312 311 311 312 311 312 312 308 311 311 310 310 309 308 308 308 309 309 310 310 311 311 311 311 311 310 309 309 309 309 309 310 310 311 311 311 311
312 311 310 313 311 312 314 311 311 311 310 311 313 311 308 309 309 310 310 308 305 304 304 304 303 303 303 305 306 308 308 307 306 306 306 307 308 308 309 310 310 310 310 311
311 310 309 308 310 313 308 305 309 310 310 310 310 309 308 308 307 306 304 303 303 302 302 302 301 301 301 301 301 302 302 302 302 303 303 303 304 304 305 307 308 308 309 309
309 309 308 310 311 305 305 303 307 309 308 308 309 302 303 304 304 304 302 301 301 301 301 301 301 301 301 301 300 300 300 300 300 300 301 302 302 303 303 304 306 307 308 307
307 308 309 302 308 304 302 302 304 302 304 303 303 302 302 303 302 300 302 301 300 300 299 300 300 300 300 300 301 301 300 300 300 300 300 300 301 301 303 305 307 307 307 306
307 308 310 299 302 300 298 300 301 298 299 303 304 303 302 300 302 301 300 299 299 298 297 298 298 298 298 299 300 300 300 300 300 300 300 300 302 303 304 305 306 305 304 303
307 306 305 304 304 304 300 300 300 299 302 303 302 301 300 301 300 298 297 297 297 297 296 297 297 297 296 296 298 299 299 300 300 300 300 300 301 304 304 303 303 302 300 299
298 298 297 300 302 298 299 301 301 303 302 301 300 298 297 297 297 296 296 296 296 296 296 296 296 295 295 295 294 294 294 295 297 299 299 299 299 301 301 300 300 301 299 297
292 293 292 293 291 297 300 302 302 300 299 298 296 295 295 295 295 295 295 295 294 295 296 295 295 294 294 294 294 293 293 293 295 297 297 298 299 299 298 297 295 294 294 296
293 293 289 289 291 296 298 301 298 296 296 295 294 294 294 294 294 294 294 294 295 296 295 295 294 293 293 293 293 292 292 292 292 295 296 296 297 296 295 295 294 293 292 291
293 293 294 293 295 295 296 297 295 294 294 293 293 293 293 293 292 293 293 294 294 294 294 294 293 292 292 293 293 292 291 292 291 293 296 295 294 293 292 291 291 290 289 289

GFSCGP_850_thetae_072.txt.gz
Theta_e
309 307 308 308 306 305 305 307 309 310 310 311 309 308 307 312 310 311 313 314 313 314 314 314 314 314 315 316 317 318 319 321 325 329 331 332 331 330 329 329 330 330 330 328
307 307 306 306 307 308 308 309 310 310 310 311 309 308 307 308 309 312 312 312 312 312 313 312 313 313 314 315 315 316 316 317 319 322 323 326 326 327 327 328 330 331 330 330
307 308 306 307 307 309 309 308 309 310 309 306 305 305 304 305 307 309 310 310 310 310 312 312 313 313 313 314 315 315 315 315 316 317 321 324 326 325 325 326 327 328 330 330
308 307 307 308 308 306 308 308 308 310 308 308 306 305 305 305 304 306 309 311 312 313 314 315 315 314 314 314 314 315 315 314 314 316 319 320 321 322 321 322 324 326 328 330
308 308 308 310 310 308 309 308 308 308 308 310 309 307 306 303 308 308 310 311 312 313 314 314 314 314 315 315 314 314 315 315 315 314 316 318 320 321 322 323 324 326 327 329
309 309 309 309 308 308 306 306 305 305 304 306 307 306 305 305 307 308 307 309 312 313 313 313 314 314 314 314 315 315 315 315 314 314 314 316 317 319 322 323 324 325 327 328
310 310 310 310 309 309 306 305 306 307 307 306 305 306 305 306 305 306 307 310 313 314 314 314 314 314 314 314 314 314 315 315 315 315 315 316 318 320 321 321 321 322 323 324
311 312 310 309 309 310 306 306 307 306 305 305 306 308 307 306 306 307 310 312 313 314 314 314 314 314 314 314 314 314 314 314 314 314 314 314 314 314 314 314 314 314 314 314
309 308 309 309 308 310 309 307 304 304 292 304 305 304 305 304 308 309 311 312 313 313 313 314 314 314 314 314 314 314 314 314 314 313 313 313 314 314 313 313 313 313 313 313
308 309 308 308 309 309 308 306 309 304 302 304 303 305 304 309 310 308 309 310 312 312 313 313 313 313 313 313 314 314 314 314 314 313 313 313 313 313 313 313 313 313 313 313
306 309 309 309 309 308 308 308 306 306 305 305 303 304 301 308 307 307 308 311 311 312 312 313 314 314 314 314 314 313 313 313 313 313 313 313 313 313 313 313 312 312 313 312
307 308 310 309 307 306 307 307 306 306 307 303 305 305 305 305 307 309 310 311 312 311 311 313 313 313 313 313 313 313 313 313 313 313 313 313 313 313 313 313 313 313 313 313
307 307 305 310 309 307 308 307 305 305 305 307 306 306 304 305 307 309 310 311 312 311 312 313 313 313 312 312 312 312 312 312 312 312 312 311 310 310 309 309 309 310 310 311
309 307 307 309 309 308 309 307 306 308 308 308 307 307 307 305 305 308 309 310 310 312 312 312 312 312 311 311 311 311 311 311 311 311 310 310 309 309 309 308 308 308 310 311
309 308 310 312 309 308 308 307 306 308 308 309 308 307 309 307 303 308 309 310 311 311 311 310 310 310 309 309 309 308 307 306 306 306 305 305 305 305 306 306 306 307 308 309
310 310 310 310 311 312 313 310 307 308 310 310 310 309 307 309 309 308 309 310 310 309 307 306 305 304 304 304 303 303 303 302 302 302 301 301 302 302 303 303 303 303 304 305
312 309 307 308 310 312 311 310 309 309 309 309 311 310 307 308 308 309 307 305 304 304 303 302 302 301 301 301 301 301 301 300 300 301 301 301 301 301 301 301 302 302 302 303
312 310 311 309 312 317 310 303 309 311 310 309 309 308 307 308 309 309 306 304 302 302 302 301 301 301 301 301 301 301 301 300 301 300 301 301 301 301 300 300 300 300 300 301
310 310 309 311 312 307 306 304 307 309 309 308 310 304 306 305 304 302 301 301 301 300 300 300 300 300 300 299 299 299 299 299 299 299 299 299 299 300 300 300 300 300 301 302
309 308 310 304 310 307 305 302 305 303 304 303 308 302 301 302 302 301 300 300 300 299 299 298 298 297 297 297 297 297 297 297 298 298 298 298 299 299 299 299 300 300 301 303
310 309 309 307 306 301 299 299 301 302 303 301 304 303 302 300 302 303 301 299 298 298 297 296 296 296 296 296 296 296 296 296 295 295 296 297 298 298 298 298 298 298 299 301
310 310 311 305 306 308 300 299 301 299 300 303 303 302 301 301 301 300 298 297 296 296 296 295 295 295 295 294 294 294 294 294 294 294 294 294 293 294 296 297 297 298 299 299
303 303 302 304 304 297 298 300 300 302 303 301 301 299 298 298 296 296 295 295 294 294 294 294 294 294 294 294 294 293 293 293 293 293 293 293 294 293 294 296 297 298 297 297
293 293 295 297 291 296 299 301 302 302 301 299 297 296 296 295 294 294 294 294 293 293 293 294 295 294 294 294 293 292 292 292 292 293 293 292 293 293 293 295 296 296 296 295
293 293 288 289 290 296 300 300 299 298 297 296 295 295 294 294 293 293 292 292 292 293 293 293 293 293 293 292 292 291 291 290 290 290 290 291 291 292 292 294 294 294 294 292
292 293 295 295 295 299 300 300 297 296 296 295 294 293 293 292 292 291 291 291 291 292 292 291 291 291 291 291 291 291 290 289 289 289 289 290 290 291 291 293 294 291 291 289

GFSCGP_850_thetae_075.txt.gz
Theta_e
309 308 309 308 305 304 304 305 307 308 309 310 309 307 307 311 310 312 314 314 313 313 313 313 314 314 315 316 318 319 320 320 323 326 328 331 331 331 331 330 330 329 330 328
307 307 307 305 305 305 306 307 309 309 309 309 308 309 307 307 309 310 310 311 311 311 311 312 312 313 313 314 314 316 317 319 319 320 322 326 327 328 328 329 329 329 329 329
307 307 305 306 307 308 308 307 308 309 307 305 304 305 304 304 306 307 307 308 308 309 311 312 312 313 313 313 313 314 314 315 317 318 320 323 326 327 327 325 324 324 327 329
307 306 305 305 307 306 309 307 307 308 307 307 305 306 305 305 304 306 309 310 311 312 313 313 313 312 313 312 312 314 314 313 314 317 318 319 320 321 320 321 321 322 325 327
307 306 307 307 307 305 307 306 307 306 307 308 308 307 306 303 307 309 306 310 311 311 312 313 313 314 314 314 314 313 313 314 313 313 314 316 319 319 320 322 322 323 325 326
309 308 308 308 306 307 305 305 304 304 304 307 307 305 305 305 306 307 306 309 312 312 313 313 313 313 313 314 315 315 313 313 313 313 313 314 316 318 320 321 323 324 325 326
309 310 309 308 308 307 305 305 307 308 307 307 303 305 306 305 305 305 306 311 312 313 313 313 313 313 313 313 314 314 314 314 314 314 315 316 318 319 320 321 321 321 320 319
310 311 309 308 308 309 305 306 307 307 306 306 305 307 307 304 306 306 310 311 312 312 312 312 313 313 313 313 313 313 313 313 313 314 314 314 315 315 314 314 314 313 313 313
308 308 308 308 308 309 308 307 304 304 292 303 305 304 303 306 307 308 309 310 311 311 312 312 313 313 313 313 313 313 313 313 313 313 313 313 313 313 313 313 313 313 313 313
308 309 308 308 308 307 307 304 308 304 303 304 302 303 304 309 308 306 307 309 311 311 312 312 313 313 313 313 313 313 313 313 313 313 313 313 313 313 312 312 312 312 312 312
305 309 309 308 309 308 307 307 305 305 305 305 303 304 300 306 306 306 307 310 311 312 313 313 313 313 313 313 313 313 313 313 313 313 312 312 312 312 312 312 312 312 312 312
306 308 310 310 307 306 307 307 306 307 306 302 304 305 304 305 306 307 308 309 310 311 312 312 312 312 312 312 312 312 312 311 311 311 311 311 310 309 309 309 308 308 308 309
307 308 308 311 309 306 307 306 304 303 305 305 306 305 303 305 306 307 308 309 309 310 311 311 311 311 311 311 311 311 311 311 311 311 311 310 310 310 309 309 308 307 306 306
308 306 308 309 308 307 308 306 305 307 307 306 306 307 306 305 305 308 309 308 309 310 310 311 311 310 310 310 309 309 308 308 307 307 306 306 305 305 304 304 304 304 303 303
308 308 307 310 307 307 307 306 305 307 307 308 306 307 308 307 304 308 309 309 310 310 310 310 309 308 307 306 305 304 304 303 302 302 302 302 302 302 302 302 302 303 302 302
308 306 309 309 310 311 310 306 307 308 306 308 304 306 306 309 307 308 309 309 310 309 308 307 305 303 302 302 302 302 302 302 301 301 301 301 301 301 301 300 300 300 300 300
309 307 304 304 310 310 308 309 307 307 306 308 309 307 306 305 305 307 309 309 308 306 304 303 302 301 301 301 301 301 301 300 300 300 299 299 299 298 298 298 298 299 299 299
310 308 307 310 309 313 309 305 307 309 308 307 308 307 307 307 308 308 309 308 305 303 302 301 301 301 300 300 300 299 299 298 298 298 297 297 297 297 297 297 298 298 298 298
310 311 310 313 314 309 308 304 307 310 310 308 308 305 306 305 304 302 304 303 302 301 301 301 300 299 298 298 298 298 297 297 297 297 296 296 296 296 296 296 296 296 297 296
309 309 313 307 313 315 308 303 306 305 307 304 308 305 303 304 306 301 300 300 300 299 299 298 298 298 297 297 296 296 295 295 295 294 294 294 295 295 295 295 295 294 294 295
310 309 312 310 308 304 300 300 304 308 306 301 307 305 303 301 304 304 300 299 298 297 297 296 296 296 295 294 294 294 294 294 293 293 293 293 293 293 293 293 294 294 294 294
311 311 308 307 308 312 299 299 305 302 300 303 305 305 303 302 302 301 299 297 296 296 296 295 295 294 294 294 294 294 294 293 293 292 292 292 292 292 292 293 293 293 293 293
306 307 307 308 308 298 298 300 301 301 303 303 304 303 303 301 300 298 296 296 296 295 294 293 293 293 293 294 293 293 293 292 292 292 292 292 292 291 290 290 291 291 292 292
294 293 301 303 296 295 299 300 301 302 303 303 302 301 300 299 297 296 295 295 294 293 292 292 292 293 292 292 291 291 291 291 291 290 290 289 289 289 289 289 289 289 290 291
294 294 290 290 291 295 299 301 301 301 301 301 298 298 296 295 295 294 293 293 292 291 291 291 291 290 290 290 289 289 288 288 288 288 288 288 288 288 288 288 288 289 290 290
292 294 297 298 296 299 300 301 301 301 299 298 297 295 294 294 293 293 292 291 291 290 290 289 289 289 288 288 288 288 288 288 288 288 288 288 288 288 287 287 288 289 290 290

GFSCGP_850_thetae_078.txt.gz
Theta_e
311 315 315 314 314 311 313 311 312 310 310 312 313 313 314 313 312 314 314 314 313 313 313 313 313 313 314 317 319 320 323 324 328 328 330 331 330 330 330 330 329 329 329 329
313 313 314 308 308 309 311 311 312 312 310 312 312 314 315 313 313 312 312 312 311 311 311 312 312 312 313 314 315 317 319 321 324 324 326 328 329 329 329 330 330 330 330 330
313 311 308 309 309 310 311 312 312 313 310 309 310 313 311 308 308 307 309 308 308 309 310 311 311 311 311 312 313 314 315 318 320 322 325 326 328 327 327 326 327 327 328 331
311 306 309 310 311 312 312 310 311 312 313 313 309 312 313 310 310 311 311 311 310 311 312 312 311 311 312 312 312 312 312 313 316 320 322 322 323 322 322 323 324 325 325 326
310 308 309 311 311 310 311 310 311 311 314 313 312 312 313 308 312 312 310 310 310 311 312 312 313 314 314 313 312 311 312 312 312 313 316 319 321 322 323 324 324 325 325 325
310 307 309 310 307 309 308 311 311 311 313 313 313 312 312 311 310 311 309 311 311 311 312 312 312 313 314 314 314 313 312 312 312 312 312 314 316 319 321 322 323 324 324 324
311 310 310 309 310 309 310 313 313 313 314 313 307 310 313 308 308 309 310 311 311 311 311 312 312 313 313 314 314 314 313 312 312 312 313 314 315 317 319 320 321 322 322 320
312 312 311 310 312 312 313 312 314 314 312 312 307 312 313 307 306 306 309 310 310 311 311 312 312 312 312 313 313 313 313 313 314 314 315 315 316 316 316 315 314 314 313 313
311 310 309 308 309 311 310 310 308 309 302 313 311 311 310 309 309 309 310 310 310 309 310 311 312 312 313 313 313 313 313 313 312 312 312 312 312 312 312 312 312 312 312 312
310 311 309 309 309 308 310 308 312 310 317 315 309 309 313 312 311 311 310 310 309 309 310 311 311 312 313 313 313 313 313 313 313 313 313 312 312 312 312 312 312 312 312 312
309 314 310 309 311 312 308 309 308 310 311 317 313 311 309 313 313 312 311 310 309 309 310 311 312 312 312 312 312 312 312 312 312 312 312 311 311 310 309 309 309 308 308 308
309 311 313 312 308 307 307 310 310 313 311 307 310 313 306 311 312 312 310 308 308 310 311 311 312 312 311 311 311 311 311 311 311 311 311 310 310 309 308 308 306 305 304 304
310 313 314 312 311 308 310 309 309 309 310 311 317 313 306 308 309 309 309 308 309 310 310 311 310 311 311 311 310 310 310 309 309 307 307 306 306 306 305 304 304 303 303 304
309 309 313 313 312 312 311 309 307 310 312 311 311 311 309 309 310 309 308 308 308 309 310 310 310 309 309 308 308 307 306 304 304 303 303 303 303 303 303 303 304 303 303 302
310 313 309 310 309 311 311 310 308 310 311 311 312 310 312 311 311 310 309 308 308 309 308 308 307 307 306 305 304 303 302 302 302 303 303 303 303 302 301 300 300 299 299 299
308 312 311 312 310 310 310 311 310 310 311 310 309 310 310 311 310 309 308 308 307 307 307 306 305 304 303 302 302 302 302 302 302 301 301 300 299 299 298 298 297 297 297 297
311 311 312 314 311 312 314 311 311 311 311 310 310 310 308 309 308 309 309 308 307 307 306 305 303 302 302 301 301 300 300 300 299 299 298 298 298 297 297 296 296 296 295 295
311 311 313 313 311 314 312 309 310 310 310 309 310 310 309 309 309 309 309 309 309 307 305 302 301 301 300 300 299 299 298 298 298 297 297 296 296 295 295 294 294 294 294 294
311 312 312 316 315 314 313 306 309 309 311 309 310 309 308 307 306 306 308 309 309 306 303 302 301 300 298 298 297 297 297 296 296 295 295 295 294 294 293 293 293 293 293 293
311 312 314 314 318 317 314 306 308 310 313 310 309 308 305 306 310 309 307 307 305 303 302 300 298 297 297 297 297 296 296 296 295 294 294 293 293 293 292 292 292 292 292 292
313 313 315 315 318 315 306 302 307 315 316 308 309 308 305 309 309 306 304 303 302 300 299 297 297 296 296 296 295 295 294 294 293 293 293 292 292 291 291 291 291 291 290 290
314 315 315 313 316 317 300 302 311 307 300 305 307 306 304 306 305 304 301 299 298 297 297 296 296 295 294 294 293 293 293 292 292 291 290 290 290 289 289 289 290 290 289 289
312 311 311 312 314 300 300 301 304 302 304 305 307 306 307 304 302 300 298 297 296 296 295 294 293 293 293 293 292 291 290 290 289 289 288 289 289 289 288 288 288 288 289 289
299 296 308 307 302 299 299 300 301 303 304 306 307 307 305 303 300 298 296 295 295 294 294 293 293 292 292 291 290 289 288 288 288 289 289 288 288 288 289 289 288 288 289 289
300 298 299 299 294 297 299 300 302 302 303 303 304 304 303 302 298 297 295 295 294 294 293 292 291 290 289 289 288 288 288 288 288 288 288 288 288 288 288 288 288 288 289 288
295 299 303 307 299 303 302 301 301 302 302 302 302 300 299 299 297 295 294 293 293 292 291 290 289 289 288 288 288 288 288 288 288 287 287 287 287 287 287 287 288 288 288 288

GFSCGP_850_thetae_081.txt.gz
Theta_e
313 315 315 315 316 317 317 316 315 314 313 314 316 316 315 314 314 315 316 316 316 315 315 313 313 313 317 322 328 330 332 330 331 324 328 329 329 329 328 328 329 330 330 330
314 315 315 315 312 314 315 315 315 314 313 314 315 315 315 314 315 315 316 316 315 314 313 311 312 312 313 313 318 322 328 331 330 331 324 326 327 327 328 329 329 330 331 331
314 314 313 312 312 313 314 314 315 314 313 313 313 314 315 313 311 311 311 312 311 312 313 313 311 310 311 312 313 315 322 327 332 331 331 327 331 328 327 326 326 327 329 329
314 309 312 313 313 313 313 312 314 315 314 313 313 314 315 314 312 312 313 313 313 313 312 312 312 311 310 310 311 311 315 322 327 330 330 328 324 324 324 325 324 325 324 326
312 310 312 313 314 313 313 313 315 315 315 314 314 313 316 312 312 314 314 314 314 313 313 313 312 312 312 312 312 311 311 314 321 324 326 324 325 325 327 331 329 331 327 327
311 308 312 313 311 312 312 313 314 315 315 313 315 313 314 314 313 314 313 313 313 313 312 312 313 313 314 313 312 310 310 311 312 313 321 326 327 330 330 327 328 328 329 329
311 310 311 310 311 312 313 313 314 313 315 313 310 312 314 311 313 313 314 313 313 312 313 313 312 313 314 314 312 311 311 311 311 314 318 320 325 326 325 325 323 323 322 323
312 311 311 311 312 312 313 313 315 315 315 314 308 313 314 312 309 309 312 313 312 312 311 311 312 312 313 314 315 315 315 315 315 315 316 316 317 318 318 318 316 314 313 313
312 313 310 310 311 312 313 312 312 312 307 316 313 313 313 310 310 310 312 313 312 311 311 310 311 311 312 312 312 312 312 313 312 312 312 312 312 312 312 312 312 312 312 312
312 313 311 310 310 310 312 311 311 313 319 319 313 312 314 312 311 312 313 313 312 311 310 310 311 312 312 312 312 312 312 312 312 312 312 312 312 312 311 311 310 310 309 308
311 314 311 310 312 312 310 310 311 312 314 322 316 312 311 314 313 313 313 312 311 311 311 310 311 312 312 312 312 312 312 312 311 311 311 310 310 309 309 309 308 307 306 305
311 313 313 312 310 309 311 312 311 313 312 311 315 315 308 312 313 313 313 312 311 311 310 310 311 311 311 311 311 311 311 311 310 309 309 309 308 306 305 304 304 303 304 304
311 315 315 312 311 309 310 311 312 312 314 314 318 313 309 312 314 314 312 311 311 310 309 309 309 309 309 310 310 309 309 308 308 306 305 305 304 304 304 304 304 304 303 302
311 313 316 314 313 313 312 312 311 312 314 314 313 313 311 312 314 313 311 310 311 310 309 309 307 308 309 309 308 307 305 304 304 303 303 303 303 303 303 302 300 300 299 299
312 315 312 312 311 313 313 312 312 311 312 312 313 312 313 312 313 312 312 311 311 309 309 307 307 308 307 306 304 303 302 302 302 302 302 302 301 300 300 299 299 298 297 296
311 317 313 314 311 311 313 313 312 311 311 312 312 312 312 312 313 313 311 310 310 309 307 306 307 306 304 303 302 302 301 302 301 301 301 300 299 299 299 298 298 296 295 295
311 312 315 314 313 312 314 312 313 311 311 312 312 312 311 313 313 312 311 310 310 309 307 306 306 303 302 301 301 301 301 300 300 299 298 298 298 298 297 296 295 294 294 294
311 313 312 317 314 314 313 312 312 312 312 312 312 313 312 312 312 312 311 310 310 308 306 305 303 302 301 301 300 300 299 299 298 298 297 297 297 295 294 294 293 293 293 293
312 312 315 317 315 314 313 310 311 312 311 311 312 311 311 311 311 310 310 310 309 307 304 304 302 301 300 300 299 299 298 297 296 296 296 295 294 293 293 292 292 292 292 292
311 313 313 313 316 315 312 311 310 310 312 311 311 311 310 309 311 311 309 309 308 306 305 303 301 300 299 298 298 297 296 295 295 295 294 293 292 291 291 290 290 290 290 290
314 313 314 314 318 318 309 307 310 313 314 311 310 310 308 309 310 310 308 307 306 305 303 301 299 298 298 297 296 295 295 294 294 293 292 291 290 290 290 290 290 290 290 290
314 314 314 315 316 316 304 307 312 310 306 308 309 310 308 308 307 306 305 306 305 302 300 299 299 297 297 296 295 294 294 293 291 290 290 290 290 289 289 289 289 289 289 289
314 313 315 315 315 303 306 303 307 304 305 306 308 308 307 305 304 303 304 303 301 300 298 297 297 296 295 294 294 293 291 290 289 289 289 289 289 289 289 289 288 288 288 288
304 299 311 311 305 302 303 303 305 303 304 305 307 307 306 305 301 302 301 299 298 297 297 296 295 294 294 293 292 290 289 289 289 289 289 289 289 289 288 288 288 287 287 287
303 302 306 307 298 299 299 301 302 303 305 305 305 306 306 306 301 301 299 298 297 297 296 295 294 293 292 290 289 288 288 289 289 289 289 289 289 288 288 288 287 287 287 286
299 303 307 311 305 304 304 303 301 302 303 304 305 304 304 305 303 300 298 297 297 295 294 293 292 291 290 289 288 288 288 288 288 288 288 288 288 287 287 287 288 287 287 286

GFSCGP_850_thetae_084.txt.gz
Theta_e
311 312 314 313 313 315 315 315 314 314 313 314 313 314 313 313 314 314 315 314 314 314 314 314 316 326 328 331 332 332 332 328 322 322 325 326 326 326 327 327 328 329 330 331
312 313 314 314 313 314 314 314 314 313 312 313 313 313 313 313 313 314 315 316 315 315 315 314 313 314 319 323 328 331 332 332 328 323 324 325 326 326 328 328 328 329 331 333
313 314 314 313 312 313 314 314 313 314 312 313 313 311 312 312 314 313 314 314 314 314 313 312 312 311 311 313 318 325 328 332 332 330 330 330 328 326 328 327 328 329 328 329
314 312 313 312 312 312 313 312 314 313 311 311 311 308 312 309 309 310 311 312 312 312 312 313 312 311 311 310 311 317 324 329 331 332 332 331 327 326 329 329 329 328 328 329
312 311 312 313 313 312 313 313 314 314 314 313 313 309 312 309 309 310 313 313 313 313 313 313 312 312 311 310 310 310 314 325 329 331 332 332 332 329 328 326 328 330 329 329
310 309 312 313 311 312 312 313 314 314 314 310 313 309 310 309 309 311 313 314 313 313 312 312 312 313 313 312 311 310 310 320 326 328 330 329 330 329 326 326 324 324 324 326
309 310 310 310 311 311 312 311 311 311 311 312 307 310 309 310 312 310 311 313 313 312 312 313 313 314 314 313 311 310 310 315 320 322 325 327 326 326 327 327 326 326 325 326
311 311 309 310 311 311 311 310 312 313 314 310 307 308 310 308 309 312 314 313 313 313 312 312 313 314 315 314 312 311 311 311 313 316 318 320 318 321 320 320 320 317 313 312
311 312 310 310 311 311 311 311 312 308 303 311 308 309 309 307 307 311 313 312 312 312 311 311 311 312 313 315 316 316 316 316 316 317 317 316 315 313 311 311 311 311 311 311
310 311 311 309 310 310 310 309 309 310 307 312 310 311 309 309 307 309 311 312 312 311 310 310 311 311 311 311 311 311 311 311 311 311 311 311 311 311 311 310 309 308 307 306
311 313 311 310 310 310 309 308 310 311 313 314 310 308 307 310 309 309 312 313 311 310 310 310 310 311 311 311 311 311 311 311 311 311 310 310 309 308 308 307 306 305 304 304
311 311 311 311 309 308 308 310 309 311 310 308 312 311 309 308 309 311 313 312 311 310 310 310 310 310 310 310 311 311 310 310 310 309 309 308 307 305 304 304 304 304 304 303
311 312 312 311 311 309 310 309 310 309 310 309 308 308 307 310 310 312 312 311 311 311 310 310 310 310 310 310 310 310 309 309 308 306 305 304 304 304 304 303 303 302 301 300
311 313 313 312 311 310 310 309 308 309 310 309 309 311 309 311 310 312 311 311 311 311 310 310 308 309 309 309 309 308 307 305 304 303 303 303 303 303 302 301 300 300 299 298
310 310 311 311 311 311 310 309 309 309 310 309 309 309 309 309 310 311 311 311 311 310 309 309 308 308 307 307 305 304 304 303 302 303 303 302 302 300 300 299 299 297 296 295
309 309 309 311 310 311 311 310 310 309 309 308 308 309 309 310 312 312 311 311 310 310 309 309 308 308 306 305 304 303 303 302 302 302 301 300 299 299 298 297 296 295 294 294
309 309 308 306 310 309 308 310 310 310 309 309 309 310 309 309 311 312 311 311 310 310 309 309 308 306 305 303 303 302 301 301 300 300 299 299 298 297 296 295 294 293 293 293
311 310 311 309 308 309 309 308 310 311 310 309 309 309 308 310 311 312 312 311 311 310 309 308 307 305 304 302 301 301 301 300 299 298 298 298 297 295 294 293 293 292 292 292
310 310 311 313 312 310 309 308 308 309 310 309 309 309 309 311 311 312 312 311 311 311 309 308 307 305 302 301 300 300 299 298 298 297 297 296 294 293 292 292 292 292 292 292
310 310 311 312 308 308 310 309 309 308 310 308 309 308 307 310 310 309 312 312 310 310 309 307 305 303 301 300 299 298 298 297 297 297 295 294 292 292 291 291 291 291 291 291
309 307 311 309 304 308 306 307 310 308 309 309 310 310 309 309 311 311 311 311 310 309 308 306 304 302 300 299 298 298 297 296 296 295 293 292 291 291 291 291 291 290 290 290
310 309 308 305 306 310 306 307 309 308 309 310 311 310 310 310 309 310 310 310 309 307 305 305 302 299 298 297 297 297 296 295 294 293 291 291 290 290 290 290 290 289 289 289
312 310 310 310 310 304 307 305 306 306 307 308 310 311 309 308 307 308 308 307 306 305 303 301 299 298 297 297 298 298 296 294 292 291 291 290 290 290 290 289 289 289 289 289
303 300 306 310 303 302 303 304 307 308 304 305 307 309 309 308 306 306 305 304 304 303 301 299 298 297 298 299 297 296 293 292 291 290 290 290 290 290 289 289 289 289 290 289
302 301 304 303 297 299 302 304 304 304 304 305 306 307 307 307 303 304 303 303 302 300 298 297 298 298 296 296 294 292 291 290 290 289 289 289 289 289 289 289 289 289 289 289
298 303 307 310 305 305 304 303 303 303 304 305 306 305 304 305 304 302 302 302 300 298 298 297 296 295 294 293 292 290 290 289 289 289 289 289 289 289 289 289 289 289 289 288

GFSCGP_850_thetae_087.txt.gz
Theta_e
312 314 313 310 311 313 312 312 313 311 311 312 310 310 310 311 313 312 312 314 316 317 318 324 327 328 330 330 331 330 329 327 327 325 328 330 328 327 327 326 327 328 329 331
312 312 311 311 311 311 312 312 312 311 311 312 310 311 310 310 311 313 314 312 314 315 315 315 320 326 327 329 330 331 330 329 327 324 322 325 325 327 326 329 330 331 331 331
312 312 311 312 312 311 311 311 309 311 311 311 311 308 312 311 312 313 314 314 314 314 314 314 314 317 324 328 330 331 331 331 330 329 329 329 331 330 330 331 331 331 332 329
312 312 312 312 312 310 311 311 312 311 309 309 308 308 307 308 309 309 312 313 313 313 313 313 313 312 312 317 324 328 331 332 332 332 332 332 329 329 330 328 329 329 329 328
312 311 312 311 311 310 311 311 311 310 311 309 310 306 306 307 309 307 308 311 312 312 312 312 312 312 312 311 311 316 325 330 331 331 331 331 328 327 327 325 325 326 324 325
309 309 310 311 310 310 310 311 311 310 309 309 309 305 305 307 309 307 309 311 312 313 312 312 312 312 312 311 310 310 314 323 329 330 330 330 329 327 325 324 324 324 323 323
308 310 309 310 311 310 311 309 309 309 309 308 306 307 306 308 307 308 310 312 313 313 312 312 312 313 313 312 311 310 310 317 326 328 329 328 326 326 325 323 323 322 322 323
310 310 309 309 310 310 309 308 308 310 311 308 306 309 309 307 307 311 313 313 312 312 312 312 313 315 315 312 310 309 310 314 323 326 328 326 325 324 323 323 322 323 320 314
309 310 309 309 309 310 310 310 308 307 297 308 305 306 308 307 308 310 311 312 312 312 312 312 313 314 314 312 312 311 312 314 318 320 321 324 321 319 319 316 312 310 310 310
309 310 310 309 309 309 309 308 309 306 307 308 307 308 307 306 306 309 309 311 312 312 311 311 312 313 315 315 314 313 312 312 314 315 316 316 313 311 310 310 309 307 306 304
310 311 310 309 309 308 308 307 307 308 307 308 307 307 304 307 305 308 309 311 311 311 310 310 310 311 312 313 314 314 313 313 312 311 311 310 310 309 307 306 305 304 304 304
311 310 310 309 309 308 308 307 307 308 308 308 307 307 307 306 305 308 310 311 311 310 310 310 310 310 310 310 310 310 310 310 310 310 309 308 307 305 304 304 304 303 303 302
310 310 310 311 309 309 309 308 307 308 305 307 308 307 306 307 306 309 310 311 310 310 310 309 309 309 309 310 310 310 309 309 308 307 307 306 304 303 303 303 303 302 301 300
311 311 310 310 308 308 310 308 307 308 307 306 306 306 308 307 307 309 310 311 310 310 310 309 309 309 309 309 309 308 307 307 305 304 304 303 303 303 303 302 301 300 298 296
309 310 311 310 309 309 309 309 307 308 308 309 308 306 307 307 308 310 310 311 310 310 310 309 309 309 309 308 307 306 305 304 303 303 303 303 302 301 300 299 298 296 295 295
308 308 308 309 309 310 309 309 309 308 307 306 306 307 305 308 310 310 310 310 310 310 310 309 309 309 308 307 306 304 303 302 302 302 303 302 301 300 298 296 296 295 294 294
309 307 305 306 309 308 308 308 308 308 306 309 307 308 306 306 309 310 310 310 311 310 310 310 310 309 307 306 305 303 303 302 301 301 301 300 299 297 296 295 294 293 293 293
309 308 306 305 304 308 307 307 308 309 308 308 307 307 307 309 310 312 312 312 311 311 310 310 309 308 307 305 304 303 301 301 300 300 299 298 297 296 295 294 293 292 292 292
309 309 309 309 304 308 309 307 308 308 309 307 308 308 307 309 310 310 312 312 312 312 311 311 310 309 307 304 302 301 300 299 299 299 298 297 296 295 293 292 292 292 292 292
309 309 311 308 314 312 311 307 307 307 309 307 308 307 305 309 308 308 311 312 312 311 311 310 310 308 305 303 302 300 299 299 299 298 297 296 295 293 292 292 292 292 291 291
308 307 311 306 307 305 305 304 309 309 310 310 309 309 307 308 310 311 310 311 311 311 310 310 310 308 305 303 300 299 299 298 298 297 296 295 293 292 291 291 291 291 291 291
310 309 310 306 306 310 305 305 308 308 308 310 310 309 309 310 310 310 310 310 311 311 310 309 308 306 304 301 299 298 298 297 296 295 294 293 292 291 291 291 291 290 291 291
308 307 307 309 310 304 305 305 305 308 308 308 310 311 309 308 309 309 309 310 310 310 309 308 308 305 301 298 297 298 297 296 295 294 292 291 291 291 291 291 290 290 290 290
301 300 305 307 301 303 304 305 307 307 306 306 307 310 311 310 308 308 308 308 308 308 307 306 305 302 298 296 296 296 296 295 293 292 291 290 290 290 290 290 290 289 289 289
302 300 302 302 298 299 304 305 305 305 306 306 306 307 308 308 307 307 307 306 306 305 304 303 303 299 297 296 296 296 295 294 297 291 290 290 290 290 290 289 289 289 289 289
299 304 308 305 302 304 305 302 303 304 304 304 305 306 307 307 306 306 305 305 304 303 302 302 299 297 297 296 297 295 296 294 290 290 289 289 290 289 289 289 289 288 288 288

GFSCGP_850_thetae_090.txt.gz
Theta_e
315 316 317 316 313 310 312 312 313 311 310 310 310 311 308 310 310 310 312 313 317 324 325 329 329 329 330 331 331 331 332 331 332 333 330 333 334 333 334 333 331 332 331 330
315 319 315 314 312 311 311 312 312 311 311 311 309 309 308 308 310 311 311 312 314 317 321 324 327 329 329 329 329 330 330 330 330 330 330 325 331 332 332 332 332 332 330 328
317 317 315 313 313 313 311 310 309 311 310 310 309 310 310 309 310 311 311 312 313 315 316 320 324 327 329 329 329 330 330 330 330 329 330 327 331 331 330 328 329 327 327 326
315 315 315 313 314 313 311 309 310 310 309 310 307 310 306 308 308 308 311 312 312 313 315 315 317 323 327 328 330 329 330 331 331 331 331 329 327 328 327 325 325 326 325 326
313 314 316 314 314 313 311 310 310 309 308 309 309 306 305 306 308 307 309 311 313 313 313 313 314 316 319 324 327 329 330 331 332 332 332 331 329 327 325 324 324 324 323 323
311 312 312 313 312 311 309 310 308 309 308 308 308 306 305 305 307 308 307 310 312 312 312 313 313 313 312 313 316 323 328 329 330 331 330 329 328 327 326 324 323 323 322 322
311 310 309 311 311 309 310 311 310 311 310 311 306 305 307 307 306 306 308 310 310 311 312 312 312 312 312 312 311 311 311 318 327 330 328 328 328 327 325 324 322 322 322 321
313 312 308 308 312 311 310 309 309 310 310 307 305 308 308 306 307 309 309 311 311 312 312 312 312 312 311 311 311 311 310 310 318 327 329 327 328 326 325 322 321 321 319 321
311 311 308 308 309 310 309 310 306 307 297 307 305 305 306 307 309 308 309 310 312 312 312 312 312 312 313 313 311 310 309 312 318 324 328 326 325 324 322 321 321 321 319 312
308 310 309 308 308 309 308 308 310 307 309 308 305 306 307 307 307 307 308 310 311 312 312 312 312 313 314 312 311 311 313 315 320 325 327 327 325 319 319 320 315 311 309 306
309 311 311 309 309 309 308 307 307 308 308 308 306 306 303 306 307 309 309 310 311 312 312 311 312 314 315 313 313 314 315 317 319 322 323 325 322 315 311 310 308 305 304 303
310 310 312 310 308 307 307 307 307 310 308 306 307 306 304 303 304 308 309 311 311 311 311 311 311 312 314 315 314 313 314 315 316 317 318 316 310 309 307 305 304 303 303 302
310 310 311 310 309 308 308 307 307 306 305 307 309 307 304 305 304 306 310 310 311 311 310 310 310 311 312 313 314 314 315 315 314 312 310 310 307 305 304 303 302 302 301 299
310 310 311 311 310 308 309 308 307 307 307 306 306 308 307 307 305 306 309 311 310 310 310 310 309 309 309 310 310 310 310 310 310 309 308 306 304 303 303 302 301 300 298 296
309 311 309 310 308 308 308 309 307 308 309 309 308 305 306 305 305 307 308 310 310 310 310 309 309 309 309 309 309 309 309 308 307 305 304 303 302 302 302 301 299 297 296 296
306 308 308 309 309 308 308 308 307 307 307 306 305 304 303 306 308 308 309 309 309 309 309 309 309 309 309 309 309 308 307 305 304 303 303 302 302 301 300 298 296 296 295 295
308 307 306 307 308 309 310 308 308 308 305 307 306 308 303 305 306 308 309 309 310 310 310 310 309 309 309 309 308 307 306 304 302 302 301 301 300 299 298 296 295 294 294 293
308 307 305 307 306 309 309 306 307 308 308 305 306 306 305 307 310 311 311 311 311 311 310 310 310 310 309 308 307 306 304 302 301 300 301 300 299 297 296 295 294 293 293 293
308 309 307 309 303 307 308 307 306 306 308 306 307 307 306 308 308 309 311 311 312 312 312 311 311 310 309 308 307 304 302 301 300 300 300 299 298 296 296 294 294 293 293 292
309 309 310 305 308 309 307 306 307 307 309 306 307 306 304 307 307 308 310 311 311 312 311 311 310 310 310 308 306 303 301 300 299 299 299 298 296 295 294 293 292 292 292 292
310 309 313 310 307 307 305 304 309 309 308 308 308 308 306 307 309 311 311 311 311 311 311 311 310 310 310 308 305 302 301 300 298 298 297 296 295 294 293 292 292 292 291 291
310 311 310 306 308 312 304 304 309 308 306 310 308 309 309 310 310 310 310 310 310 310 311 310 310 309 309 307 304 301 300 298 297 297 296 295 294 293 292 291 291 291 291 290
308 308 309 310 309 304 304 304 305 306 306 308 309 310 309 308 309 309 309 309 309 310 310 310 309 308 307 306 304 302 299 297 296 296 295 293 292 291 291 291 291 290 290 290
301 299 305 306 299 302 305 304 305 305 305 306 307 308 309 310 311 311 310 309 309 309 309 309 309 308 307 305 303 301 298 296 296 295 293 292 291 290 291 291 290 289 290 290
302 300 301 300 298 301 303 303 305 305 304 305 306 307 307 307 309 309 309 308 308 308 308 307 307 306 305 303 300 297 296 296 295 293 291 291 294 296 290 289 289 289 289 289
300 303 305 304 303 304 306 305 305 304 304 304 305 305 306 306 307 307 307 307 307 307 306 304 304 304 303 301 298 295 295 294 293 291 296 297 295 289 289 289 289 289 288 288

GFSCGP_850_thetae_093.txt.gz
Theta_e
316 318 320 317 317 313 310 312 312 311 311 310 310 312 309 309 312 318 324 328 328 324 321 324 326 329 331 331 331 331 332 331 332 333 333 332 328 329 330 329 328 327 329 327
317 320 318 316 316 314 314 311 312 310 310 311 309 311 309 307 309 312 319 323 325 324 324 324 326 328 329 330 331 332 332 332 332 332 331 331 327 329 329 329 328 328 327 326
319 319 317 317 315 315 316 312 312 313 310 310 309 310 310 308 308 310 311 313 315 317 320 321 326 328 329 330 331 331 331 331 331 331 331 333 331 328 327 327 327 326 325 325
318 317 316 317 316 316 317 313 310 310 312 314 308 312 307 308 308 307 310 311 311 312 313 317 322 327 328 328 328 329 329 330 330 330 331 331 330 325 327 326 325 325 325 324
316 318 317 317 316 314 316 309 310 310 310 309 307 307 307 305 309 307 308 311 312 312 312 314 317 321 324 327 328 329 329 329 330 330 330 331 330 329 325 325 324 324 323 323
311 313 315 316 313 314 310 311 310 310 308 310 310 307 308 304 307 309 309 312 313 312 312 312 315 318 321 326 328 329 329 329 330 330 331 331 329 327 325 324 323 323 322 322
311 313 310 313 314 313 311 312 315 315 313 312 305 305 314 305 304 306 310 311 313 312 313 312 314 314 316 320 324 326 327 327 329 330 331 331 329 327 326 325 323 322 321 321
314 314 312 311 315 314 312 313 313 315 314 312 304 306 308 304 306 307 308 309 311 311 312 312 312 313 314 315 315 315 318 323 327 329 330 331 327 327 326 325 323 322 321 320
311 313 310 309 311 313 313 314 311 307 298 306 306 305 305 304 305 308 308 308 308 311 312 312 312 312 312 312 312 311 311 311 311 320 329 330 326 326 326 325 323 321 320 319
308 309 309 307 311 311 311 311 310 308 310 306 304 304 309 307 306 306 306 308 308 310 311 311 312 312 312 312 311 311 310 310 310 313 326 327 325 326 324 323 321 319 319 317
307 309 310 308 310 313 311 310 308 309 308 309 306 306 302 306 306 305 307 309 309 310 311 312 312 312 312 313 313 311 310 311 311 318 325 328 324 323 324 318 320 319 313 308
307 309 309 310 308 307 309 311 309 312 308 305 307 307 304 302 303 306 307 309 309 310 311 311 311 311 313 314 313 312 314 315 318 323 327 325 325 324 322 318 313 309 304 303
308 308 309 313 311 307 309 307 306 306 306 309 309 308 303 304 304 305 308 310 310 311 311 311 311 312 313 314 313 314 315 317 320 324 324 324 325 324 314 310 306 303 302 302
309 309 310 314 313 311 308 306 305 307 308 308 307 308 306 305 305 304 306 309 311 311 311 311 311 311 312 314 314 313 314 317 320 321 322 321 320 311 308 304 303 302 301 299
309 308 309 309 309 310 308 309 306 307 308 308 308 307 307 306 305 305 306 308 310 311 311 311 310 310 311 312 314 314 314 315 316 317 317 313 309 306 303 302 301 301 299 297
306 306 309 306 308 308 311 309 309 308 308 307 306 305 305 305 306 307 307 308 310 310 310 310 310 310 310 311 312 312 313 314 313 311 309 308 305 303 302 301 300 298 296 295
306 305 305 309 307 308 309 309 308 309 307 309 305 308 304 305 305 308 308 308 309 310 310 310 310 310 310 309 310 309 309 309 309 308 306 304 302 301 301 300 298 296 295 294
308 307 305 309 307 312 310 306 307 308 308 308 305 305 304 307 310 310 310 310 309 309 310 310 310 310 310 309 309 309 308 308 307 304 303 302 301 300 299 298 296 295 294 294
307 308 309 310 308 308 307 306 305 306 308 306 306 307 305 306 307 308 310 310 311 311 311 311 310 310 310 309 309 309 308 306 303 302 301 300 300 299 298 296 295 294 293 293
309 308 310 305 311 310 307 306 306 306 308 306 306 306 304 306 306 308 310 310 311 311 311 311 310 310 310 309 309 308 307 305 302 301 300 299 299 298 296 295 294 293 292 292
309 310 311 309 303 305 304 305 306 308 308 305 307 307 304 305 308 309 310 310 310 310 311 311 310 310 310 310 309 308 307 305 303 301 298 298 297 296 294 293 292 292 292 292
312 312 311 308 301 309 305 304 307 306 306 307 307 307 307 308 308 308 309 309 310 310 310 310 310 310 310 309 309 308 307 305 302 299 297 297 296 295 293 292 291 291 291 291
309 309 310 310 307 305 304 305 304 305 306 307 309 308 307 307 308 308 309 309 309 309 309 309 309 310 309 309 308 308 307 304 301 297 296 296 295 293 292 291 290 290 291 290
301 299 306 306 299 302 304 304 304 304 305 306 307 308 308 309 309 310 310 311 311 311 309 309 309 309 309 308 307 306 306 303 299 297 295 295 294 292 290 290 290 290 293 294
300 300 298 299 297 301 302 303 304 304 304 305 307 308 308 308 309 309 310 310 310 310 309 307 307 307 307 307 306 305 304 301 298 296 295 294 292 290 290 289 293 296 294 289
300 302 305 303 303 304 305 304 305 305 305 305 305 306 306 306 307 307 307 308 308 307 307 306 305 305 305 304 304 304 302 300 298 295 294 293 291 289 291 297 296 294 289 288

GFSCGP_850_thetae_096.txt.gz
Theta_e
316 320 323 322 323 322 322 322 322 311 311 311 310 311 311 310 315 323 325 326 326 327 326 329 330 331 331 333 333 332 332 331 332 332 331 330 328 328 327 327 326 327 326 325
318 322 320 318 320 316 316 318 319 311 310 310 310 310 310 306 309 315 321 325 325 325 326 327 329 331 331 331 331 332 332 332 332 332 332 331 329 328 327 327 327 327 327 326
320 320 317 318 318 316 316 318 318 313 310 309 309 311 309 308 308 310 312 318 321 322 322 322 323 328 328 329 330 330 330 331 332 332 332 332 331 328 327 326 326 326 326 326
319 318 317 318 319 318 319 315 313 311 312 318 308 315 311 307 308 305 310 312 317 320 322 321 321 323 325 323 326 328 329 330 331 332 332 332 331 330 328 326 325 325 325 324
318 319 319 318 318 316 319 312 312 312 311 310 313 308 312 305 308 308 307 311 313 314 314 315 316 319 321 324 325 327 329 330 330 331 332 332 332 331 329 327 324 324 324 323
312 312 317 318 316 315 312 313 313 312 313 315 315 309 312 310 306 309 309 312 313 313 313 312 312 313 318 322 324 326 328 328 329 329 331 331 331 331 328 325 323 323 323 322
313 314 311 315 315 312 312 316 317 318 317 318 308 307 314 309 304 307 311 313 314 314 312 312 311 312 315 319 320 323 326 328 328 328 330 330 330 330 327 326 324 323 322 321
317 317 312 313 315 315 314 317 317 319 316 314 303 309 312 305 307 308 309 311 312 313 313 313 313 312 314 315 318 321 324 327 327 328 329 330 330 329 327 327 324 324 322 321
314 315 310 310 312 313 313 316 310 308 301 309 308 306 305 303 303 305 307 308 310 312 313 314 313 312 312 314 315 318 321 323 325 326 327 328 330 329 327 327 325 324 323 321
310 312 310 309 311 312 314 313 316 311 310 309 306 305 313 307 306 304 304 308 310 311 311 312 312 312 312 313 313 315 316 316 315 316 320 326 329 331 327 325 325 324 322 320
307 308 309 309 313 315 313 315 311 312 308 309 307 306 302 308 306 306 306 310 311 311 310 310 311 311 311 312 312 312 312 312 311 311 310 314 327 330 326 324 324 323 321 318
308 308 308 308 307 307 311 312 312 316 311 305 307 307 304 302 301 304 306 307 310 311 310 309 310 311 311 311 312 312 311 311 311 310 310 313 329 325 324 323 323 321 319 318
308 308 310 312 310 307 312 309 313 311 307 311 310 309 302 303 303 305 305 307 309 309 309 309 310 311 311 311 311 311 312 311 311 312 313 321 324 324 322 322 323 317 317 312
309 307 309 311 310 308 309 313 307 312 312 312 309 308 308 309 305 305 306 307 308 309 310 310 311 311 311 311 311 313 313 313 313 318 319 322 322 322 322 320 320 315 308 302
308 307 308 309 309 309 308 309 310 309 311 310 312 308 306 306 306 305 308 307 308 310 310 311 311 311 311 311 312 313 313 314 320 319 320 321 321 320 321 320 312 306 302 300
304 306 309 307 308 307 309 307 310 309 308 308 308 306 304 306 307 306 308 307 308 309 311 311 311 311 311 311 312 313 313 314 317 318 318 319 319 320 320 311 305 301 300 299
308 305 306 306 307 308 310 309 309 308 306 309 310 309 307 304 304 308 310 308 309 310 311 311 311 311 311 310 311 312 313 314 315 318 318 318 318 317 309 304 301 300 299 297
305 306 301 305 308 313 309 306 308 309 310 310 308 305 305 306 307 309 309 309 310 310 310 310 311 311 310 310 310 311 312 313 314 315 316 316 313 307 303 300 299 299 297 295
306 306 305 311 304 306 308 305 305 305 308 306 306 306 307 306 306 307 309 310 310 310 311 310 310 310 310 310 310 310 310 311 312 313 311 309 306 302 301 299 299 296 295 294
306 307 310 307 302 306 306 305 305 305 308 306 306 306 306 305 305 307 309 310 310 310 310 311 310 310 310 310 310 309 309 309 309 309 307 305 302 300 299 299 297 295 294 293
304 304 310 309 302 301 302 304 306 306 307 305 306 307 306 305 307 307 308 309 309 309 309 310 310 310 310 310 309 309 309 309 308 307 306 302 300 299 298 297 295 294 293 292
307 308 308 300 299 308 303 303 306 306 306 306 306 306 306 306 307 307 307 308 309 309 309 309 309 309 309 309 309 309 309 308 308 307 304 300 298 297 296 295 294 292 291 291
308 305 306 309 308 305 304 303 303 305 306 307 307 307 307 306 307 307 307 308 308 309 309 309 309 309 309 309 309 309 309 308 307 306 302 299 297 296 295 294 292 291 290 290
301 299 303 305 300 302 303 304 304 305 306 306 307 307 306 307 308 308 309 309 310 310 310 309 309 308 308 308 308 308 307 307 306 305 301 298 296 295 294 292 290 290 289 290
299 300 297 297 297 301 303 303 304 304 305 305 305 306 306 307 307 308 308 309 309 309 309 309 308 308 307 307 307 306 306 305 304 303 300 297 295 294 293 291 289 289 289 290
299 301 303 303 302 304 302 303 303 304 305 305 305 305 305 305 306 305 306 306 307 307 307 307 307 306 306 306 305 305 305 303 303 302 299 296 294 293 291 290 289 288 292 296

GFSCGP_850_thetae_099.txt.gz
Theta_e
317 321 323 323 322 322 321 323 322 314 312 316 312 311 312 312 313 320 321 324 326 324 321 324 327 329 330 332 332 332 331 329 328 329 328 328 328 327 327 327 326 325 325 325
318 322 321 319 322 322 321 324 324 318 311 313 317 319 312 308 309 312 318 321 323 325 323 324 325 327 329 330 332 332 332 331 331 331 330 330 329 327 326 326 326 325 325 325
321 320 319 321 322 324 320 323 322 321 311 309 309 312 313 308 309 310 311 316 320 322 321 323 325 325 326 328 330 332 331 331 331 331 331 332 331 328 327 326 325 325 325 325
319 318 319 321 322 322 321 315 314 315 316 322 310 314 316 312 308 305 310 312 314 318 321 322 323 324 323 324 326 330 331 331 331 331 332 332 331 329 328 327 325 324 325 324
318 318 319 321 321 319 320 314 313 313 314 315 312 313 315 309 309 308 307 311 314 315 316 318 319 321 320 320 321 325 329 329 330 330 331 332 332 332 330 328 326 324 323 324
313 313 317 317 316 317 313 314 314 313 316 318 317 316 316 313 311 309 309 312 316 316 315 315 317 319 319 319 320 322 324 326 327 329 330 331 332 331 330 329 328 325 323 323
315 315 311 315 314 312 314 318 319 318 317 319 308 313 320 314 306 308 310 313 315 316 316 315 315 315 314 315 317 321 323 325 327 327 329 330 330 331 331 329 327 325 323 322
318 319 314 313 314 314 316 318 319 322 317 315 305 316 315 311 317 316 313 312 313 314 315 315 315 315 314 312 312 315 320 324 325 326 327 328 328 329 330 330 328 325 324 323
318 315 311 313 312 313 314 318 310 311 298 307 307 307 307 304 304 304 306 309 311 313 315 316 315 315 313 312 311 313 316 320 322 323 326 327 327 329 330 330 328 328 325 323
311 314 311 311 312 311 313 312 316 314 319 314 310 307 314 308 306 305 304 306 311 312 313 314 315 314 312 313 311 313 315 317 319 322 324 326 327 328 329 330 330 328 326 325
306 309 310 311 314 315 314 316 314 312 309 313 309 310 303 310 309 306 307 309 311 312 311 311 312 312 312 311 310 312 314 315 317 321 324 325 325 326 328 330 327 326 326 325
307 307 312 310 307 312 311 314 313 315 313 306 307 308 305 301 303 304 306 308 309 310 310 311 311 310 310 311 310 311 313 314 316 317 317 315 314 316 323 329 330 326 323 324
307 307 306 311 310 307 312 311 313 310 308 312 311 318 302 303 304 306 307 308 309 309 311 310 311 310 309 310 310 311 311 312 312 311 311 311 310 311 323 328 328 326 323 322
307 306 307 311 309 308 309 312 312 314 315 315 313 316 312 307 305 305 307 308 308 309 309 310 310 310 310 310 311 311 311 311 311 311 311 310 309 312 321 326 323 323 321 318
307 306 308 308 307 307 309 310 311 314 315 316 316 314 311 309 308 306 308 310 308 309 309 309 309 309 310 310 311 311 311 311 311 312 312 313 318 319 322 322 322 319 319 316
304 304 307 307 306 308 309 308 311 310 313 314 313 311 307 307 307 306 307 308 310 311 311 311 311 310 310 311 311 311 311 311 312 312 312 314 319 319 320 322 320 319 318 315
305 305 302 301 306 309 307 307 309 311 310 310 310 312 305 305 305 306 308 307 309 310 310 310 310 311 311 311 311 311 311 312 312 313 316 317 318 320 321 320 319 319 314 306
309 305 302 299 304 312 309 305 308 309 309 309 309 309 307 309 310 311 311 308 309 310 310 311 310 310 311 311 310 310 311 312 313 313 315 316 317 317 319 318 318 314 306 300
305 307 301 309 302 306 309 306 305 306 309 307 307 308 308 309 309 310 312 312 311 310 309 310 310 310 309 310 310 310 310 311 313 313 313 315 316 316 317 316 312 304 300 298
304 306 307 293 304 306 306 305 304 304 309 306 307 307 305 304 305 307 311 310 309 309 309 309 309 310 309 309 310 310 310 310 311 313 313 314 314 314 314 312 304 300 298 297
304 303 308 305 300 301 301 303 304 305 307 304 306 307 306 304 307 307 307 307 308 308 308 308 309 309 310 309 309 309 309 309 310 311 313 314 314 314 310 305 300 298 297 295
305 305 307 303 304 310 302 302 306 306 305 306 306 305 305 306 306 306 306 307 307 308 309 309 309 309 309 309 309 309 309 309 309 309 310 311 310 308 303 299 297 296 295 293
306 304 303 308 307 305 304 305 305 306 306 306 306 306 306 305 305 306 306 306 307 307 308 308 308 308 308 308 308 308 308 308 308 307 307 307 305 302 299 297 296 295 293 292
299 299 301 303 299 303 305 304 304 305 305 305 305 304 305 306 306 307 307 308 308 309 310 310 310 310 309 308 307 307 307 307 306 306 306 305 302 299 296 295 294 294 293 291
300 299 296 296 297 301 303 302 303 304 304 305 304 305 305 305 306 306 306 307 307 307 308 308 308 308 308 307 307 306 306 306 305 305 304 304 302 299 296 294 294 292 290 290
298 300 304 304 302 303 302 303 303 303 303 303 304 304 304 304 304 304 304 305 305 305 305 306 307 306 306 305 305 305 305 304 304 303 303 302 300 297 294 293 292 289 288 288

GFSCGP_850_thetae_102.txt.gz
Theta_e
319 321 323 322 322 324 325 325 326 324 317 322 323 324 320 319 315 316 319 322 326 328 327 328 327 328 329 329 328 328 328 323 320 320 321 324 325 326 326 326 327 324 325 325
320 324 322 320 321 323 324 326 326 320 315 320 324 324 325 324 322 317 316 318 322 326 327 328 326 328 327 330 330 331 331 331 327 322 325 327 327 327 327 328 326 326 325 324
321 320 321 323 323 323 325 326 326 325 317 315 311 321 323 322 323 322 315 315 318 323 324 325 323 327 327 327 328 330 330 331 331 329 329 329 329 329 329 327 325 325 325 325
320 320 321 322 325 324 323 320 321 317 321 326 317 327 326 322 323 321 315 313 315 319 319 324 320 322 324 325 327 327 329 329 330 331 331 331 330 330 329 327 325 326 325 325
320 321 322 323 323 324 321 317 318 317 318 318 319 319 326 323 321 321 321 317 314 315 316 317 318 319 320 322 322 325 327 329 330 331 331 331 331 331 330 328 327 327 326 323
316 315 320 321 321 322 314 315 315 314 317 321 323 322 327 326 322 321 320 316 314 316 316 316 315 317 319 321 321 322 324 326 328 329 330 331 331 331 331 331 329 327 326 324
317 318 313 317 317 316 317 320 321 322 322 326 313 323 324 323 323 320 320 318 315 317 317 316 315 315 317 318 319 319 319 321 325 327 328 329 331 331 331 331 330 328 327 325
320 321 316 315 319 317 317 321 322 324 324 323 312 321 321 318 319 319 313 313 314 314 314 317 317 317 315 315 316 317 317 317 321 325 324 325 327 329 330 330 331 330 329 326
319 318 313 314 314 316 315 320 314 315 305 315 318 316 314 313 313 308 313 316 314 312 313 314 315 316 316 315 316 315 315 316 318 320 323 324 326 328 329 329 330 330 330 328
317 318 312 312 313 312 317 314 319 319 325 323 321 316 319 318 317 314 311 310 313 314 314 313 314 314 315 314 315 314 313 313 314 318 321 323 325 327 328 328 329 330 331 330
316 316 312 312 315 316 315 317 317 317 319 323 322 321 315 314 314 313 311 309 309 310 311 312 312 312 313 313 313 313 312 311 311 314 320 323 324 326 327 327 328 330 331 330
310 313 315 313 309 313 316 317 317 321 319 315 316 319 309 307 306 306 308 309 309 308 309 310 311 312 311 312 313 313 311 311 311 313 317 321 321 323 325 326 327 329 330 331
310 312 313 312 310 309 315 316 316 316 313 316 321 321 306 307 309 307 308 309 310 310 309 309 309 310 311 311 311 311 311 311 311 314 318 320 322 324 325 324 327 326 328 330
309 310 315 318 316 313 314 315 316 317 318 319 319 319 318 316 313 309 308 310 312 313 310 310 310 310 310 310 310 310 310 310 311 314 316 317 318 319 319 317 322 318 326 327
311 312 310 310 311 311 315 316 315 317 318 318 319 318 317 317 317 316 312 309 311 310 311 311 310 311 310 310 310 310 310 310 311 312 312 312 312 311 311 313 315 319 324 324
307 311 311 309 310 311 312 313 316 316 317 317 317 317 316 313 310 309 309 307 308 310 312 311 311 310 310 310 309 310 310 311 311 311 311 311 311 311 311 311 316 321 324 324
309 310 313 314 310 311 314 312 314 314 315 316 318 317 315 313 312 313 312 310 308 310 312 312 312 310 310 310 310 310 310 311 311 311 311 311 311 311 310 317 320 321 321 322
311 309 312 310 309 314 313 307 312 313 313 313 314 314 313 313 312 311 311 311 312 309 310 312 313 312 310 309 310 310 310 310 311 311 312 312 315 314 317 317 319 320 321 319
310 311 309 313 315 313 311 307 309 311 312 311 312 312 311 311 311 309 309 310 310 311 310 311 310 310 309 309 309 310 310 310 310 311 312 313 314 317 318 318 318 316 317 315
309 311 314 307 315 315 310 306 305 309 311 311 310 311 311 310 309 311 311 310 308 308 308 308 308 308 308 309 308 309 310 310 310 310 311 312 313 315 316 317 317 316 314 313
310 311 313 311 315 311 308 304 306 314 314 305 306 308 308 309 309 307 306 306 307 307 308 308 308 308 308 308 308 308 309 310 309 310 311 312 312 314 315 316 316 315 312 307
310 312 313 310 313 313 304 303 310 310 305 305 305 304 304 304 304 304 305 306 306 307 307 308 308 308 308 308 308 308 308 308 308 309 309 311 312 312 313 313 314 312 308 299
311 311 313 312 314 308 304 307 306 306 305 306 306 306 305 304 305 306 306 307 307 308 308 308 308 308 308 308 308 308 308 307 307 307 308 308 310 311 312 312 311 307 299 295
305 301 311 310 306 306 305 305 304 305 305 305 305 306 306 306 306 306 306 306 307 308 308 309 309 309 309 308 308 307 307 307 307 306 306 307 307 309 310 308 305 301 297 294
306 304 304 306 302 302 303 302 303 304 304 305 304 304 304 304 304 304 305 305 305 306 306 307 307 308 308 307 307 306 306 306 306 306 305 304 304 305 306 304 301 297 295 294
300 304 310 312 304 307 303 304 303 304 304 303 304 303 302 303 302 302 302 303 304 304 305 305 305 305 306 306 305 305 304 304 304 303 303 303 302 302 301 299 296 293 292 291

GFSCGP_850_thetae_105.txt.gz
Theta_e
318 320 324 325 323 324 326 325 325 325 321 324 324 325 325 325 325 323 320 319 321 325 327 330 331 333 333 328 324 319 318 318 317 318 318 323 322 321 320 321 325 326 326 325
320 322 320 322 324 325 325 327 327 324 320 322 325 326 325 324 325 325 323 322 319 321 325 328 330 332 333 332 328 322 321 321 319 319 319 319 320 322 323 324 325 327 327 325
321 320 320 321 323 325 326 327 327 326 320 319 322 325 325 324 324 325 325 325 321 319 322 326 329 331 332 333 332 329 325 325 326 325 322 321 323 326 329 329 329 328 327 325
320 318 321 321 322 323 326 324 326 322 325 329 322 330 328 327 327 326 325 325 324 320 319 322 327 330 330 329 331 332 331 328 329 329 329 327 325 327 328 329 329 328 325 324
321 319 321 324 322 322 325 323 324 323 322 321 322 322 327 325 326 326 324 325 325 322 319 320 323 326 325 323 324 327 331 330 330 330 330 330 328 328 329 329 330 327 325 325
320 318 320 320 321 323 317 318 318 316 319 325 327 324 326 325 326 325 324 323 325 322 318 319 321 324 326 325 321 322 325 326 328 328 329 330 329 329 330 331 330 329 327 325
319 321 318 319 320 319 320 322 325 325 326 328 319 326 324 324 324 324 324 323 322 323 321 318 319 321 322 323 320 320 320 322 325 327 328 329 330 330 330 330 331 330 329 327
321 320 320 320 321 318 321 323 323 323 323 322 317 324 323 321 321 320 321 320 318 320 318 317 317 319 319 317 317 318 319 319 322 323 324 327 329 330 330 331 331 330 330 329
320 320 315 319 318 318 317 323 320 318 310 321 320 320 318 318 317 317 316 317 320 317 315 315 315 315 316 317 316 316 318 319 320 319 321 324 327 328 329 329 331 331 330 330
318 319 313 313 315 315 320 317 320 322 326 325 321 322 321 321 320 319 318 316 315 315 318 314 312 312 313 313 314 315 315 318 319 320 320 320 323 325 326 328 330 329 331 329
317 318 313 314 316 317 318 319 321 321 323 324 324 322 320 318 311 312 313 312 311 310 310 311 312 311 311 311 312 313 314 315 317 319 320 320 321 322 325 327 328 328 329 328
316 316 316 316 310 315 318 319 320 321 321 320 321 321 311 312 312 310 311 310 310 311 309 310 310 310 310 311 310 310 311 312 313 315 315 315 319 322 323 324 325 326 328 328
314 316 313 313 313 312 317 318 319 318 316 321 322 320 316 315 311 310 311 310 312 312 310 311 311 310 310 310 310 310 310 311 311 311 311 312 313 316 319 321 323 325 326 327
313 315 317 319 318 316 317 318 318 319 320 320 320 319 315 314 313 311 312 315 313 312 311 312 311 310 310 310 310 310 310 310 309 310 309 310 312 314 317 321 322 322 325 329
313 316 315 315 317 317 318 319 318 319 319 320 320 320 319 318 318 317 317 316 314 312 311 312 312 312 311 310 310 310 310 310 309 309 309 310 313 316 318 320 321 322 328 326
313 314 312 313 314 316 318 317 318 319 319 319 319 319 317 316 316 314 314 314 314 312 311 311 312 313 313 312 310 310 310 310 310 310 310 311 313 315 317 319 320 322 325 322
312 313 317 314 313 313 314 316 318 318 317 318 319 318 316 316 315 315 314 314 314 312 310 311 313 311 312 312 311 309 310 310 310 310 311 311 311 311 311 311 311 310 311 322
312 314 314 311 314 315 315 311 315 317 317 317 317 317 316 315 315 314 314 313 313 312 312 311 310 311 310 312 311 309 309 310 310 310 311 311 311 311 311 311 311 312 314 314
311 312 311 313 316 315 311 310 312 315 315 315 316 315 314 314 313 312 312 312 312 311 310 309 310 309 309 309 309 309 309 310 310 310 310 311 311 312 312 312 312 312 315 318
312 312 314 314 316 317 312 312 311 313 313 313 313 314 313 312 313 313 308 308 308 308 307 307 308 308 307 307 308 308 308 309 310 310 310 310 311 312 313 314 314 315 316 318
313 314 315 315 320 318 310 306 310 315 316 309 312 312 311 311 311 308 307 306 306 306 307 307 308 307 307 307 307 308 308 308 309 309 309 310 311 312 313 314 315 316 316 315
313 314 315 314 316 315 308 307 311 311 306 305 306 306 306 307 307 306 305 305 305 305 306 307 308 308 308 307 308 307 307 307 308 308 308 309 310 311 311 312 313 314 313 312
313 313 316 314 316 310 307 310 306 306 306 306 307 306 305 305 304 304 304 305 305 306 307 308 308 308 308 309 308 308 307 307 307 307 307 307 308 309 310 311 312 313 312 310
308 306 313 312 310 308 306 305 305 306 306 306 306 306 305 305 305 305 304 304 305 305 306 306 307 307 308 308 308 308 308 307 307 306 306 306 305 306 307 309 310 310 310 309
307 307 307 309 304 304 304 304 304 304 305 305 304 305 305 305 304 304 304 304 304 305 305 306 306 306 306 306 305 306 306 306 306 306 305 304 304 304 304 305 306 306 304 304
299 302 310 313 306 309 307 304 304 304 304 304 304 304 304 304 304 303 304 304 303 303 304 304 305 305 305 305 305 305 304 304 302 302 302 302 301 301 301 301 301 302 303 300

GFSCGP_850_thetae_108.txt.gz
Theta_e
320 321 322 321 323 323 323 324 325 323 322 322 321 322 321 323 323 323 322 320 319 322 326 328 330 331 334 332 327 319 317 315 317 321 321 320 319 318 319 319 320 321 321 323
320 321 319 319 323 324 325 327 325 323 319 322 323 323 322 322 323 324 325 325 321 319 322 326 329 330 334 333 330 322 318 317 316 317 317 317 317 318 319 320 320 321 323 324
321 319 318 320 321 325 325 326 326 325 319 319 320 322 323 322 324 324 324 325 325 322 320 323 328 329 331 333 331 325 321 318 318 318 317 318 318 319 321 321 322 322 323 325
320 318 319 320 320 325 327 324 325 322 323 327 320 328 324 324 323 322 324 324 325 325 323 320 325 328 329 331 332 330 324 319 320 319 319 319 320 320 321 322 324 325 326 327
321 318 319 320 320 322 324 323 324 323 323 322 323 324 323 322 324 324 324 324 324 325 325 321 320 324 326 328 329 330 329 325 322 322 323 323 322 321 322 323 325 327 328 328
320 318 319 319 319 320 318 319 318 317 321 326 325 323 325 323 323 322 323 325 325 325 325 324 320 321 324 325 327 329 329 328 327 326 325 326 327 327 326 326 326 327 328 328
320 319 318 319 321 319 320 323 324 326 325 327 322 324 324 322 320 320 320 322 323 323 324 325 321 319 322 325 324 325 327 327 329 329 328 327 329 329 329 329 328 328 329 328
319 321 319 318 321 320 321 322 321 323 322 320 317 321 322 321 321 321 322 321 321 320 321 324 322 319 320 321 321 320 321 321 325 327 326 327 328 330 329 329 329 329 328 327
321 321 318 319 319 319 321 323 319 317 306 317 317 318 317 316 315 316 316 316 319 320 320 319 321 319 318 320 321 322 322 321 324 324 326 326 326 327 328 328 330 330 330 329
317 319 316 316 317 318 319 317 321 318 319 320 318 318 318 316 315 314 315 316 316 315 317 318 318 316 316 316 319 322 323 323 322 325 326 324 324 326 327 329 329 330 330 330
317 317 313 315 318 318 318 320 319 319 319 321 320 318 317 314 310 311 310 310 310 310 310 312 313 314 314 313 313 313 314 317 319 322 323 325 324 324 326 327 327 329 330 330
318 317 315 318 310 313 317 319 319 320 320 318 317 317 311 307 308 309 310 311 311 311 310 311 310 310 310 310 311 310 310 311 311 313 319 322 324 327 327 327 326 328 330 331
316 316 314 314 314 313 317 317 318 318 315 318 318 317 310 308 309 310 310 311 312 313 313 311 311 311 310 310 310 310 310 310 309 310 310 313 317 320 323 323 325 327 329 330
315 315 316 319 318 316 318 318 318 319 317 317 318 317 313 310 310 309 310 312 316 315 313 311 312 312 312 312 311 310 310 310 310 310 310 310 312 318 322 325 328 329 329 328
315 314 315 314 316 316 316 318 317 319 318 318 316 317 316 311 311 313 314 315 315 315 314 312 312 312 312 312 312 312 310 310 310 310 310 310 310 310 315 325 326 326 326 327
313 314 312 311 315 317 317 317 317 318 318 317 316 316 315 316 315 314 315 316 315 315 314 313 312 311 312 311 311 312 312 309 310 310 310 309 310 309 309 310 316 323 324 323
314 310 312 315 315 315 318 317 317 317 317 317 318 317 314 314 315 315 315 314 314 313 312 313 312 311 311 310 311 311 311 310 309 310 310 310 310 310 311 311 312 314 319 322
313 311 311 313 313 317 313 314 316 317 316 316 316 316 315 315 315 315 315 314 313 313 312 311 311 310 310 310 310 309 309 308 309 309 310 310 311 311 311 311 311 311 311 311
313 311 310 313 313 312 310 309 315 316 317 315 316 316 315 315 314 314 314 312 312 311 311 311 310 308 308 307 307 307 307 307 308 309 309 310 310 311 311 311 311 311 311 311
313 312 312 313 313 312 312 308 311 312 314 312 314 314 314 314 311 309 309 308 307 307 306 307 307 307 307 307 307 307 307 307 307 308 309 309 310 310 311 311 311 312 312 312
311 311 314 313 307 309 307 307 311 311 310 309 312 313 313 310 310 309 306 307 306 305 306 306 307 307 307 307 307 307 307 307 307 308 308 309 309 310 311 311 311 312 312 312
312 313 314 309 305 310 306 307 311 309 306 308 311 311 310 309 306 306 305 305 305 305 306 307 307 308 308 308 308 308 308 308 308 308 308 308 308 308 309 309 309 311 312 312
310 310 311 309 307 308 307 309 307 307 306 307 308 307 307 307 306 305 306 306 306 306 307 307 307 308 308 308 308 308 308 308 308 308 307 307 307 307 308 308 308 309 310 311
304 302 306 304 303 305 306 307 306 307 307 307 307 306 305 305 305 305 305 305 305 306 306 306 306 307 308 308 307 307 307 307 308 308 307 307 306 306 306 306 305 307 308 308
301 305 302 303 300 303 305 306 306 306 307 306 306 306 305 306 305 305 304 304 304 304 304 304 305 305 306 305 306 306 306 306 305 305 306 306 305 305 304 303 303 302 304 305
290 291 301 303 296 301 305 304 304 305 305 305 305 304 304 304 303 302 302 301 302 303 303 303 304 303 304 304 304 304 304 304 304 303 303 302 302 302 302 302 302 302 302 302

GFSCGP_850_thetae_114.txt.gz
Theta_e
319 320 322 319 317 318 317 319 320 319 318 316 317 319 317 320 318 320 320 318 319 322 321 323 325 326 326 328 330 332 332 330 329 331 330 329 327 321 318 315 315 317 317 318
319 322 318 317 318 320 320 322 320 319 318 316 317 317 317 316 317 319 320 321 320 318 320 322 326 328 327 325 326 330 331 331 330 330 329 328 326 322 318 316 316 317 317 317
320 319 318 317 318 320 320 320 322 321 319 317 319 319 319 317 319 320 320 320 321 320 320 321 322 325 327 327 327 323 328 331 330 328 328 329 327 327 324 320 319 318 318 318
319 317 318 317 318 318 319 318 321 322 321 322 318 324 320 320 319 317 320 321 321 322 322 323 323 322 323 325 326 326 324 327 331 327 323 324 323 324 320 319 317 317 318 318
320 318 319 319 318 317 318 318 320 321 321 322 322 323 320 319 319 319 320 321 322 322 322 323 323 323 322 322 322 323 325 324 327 330 323 317 320 320 321 320 319 318 317 318
317 318 317 317 316 316 316 318 318 317 321 326 322 323 321 321 320 319 319 321 323 323 323 323 324 323 324 322 322 322 324 325 324 327 330 321 316 317 320 320 319 319 319 319
316 316 317 317 318 316 319 320 322 324 324 321 317 320 321 319 317 319 320 321 322 322 322 323 323 323 324 323 321 322 324 324 324 324 326 328 322 318 317 317 318 318 318 319
314 315 316 317 318 318 318 320 318 322 321 318 317 323 321 317 320 320 321 320 321 321 321 321 322 323 324 324 324 322 322 323 324 324 324 325 327 325 322 319 319 319 319 320
318 318 314 315 317 317 317 320 317 314 300 313 316 315 313 313 315 318 318 319 320 321 321 320 321 321 323 324 324 323 322 322 323 323 324 324 324 325 324 325 324 321 321 322
313 316 315 315 316 316 318 317 321 319 317 316 314 314 318 315 316 317 314 316 319 318 316 317 319 320 320 321 322 322 322 321 320 321 321 322 324 325 325 327 327 326 326 326
312 314 313 316 318 318 318 319 319 318 314 317 315 315 310 315 315 316 313 315 315 315 315 315 317 317 317 319 321 321 321 322 322 322 322 324 325 325 326 327 327 327 328 328
313 313 313 315 314 313 317 318 319 320 319 314 314 316 311 306 307 311 310 311 311 311 311 310 311 314 316 315 315 317 318 319 321 323 325 326 327 327 328 328 328 329 329 329
314 315 315 317 315 313 316 317 318 318 312 317 320 317 308 305 306 308 308 309 310 311 312 312 312 311 310 310 311 312 313 313 314 317 321 323 325 327 328 329 330 330 331 331
314 312 315 316 317 316 318 318 317 318 318 318 316 316 313 307 306 306 309 310 312 314 314 314 314 313 312 313 312 312 312 311 310 310 310 310 311 313 317 321 325 328 327 326
314 315 313 313 313 316 317 318 319 319 318 318 317 316 315 309 305 307 311 311 311 314 314 314 313 312 312 312 312 312 312 312 312 311 309 309 309 309 309 309 311 317 322 323
311 314 314 314 313 314 315 317 318 318 318 319 317 314 314 314 310 308 309 310 311 314 314 313 312 311 312 312 312 312 312 312 312 312 311 309 309 309 309 309 309 309 314 319
307 309 313 314 312 314 316 315 317 316 317 318 318 317 310 311 309 309 310 310 310 311 314 312 311 312 312 312 311 311 311 311 312 311 311 309 309 309 309 309 309 310 313 318
305 306 305 307 314 317 314 312 314 317 317 317 316 315 314 313 314 314 314 311 313 314 313 313 312 312 311 311 310 310 309 309 310 309 309 309 309 309 310 310 310 310 310 311
304 306 305 307 314 313 311 309 314 316 317 315 315 315 314 313 313 314 314 314 314 313 312 311 310 310 309 309 308 307 307 307 307 307 308 308 309 309 309 310 310 310 310 310
305 306 307 309 316 318 313 308 314 313 318 315 315 315 314 313 313 314 313 313 313 312 311 311 309 308 307 307 307 307 307 306 306 307 307 307 308 309 309 309 309 310 310 309
310 309 309 310 315 310 307 307 314 318 316 313 314 314 314 313 315 315 314 313 312 312 310 308 307 307 307 307 307 307 307 307 307 307 307 308 308 308 309 309 309 308 309 308
312 314 313 313 314 315 304 312 315 312 306 308 310 313 314 314 314 314 313 311 311 310 307 306 306 306 307 307 307 307 307 307 307 307 307 307 307 307 308 308 307 307 306 306
311 312 311 313 312 304 308 305 309 307 307 308 308 310 312 314 312 312 311 309 307 306 305 305 305 306 307 307 306 306 307 306 306 306 306 306 306 306 306 306 306 305 304 304
305 297 308 308 301 298 301 304 304 305 307 307 308 309 311 312 311 309 305 304 304 304 304 305 305 306 306 305 305 306 306 305 305 305 305 305 305 305 305 305 304 304 303 302
289 291 295 302 296 298 300 298 299 303 304 306 307 308 308 310 305 305 303 302 303 303 303 303 303 304 304 304 304 303 303 303 303 303 304 303 303 303 303 303 302 302 302 301
280 280 288 295 285 286 294 289 296 300 301 302 305 305 305 305 304 303 302 301 301 302 301 301 302 303 302 301 301 302 302 302 302 302 303 303 303 302 302 302 301 300 299 299

GFSCGP_850_thetae_117.txt.gz
Theta_e
319 320 322 319 316 318 316 318 319 318 318 316 316 318 319 319 318 319 320 320 320 322 321 321 324 326 326 324 328 330 331 331 331 331 331 331 331 329 328 317 315 314 315 315
319 321 318 316 317 319 319 320 320 317 317 315 316 316 315 315 317 318 319 320 321 321 319 320 322 324 326 325 323 327 328 331 331 331 330 331 331 329 328 324 317 316 315 316
319 318 318 317 317 319 319 319 320 321 317 316 317 318 318 316 317 317 318 319 320 321 321 321 321 321 323 326 325 324 323 326 331 331 329 329 331 330 329 327 322 317 315 316
317 316 318 317 318 318 320 316 319 320 321 321 317 321 317 318 317 316 319 319 320 320 320 321 321 320 320 322 324 325 325 324 326 331 331 330 329 330 328 324 323 320 317 316
316 316 318 318 317 316 319 317 318 319 320 320 321 322 318 317 318 317 318 319 320 322 321 322 321 321 321 322 323 323 323 325 326 325 331 330 329 329 327 325 322 323 320 318
316 317 316 316 315 316 315 317 317 315 318 321 319 320 319 319 318 317 318 320 321 321 322 322 322 322 322 322 323 323 323 323 325 327 326 329 330 328 324 321 318 320 321 320
317 317 316 317 317 315 318 318 322 323 322 318 312 318 319 316 315 315 317 319 320 321 322 322 322 322 322 322 322 322 323 322 323 324 327 325 326 329 328 321 316 317 317 318
317 316 315 316 318 318 318 319 319 320 320 317 314 319 317 315 318 318 319 320 321 321 322 321 321 321 322 323 323 323 323 323 322 323 324 325 325 325 327 328 325 319 316 316
312 314 313 313 315 316 317 320 316 317 300 311 314 315 314 312 312 316 318 319 319 320 321 321 321 321 321 322 323 323 323 324 322 321 322 324 324 324 324 323 326 325 324 322
312 317 314 312 315 315 317 316 320 319 320 316 314 313 317 315 314 314 316 316 318 319 320 320 320 320 320 320 321 322 323 323 323 323 323 322 323 323 324 325 325 324 323 325
312 313 309 316 316 317 318 318 319 318 315 316 315 315 309 314 313 314 314 315 316 317 319 318 317 316 318 318 319 320 321 322 322 323 324 325 324 323 324 325 326 326 326 327
311 312 309 311 314 314 315 317 318 321 317 315 313 317 309 309 307 308 311 313 315 315 316 314 313 315 316 316 316 319 321 322 322 322 323 325 325 326 326 326 327 328 328 328
311 312 313 309 311 312 317 317 317 317 314 317 315 318 309 304 304 310 309 311 311 310 310 310 310 309 310 313 314 314 315 317 319 321 323 324 325 326 326 327 327 328 328 328
311 309 309 310 307 310 314 315 316 318 320 318 317 317 314 311 307 306 308 309 309 310 311 311 311 311 311 311 310 310 310 310 310 311 313 316 319 322 324 325 326 326 330 324
312 313 311 311 310 312 314 313 314 316 317 318 319 316 316 313 310 311 310 308 309 312 313 313 313 313 313 313 312 312 312 312 312 311 310 309 309 309 309 309 311 313 317 322
310 310 311 312 312 311 313 313 315 315 315 314 316 317 315 314 314 311 309 308 309 312 314 314 313 312 312 312 312 312 312 312 312 312 311 311 310 309 309 309 309 309 309 309
307 308 308 307 310 309 313 312 312 314 315 317 318 317 314 312 310 311 312 311 310 311 313 314 314 312 312 312 312 312 311 311 311 311 311 310 310 309 309 309 309 309 309 310
303 301 298 298 302 308 308 309 311 312 313 314 316 316 316 315 315 314 315 315 312 312 311 313 313 312 312 312 312 311 310 310 309 309 309 309 309 309 309 309 309 309 310 310
303 302 297 296 293 305 304 305 310 311 313 312 312 313 314 315 314 313 315 315 315 315 313 311 312 312 312 311 310 310 308 307 307 307 307 308 308 308 309 309 309 310 310 310
303 303 302 292 296 302 304 308 311 311 314 311 311 312 313 312 314 315 315 315 315 314 311 313 313 312 310 309 308 307 307 307 306 306 307 307 307 308 308 309 309 309 309 309
305 305 304 302 299 301 304 306 311 315 314 312 313 313 313 313 315 315 315 315 314 313 313 313 311 309 307 307 307 307 307 306 306 306 306 307 307 308 308 308 308 308 307 306
305 306 306 305 305 306 306 308 313 312 310 308 309 313 314 314 314 314 314 314 313 312 311 309 308 306 306 306 306 306 306 306 306 306 307 307 307 307 307 307 307 307 306 304
306 307 308 307 306 303 304 300 301 300 303 305 306 309 313 314 314 314 314 312 310 309 308 306 305 306 305 306 306 306 307 307 306 306 306 306 306 306 306 306 306 306 305 305
303 291 304 306 299 293 294 297 297 296 298 301 305 306 307 308 311 310 309 307 305 305 304 304 304 305 306 306 306 306 306 305 305 305 305 305 304 305 304 305 305 304 304 303
288 286 289 300 293 292 295 291 288 293 296 301 302 305 307 308 307 307 305 304 303 303 302 302 303 304 304 304 304 304 304 304 303 303 304 304 304 304 304 304 303 303 302 302
278 277 284 292 280 280 283 287 284 286 288 296 299 301 302 302 304 303 302 301 301 300 300 301 302 302 302 302 302 302 301 301 301 302 302 302 302 303 303 302 302 301 301 300

GFSCGP_850_thetae_123.txt.gz
Theta_e
319 321 321 319 315 315 314 317 318 316 315 316 315 315 316 316 317 317 318 320 320 319 319 320 320 322 323 326 327 325 326 327 328 330 330 329 329 330 330 329 330 328 317 313
318 321 316 314 316 318 316 317 318 315 315 316 316 317 317 315 316 317 318 319 319 320 322 321 321 321 321 321 323 326 324 323 324 326 329 330 329 330 330 329 329 330 329 322
320 318 316 316 316 318 317 321 319 319 316 315 313 315 315 314 315 318 318 318 317 318 319 320 320 321 321 321 321 323 325 325 324 324 326 329 330 329 330 330 330 330 330 329
319 317 317 317 317 317 321 316 318 319 320 321 315 320 316 314 314 313 316 317 318 318 318 317 317 320 321 321 321 321 321 324 324 324 324 325 327 329 329 329 330 331 330 330
316 315 318 319 318 316 319 315 317 317 319 318 317 321 317 314 314 313 314 317 317 317 317 318 317 318 318 320 321 321 321 320 322 325 324 323 323 322 326 328 329 330 330 330
314 314 315 314 314 314 313 315 315 315 317 322 317 317 315 313 312 313 314 316 316 317 318 319 318 318 319 319 320 321 321 321 321 320 323 325 323 323 323 323 324 327 329 329
315 315 314 314 315 314 315 317 319 321 320 319 311 315 317 312 311 313 314 317 317 318 316 316 316 317 319 320 319 320 321 321 321 321 320 324 325 324 324 324 323 323 324 326
317 318 315 314 314 315 317 316 316 315 316 314 310 316 313 311 313 313 313 314 315 315 316 317 318 318 318 318 321 321 321 322 321 321 321 320 322 325 325 324 324 324 323 321
314 313 311 314 315 314 316 316 313 315 298 312 313 311 310 309 310 311 314 315 316 317 317 317 317 316 317 318 319 320 321 321 321 321 321 321 320 321 324 324 325 325 324 324
310 313 312 312 312 312 315 314 319 317 317 315 312 311 314 312 312 311 311 313 315 314 314 315 315 314 316 317 319 319 320 321 320 320 320 321 321 321 323 324 325 326 325 325
311 309 313 312 313 313 313 316 316 316 317 316 312 313 307 311 310 309 309 312 311 312 312 313 314 314 315 317 318 319 319 320 320 320 319 320 321 322 322 324 325 326 326 327
311 310 310 313 311 310 312 313 316 319 316 317 317 316 309 308 307 308 308 310 310 312 313 313 312 313 312 314 314 315 316 316 317 318 318 320 321 322 323 323 324 324 326 327
310 311 309 308 305 309 314 314 314 314 313 315 315 313 304 306 308 310 311 312 312 312 312 312 314 311 309 309 311 313 314 315 316 318 319 320 321 322 323 324 325 325 325 325
310 307 306 308 304 306 310 311 313 315 316 314 313 313 310 310 312 313 314 313 314 314 314 315 315 310 311 310 309 310 311 311 312 313 315 318 320 322 323 324 325 326 325 325
307 306 307 308 307 309 309 309 310 314 313 311 311 308 308 309 310 311 311 312 312 312 313 314 315 312 311 312 311 312 312 312 312 312 311 311 310 310 314 320 323 324 326 326
309 309 309 308 309 309 309 308 308 310 311 311 311 311 308 310 311 311 312 312 311 311 311 312 315 313 312 313 312 312 312 312 312 312 311 311 312 312 311 310 309 309 310 313
310 308 309 309 306 308 305 307 307 307 308 310 310 310 308 309 310 311 311 311 311 311 311 312 313 314 313 313 312 312 312 312 312 311 311 310 310 310 310 310 310 309 309 309
308 305 302 303 296 302 303 303 305 306 307 307 308 309 309 309 309 309 309 309 310 310 311 311 312 314 314 312 313 312 312 312 312 311 310 309 309 309 309 309 309 309 309 309
303 301 296 297 289 297 300 299 303 305 304 305 307 307 307 308 307 307 308 309 310 310 311 311 312 312 312 312 312 312 312 312 311 310 309 308 308 308 308 308 309 309 309 309
300 299 297 286 289 292 297 298 301 301 302 301 302 302 302 306 307 306 308 309 308 310 311 311 312 312 312 313 310 312 312 312 310 309 308 307 306 307 307 307 308 308 309 309
297 294 292 283 287 293 296 297 304 301 300 293 295 295 294 297 300 297 302 307 308 308 311 311 313 311 312 311 310 310 311 310 308 307 306 306 306 306 307 307 308 307 307 306
298 296 290 285 288 296 297 300 300 293 290 290 289 290 289 289 290 293 296 301 305 305 310 311 311 309 309 308 309 309 310 308 307 306 305 306 306 307 307 307 305 305 305 305
298 298 295 297 297 295 292 292 286 285 284 284 283 285 285 287 289 291 294 299 302 303 306 309 309 308 307 307 307 307 306 306 305 305 306 306 306 306 306 305 304 304 304 302
295 289 299 298 295 291 288 286 284 284 282 281 281 282 286 285 287 289 293 296 299 301 303 304 304 306 306 305 305 304 304 304 304 305 306 306 305 304 303 303 302 302 302 302
285 285 285 292 289 289 284 280 278 280 279 280 282 282 283 285 287 286 289 291 295 298 299 301 301 301 302 302 302 302 302 303 303 303 304 303 302 302 302 301 302 302 302 301
275 275 285 289 273 273 277 278 277 276 276 277 278 282 282 281 284 286 287 288 290 293 296 298 297 298 298 299 299 300 300 301 301 301 301 301 301 300 299 300 301 300 300 300